[[{"header":{"parameterUnit":"m.s-1","parameterCategory":1,"la1":30.6,"la2":29.2853,"lo1":-89.7004,"lo2":-87.6739,"dy":0.0162,"dx":0.0183,"nx":112,"ny":82,"refTime":"2024-05-10T12:00:00:Z","depth":0,"parameterNumber":2,"parameterNumberName":"U-component_of_WINDS"},"data":[0.0,0.0,0.0,0.0,0.0,0.0,0.0,0.0,0.0,0.0,0.0,0.0,0.0,0.0,0.0,0.0,0.0,0.0,0.0,0.0,0.0,0.0,0.0,0.0,0.0,0.0,0.0,0.0,0.0,0.0,0.0,0.0,0.0,0.0,0.0,0.0,0.0,0.0,0.0,0.0,0.0,0.0,0.0,0.0,0.0,0.0,0.0,0.0,0.0,0.0,0.0,0.0,0.0,0.0,0.0,0.0,0.0,0.0,0.0,0.0,0.0,0.0,0.0,0.0,0.0,0.0,0.0,0.0,0.0,0.0,0.0,0.0,0.0,0.0,0.0,0.0,0.0,0.0,0.0,0.0,0.0,0.0,0.0,0.0,0.0,0.0,0.0,0.0,0.0,0.0,0.0,1.0488,1.0391,1.0064,0.9523,0.8971,0.8464,0.8005,0.0,0.0,0.0,0.0,0.0,0.0,0.0,0.0,0.0,0.0,0.0,0.0,0.0,0.0,0.0,0.0,0.0,0.0,0.0,0.0,0.0,0.0,0.0,0.0,0.0,0.0,0.0,0.0,0.0,0.0,0.0,0.0,0.0,0.0,0.0,0.0,0.0,0.0,0.0,0.0,0.0,0.0,0.0,0.0,0.0,0.0,0.0,0.0,0.0,0.0,0.0,0.0,0.0,0.0,0.0,0.0,0.0,0.0,0.0,0.0,0.0,0.0,0.0,0.0,0.0,0.0,0.0,0.0,0.0,0.0,0.0,0.0,0.0,0.0,0.0,0.0,0.0,0.0,0.0,0.0,0.0,0.0,0.0,0.0,0.0,0.0,0.0,0.0,0.0,0.0,0.0,0.0,0.0,0.0,0.0,0.0,0.0,0.0,0.0,0.0,0.0,0.0,0.0,0.0,1.0351,0.9978,0.9803,0.9504,0.8976,0.8375,0.8117,0.8309,0.0,0.0,0.0,0.0,0.0,0.0,0.0,0.0,0.0,0.0,0.0,0.0,0.0,0.0,0.0,0.0,0.0,0.0,0.0,0.0,0.0,0.0,0.0,0.0,0.0,0.0,0.0,0.0,0.0,0.0,0.0,0.0,0.0,0.0,0.0,0.0,0.0,0.0,0.0,0.0,0.0,0.0,0.0,0.0,0.0,0.0,0.0,0.0,0.0,0.0,0.0,0.0,0.0,0.0,0.0,0.0,0.0,0.0,0.0,0.0,0.0,0.0,0.0,0.0,0.0,0.0,0.0,0.0,0.0,0.0,0.0,0.0,0.0,0.0,0.0,0.0,0.0,0.0,0.0,0.0,0.0,0.0,0.0,0.0,0.0,0.0,0.0,0.0,0.0,0.0,0.0,0.0,0.0,0.0,0.0,0.0,0.0,0.0,0.0,0.0,0.0,0.0,0.0,1.0358,1.016,0.9735,0.9642,0.9445,0.9052,0.8332,0.8099,0.8577,0.8239,0.0,0.0,0.0,0.0,0.0,0.0,0.0,0.0,0.0,0.0,0.0,0.0,0.0,0.0,0.0,0.0,0.0,0.0,0.0,0.0,0.0,0.0,0.0,0.0,0.0,0.0,0.0,0.0,0.0,0.0,0.0,0.0,0.0,0.0,0.0,0.0,0.0,0.0,0.0,0.0,0.0,0.0,0.0,0.0,0.0,0.0,0.0,0.0,0.0,0.0,0.0,0.0,0.0,0.0,0.0,0.0,0.0,0.0,0.0,0.0,0.0,0.0,0.0,0.0,0.0,0.0,0.0,0.0,0.0,0.0,0.0,0.0,0.0,0.0,0.0,0.0,0.0,0.0,0.0,0.0,0.0,0.0,0.0,0.0,0.0,0.0,0.0,0.0,0.0,0.0,0.0,0.0,0.0,0.0,0.0,0.0,0.0,0.0,0.0,0.0,0.0,0.0,1.0166,0.979,0.9729,0.9535,0.9329,0.9118,0.8372,0.8159,0.8758,0.7986,0.0,0.0,0.0,0.0,0.0,0.0,0.0,0.0,0.0,0.0,0.0,0.0,0.0,0.0,0.0,0.0,0.0,0.0,0.0,0.0,0.0,0.0,0.0,0.0,0.0,0.0,0.0,0.0,0.0,0.0,0.0,0.0,0.0,0.0,0.0,0.0,0.0,0.0,0.0,0.0,0.0,0.0,0.0,0.0,0.0,0.0,0.0,0.0,0.0,0.0,0.0,0.0,0.0,0.0,0.0,0.0,0.0,0.0,0.0,0.0,0.0,0.0,0.0,0.0,0.0,0.0,0.0,0.0,0.0,0.0,0.0,0.0,0.0,0.0,0.0,0.0,0.0,0.0,0.0,0.0,0.0,0.0,0.0,0.0,0.0,0.0,0.0,0.0,0.0,0.0,0.0,0.0,0.0,0.0,0.0,0.0,0.0,0.0,0.0,0.0,0.0,0.0,0.9999,0.9462,1.0005,0.9346,0.8851,0.8838,0.8258,0.8159,0.8758,0.7986,0.0,0.0,0.0,0.0,0.0,0.0,0.0,0.0,0.0,0.0,0.0,0.0,0.0,0.0,0.0,0.0,0.0,0.0,0.0,0.0,0.0,0.0,0.0,0.0,0.0,0.0,0.0,0.0,0.0,0.0,0.0,0.0,0.0,0.0,0.0,0.0,0.0,0.0,0.0,0.0,0.0,0.0,0.0,0.0,0.0,0.0,0.0,0.0,0.0,0.0,0.0,0.0,0.0,0.0,0.0,0.0,0.0,0.0,0.0,0.0,0.0,0.0,0.0,0.0,0.0,0.0,0.0,0.0,0.0,0.0,0.0,0.0,0.0,0.0,0.0,0.0,0.0,0.0,0.0,0.0,0.0,0.0,0.0,0.0,0.0,0.0,0.0,0.0,0.0,0.0,0.0,0.0,0.0,0.0,0.0,0.0,0.0,0.0,0.0,0.0,0.0,0.0,0.9793,0.9407,0.0,0.9004,0.8865,0.9038,0.8345,0.8232,0.8998,0.0,0.0,0.0,0.0,0.0,0.0,0.0,0.0,0.0,0.0,0.0,0.0,0.0,0.0,0.0,0.0,0.0,0.0,0.0,0.0,0.0,0.0,0.0,0.0,0.0,0.0,0.0,0.0,0.0,0.0,0.0,0.0,0.0,0.0,0.0,0.0,0.0,0.0,0.0,0.0,0.0,0.0,0.0,0.0,0.0,0.0,0.0,0.0,0.0,0.0,0.0,0.0,0.0,0.0,0.0,0.0,0.0,0.0,0.0,0.0,0.0,0.0,0.0,0.0,0.0,0.0,0.0,0.0,0.0,0.0,0.0,0.0,0.0,0.0,0.0,0.0,0.0,0.0,0.0,0.0,0.0,0.0,0.0,0.0,0.0,0.0,0.0,0.0,0.0,0.0,0.0,0.0,0.0,0.0,0.0,0.0,0.0,0.0,0.0,0.0,0.0,0.0,0.9975,0.9606,0.929,0.0,0.8851,0.8838,0.8945,0.8305,0.8199,0.8911,0.0,0.0,0.0,0.0,0.0,0.0,0.0,0.0,0.0,0.0,0.0,0.0,0.0,0.0,0.0,0.0,0.0,0.0,0.0,0.0,0.0,0.0,0.0,0.0,0.0,0.0,0.0,0.0,0.0,0.0,0.0,0.0,0.0,0.0,0.0,0.0,0.0,0.0,0.0,0.0,0.0,0.0,0.0,0.0,0.0,0.0,0.0,0.0,0.0,0.0,0.0,0.0,0.0,0.0,0.0,0.0,0.0,0.0,0.0,0.0,0.0,0.0,0.0,0.0,0.0,0.0,0.0,0.0,0.0,0.0,0.0,0.0,0.0,0.0,0.0,0.0,0.0,0.0,0.0,0.0,0.0,0.0,0.0,0.0,0.0,0.0,0.0,0.0,0.0,0.0,0.0,0.0,0.0,0.0,0.0,0.0,0.0,0.0,0.0,0.0,0.0,0.0,1.0086,0.9458,0.9058,0.9185,0.8965,0.8691,0.8422,0.8091,0.8044,0.0,0.0,0.0,0.0,0.0,0.0,0.0,0.0,0.0,0.0,0.0,0.0,0.0,0.0,0.0,0.0,0.0,0.0,0.0,0.0,0.0,0.0,0.0,0.0,0.0,0.0,0.0,0.0,0.0,0.0,0.0,0.0,0.0,0.0,0.0,0.0,0.0,0.0,0.0,0.0,0.0,0.0,0.0,0.0,0.0,0.0,0.0,0.0,0.0,0.0,0.0,0.0,0.0,0.0,0.0,0.0,0.0,0.0,0.0,0.0,0.0,0.0,0.0,0.0,0.0,0.0,0.0,0.0,0.0,0.0,0.0,0.0,0.0,0.0,0.0,0.0,0.0,0.0,0.0,0.0,0.0,0.0,0.0,0.0,0.0,0.0,0.0,0.0,0.0,0.0,0.0,0.0,0.0,0.0,0.0,0.0,0.0,0.0,0.0,0.0,0.0,0.0,0.0,1.0314,0.9457,0.8868,0.8918,0.8844,0.8691,0.8422,0.8091,0.8044,0.8382,0.0,0.0,0.0,0.0,0.0,0.0,0.0,0.0,0.0,0.0,0.0,0.0,0.0,0.0,0.0,0.0,0.0,0.0,0.0,0.0,0.0,0.0,0.0,0.0,0.0,0.0,0.0,0.0,0.0,0.0,0.0,0.0,0.0,0.0,0.0,0.0,0.0,0.0,0.0,0.0,0.0,0.0,0.0,0.0,0.0,0.0,0.0,0.0,0.0,0.0,0.0,0.0,0.0,0.0,0.0,0.0,0.0,0.0,0.0,0.0,0.0,0.0,0.0,0.0,0.0,0.0,0.0,0.0,0.0,0.0,0.0,0.0,0.0,0.0,0.0,0.0,0.0,0.0,0.0,0.0,0.0,0.0,0.0,0.0,0.0,0.0,0.0,0.0,0.0,0.0,0.0,0.0,0.0,0.0,0.0,0.0,0.0,0.0,0.0,0.0,0.0,0.0,0.994,0.9262,0.8838,0.8951,0.8865,0.8637,0.8237,0.8012,0.7985,0.8183,0.0,0.0,0.0,0.0,0.0,0.0,0.0,0.0,0.0,0.0,0.0,0.0,0.0,0.0,0.0,0.0,0.0,0.0,0.0,0.0,0.0,0.0,0.0,0.0,0.0,0.0,0.0,0.0,0.0,0.0,0.0,0.0,0.0,0.0,0.0,0.0,0.0,0.0,0.0,0.0,0.0,0.0,0.0,0.0,0.0,0.0,0.0,0.0,0.0,0.0,0.0,0.0,0.0,0.0,0.0,0.0,0.0,0.0,0.0,0.0,0.0,0.0,0.0,0.0,0.0,0.0,0.0,0.0,0.0,0.0,0.0,0.0,0.0,0.0,0.0,0.0,0.0,0.0,0.0,0.0,0.0,0.0,0.0,0.0,0.0,0.0,0.0,0.0,0.0,0.0,0.0,0.0,0.0,0.0,0.0,0.0,0.0,0.0,0.0,0.0,0.0,0.0,0.9322,0.8998,0.8905,0.9164,0.8965,0.8571,0.7992,0.7945,0.7969,0.8017,0.0,0.0,0.0,0.0,0.0,0.0,0.0,0.0,0.0,0.0,0.0,0.0,0.0,0.0,0.0,0.0,0.0,0.0,0.0,0.0,0.0,0.0,0.0,0.0,0.0,0.0,0.0,0.0,0.0,0.0,0.0,0.0,0.0,0.0,0.0,0.0,0.0,0.0,0.0,0.0,0.0,0.0,0.0,0.0,0.0,0.0,0.0,0.0,0.0,0.0,0.0,0.0,0.0,0.0,0.0,0.0,0.0,0.0,0.0,0.0,1.5396,0.0,0.0,0.0,0.0,0.0,0.0,0.0,0.0,0.0,0.0,0.0,0.0,0.0,0.0,0.0,0.0,0.0,0.0,0.0,0.0,0.0,0.0,0.0,0.0,0.0,0.0,0.0,0.0,0.0,0.0,0.0,0.0,0.0,0.0,0.0,0.0,0.0,0.0,0.0,0.0,0.0,0.9938,0.926,0.8905,0.9164,0.8965,0.8664,0.8322,0.8289,0.8468,0.8897,0.9031,0.0,0.0,0.0,0.0,0.0,0.0,0.0,0.0,0.0,0.0,0.0,0.0,0.0,0.0,0.0,0.0,0.0,0.0,0.0,0.0,0.0,0.0,0.0,0.0,0.0,0.0,0.0,0.0,0.0,0.0,0.0,0.0,0.0,0.0,0.0,0.0,0.0,0.0,0.0,0.0,0.0,0.0,0.0,0.0,0.0,0.0,0.0,0.0,0.0,0.0,0.0,0.0,0.0,0.0,0.0,0.0,0.0,0.0,0.0,0.0,1.6471,0.0,0.0,0.0,0.0,0.0,0.0,0.0,0.0,0.0,0.0,0.0,0.0,0.0,0.0,0.0,0.0,0.0,0.0,0.0,0.0,0.0,0.0,0.0,0.0,0.0,0.0,0.0,0.0,0.0,0.0,0.0,0.0,0.0,0.0,0.0,0.0,0.0,0.0,0.0,0.0,0.9692,0.9153,0.8905,0.9164,0.8965,0.8691,0.8422,0.8402,0.8626,0.917,0.9438,0.0,0.0,0.0,0.0,0.0,0.0,0.0,0.0,0.0,0.0,0.0,0.0,0.0,0.0,0.0,0.0,0.0,0.0,0.0,0.0,0.0,0.0,0.0,0.0,0.0,0.0,0.0,0.0,0.0,0.0,0.0,0.0,0.0,0.0,0.0,0.0,0.0,0.0,0.0,0.0,0.0,0.0,0.0,0.0,0.0,0.0,0.0,0.0,0.0,0.0,0.0,0.0,0.0,1.8836,1.832,1.8698,1.8592,1.8773,1.9138,1.8087,1.698,1.5926,0.0,0.0,0.0,0.0,0.0,0.0,0.0,0.0,0.0,0.0,0.0,0.0,0.0,0.0,0.0,0.0,0.0,0.0,0.0,0.0,0.0,0.0,0.0,0.0,0.0,1.5577,1.4802,0.0,0.0,0.0,0.0,0.0,0.0,0.0,0.0,0.0,0.0,0.0,0.0,0.9327,0.9038,0.8985,0.9257,0.9045,0.8764,0.849,0.8476,0.874,0.9368,0.9822,1.0487,0.0,0.0,0.0,0.0,0.0,0.0,0.0,0.0,0.0,0.0,0.0,0.0,0.0,0.0,0.0,0.0,0.0,0.0,0.0,0.0,0.0,0.0,0.0,0.0,0.0,0.0,0.0,0.0,0.0,0.0,0.0,0.0,1.3619,1.315,0.0,0.0,0.0,0.0,0.0,0.0,0.0,0.0,0.0,0.0,0.0,0.0,0.0,1.4379,1.4013,1.9525,2.1571,2.0141,1.9895,1.8996,1.7548,1.8319,1.8284,1.7681,1.9095,0.0,1.7575,1.6323,0.0,0.0,0.0,0.0,0.0,0.0,0.0,0.0,0.0,0.0,0.0,0.0,0.0,0.0,0.0,0.0,0.0,0.0,0.0,0.0,0.0,0.0,1.4608,1.5098,1.4796,1.447,0.0,1.433,1.379,1.3359,1.2997,0.0,0.0,0.0,0.0,0.0,0.0,0.0,0.9689,0.9351,0.9271,0.9593,0.9345,0.9038,0.8778,0.8751,0.9174,1.0173,1.0313,1.0893,1.2126,1.2249,0.0,0.0,0.0,0.0,0.0,0.0,0.0,0.0,0.0,0.0,0.0,0.0,0.0,0.0,0.0,0.0,0.0,0.0,0.0,0.0,0.0,0.0,0.0,0.0,0.0,0.0,0.0,0.0,0.0,1.4318,1.4307,1.3805,1.4362,1.4614,0.0,0.0,0.0,0.0,0.0,0.0,0.0,0.0,0.0,1.7119,1.5867,1.5966,1.7592,2.0112,2.1498,2.1717,2.0628,1.997,1.9735,2.014,2.0108,1.9762,2.0587,2.1116,2.1136,1.7958,1.6506,1.6227,0.0,0.0,0.0,0.0,1.6547,1.6953,1.7184,1.7356,0.0,1.7078,0.0,0.0,0.0,0.0,0.0,0.0,0.0,0.0,0.0,0.0,1.5693,1.6368,1.6158,1.5797,1.5739,1.5277,1.4687,0.0,1.3258,1.2704,1.2708,0.0,0.0,0.0,0.0,0.0,0.9483,0.9451,0.9539,0.9681,0.9566,0.9358,0.9044,0.9024,0.9293,0.9912,1.0223,1.0804,1.1703,1.2101,1.2369,0.0,0.0,0.0,0.0,0.0,0.0,0.0,0.0,0.0,0.0,0.0,0.0,0.0,0.0,0.0,0.0,0.0,0.0,0.0,0.0,0.0,0.0,0.0,0.0,0.0,0.0,0.0,0.0,1.4722,1.4832,1.41,1.469,1.4952,0.0,0.0,0.0,0.0,0.0,0.0,1.6525,1.6871,1.7559,1.865,1.7523,1.8162,2.0816,2.0838,2.1575,2.2979,2.1525,2.1236,2.1981,2.2466,2.2695,2.2695,2.2695,2.338,2.4156,1.9992,1.8046,1.7634,1.6849,1.6664,1.6868,1.7087,1.7478,1.7947,1.8198,1.8358,1.8388,1.8111,0.0,1.6629,1.6162,0.0,0.0,0.0,0.0,1.6354,1.7106,1.7006,1.6896,1.7645,1.7482,1.7072,1.6883,1.6395,1.5711,0.0,1.3772,1.3064,1.2801,0.0,0.0,0.0,0.0,1.0022,0.9495,0.9645,0.9793,0.9793,0.9793,0.9673,0.9351,0.9244,0.9357,0.97,1.0149,1.0673,1.1289,1.1915,1.2261,1.2298,0.0,0.0,0.0,0.0,0.0,0.0,0.0,0.0,0.0,0.0,0.0,0.0,0.0,0.0,0.0,0.0,0.0,0.0,0.0,0.0,0.0,0.0,0.0,0.0,0.0,0.0,0.0,0.0,0.0,1.314,1.435,0.0,0.0,0.0,0.0,1.6424,1.6448,1.7074,1.8484,1.8582,1.901,1.9971,1.9927,2.0838,2.2837,2.2859,2.2903,2.3001,2.2903,2.2881,2.299,2.4836,2.5688,2.5688,2.5688,2.5732,2.5546,2.2269,2.0527,1.9861,1.8916,1.856,1.8605,1.8869,1.9108,1.9273,1.9091,1.9174,1.9402,1.9824,1.9616,1.913,1.8654,1.7815,0.0,0.0,1.7256,1.7519,1.7568,1.7555,1.7649,1.8072,1.7823,1.7568,1.7935,1.7394,1.6376,0.0,1.4447,1.4092,1.3064,0.0,1.2282,1.0729,1.0486,1.0379,1.0094,1.0072,1.0078,1.0078,1.0078,0.9973,0.9701,0.9391,0.9446,1.0034,1.028,1.0673,1.1289,1.1828,1.2163,1.2298,1.2443,0.0,0.0,0.0,0.0,0.0,0.0,0.0,0.0,0.0,0.0,0.0,0.0,0.0,0.0,0.0,0.0,0.0,0.0,0.0,0.0,0.0,0.0,0.0,0.0,0.0,0.0,0.0,0.0,1.5793,1.6765,0.0,1.6765,1.7404,1.7857,1.7919,1.8478,1.92,2.0079,1.9945,2.031,2.1288,2.1159,2.1701,2.299,2.4246,2.4869,2.4869,2.4869,2.4869,2.4891,2.5579,2.5895,2.5895,2.5895,2.5895,2.5863,2.5307,2.3856,2.1869,2.0926,2.0571,2.0615,2.1,2.1213,2.1297,2.1532,2.1651,2.1586,2.085,2.0063,1.9238,1.838,1.8055,1.7978,1.7905,1.8116,1.8392,1.8435,1.8368,1.8341,1.849,1.8387,1.8302,1.8457,1.8256,1.7807,1.6983,1.5764,1.4607,1.3691,1.3036,1.2289,1.1239,1.093,1.0791,1.0684,1.0681,1.0681,1.0681,1.0514,1.0303,0.9987,0.9852,0.9712,0.9535,0.9947,1.0367,1.0706,1.1529,1.2028,1.2172,1.2551,1.2456,0.0,0.0,0.0,0.0,0.0,0.0,0.0,0.0,0.0,0.0,0.0,0.0,0.0,0.0,0.0,0.0,0.0,0.0,0.0,0.0,0.0,0.0,0.0,0.0,0.0,0.0,1.8014,1.8014,1.8997,1.9484,1.903,1.9399,1.9745,1.991,2.0281,2.079,2.1467,2.112,2.131,2.2182,2.1931,2.22,2.3001,2.3988,2.4487,2.4487,2.5443,2.5401,2.4487,2.4487,2.5009,2.5939,2.6583,2.6889,2.6933,2.7556,2.6346,2.404,2.3142,2.2725,2.259,2.2654,2.2668,2.2684,2.2764,2.2947,2.2918,2.1623,2.0791,2.0148,1.9195,1.8971,1.9045,1.9098,1.9247,1.939,1.9438,1.9373,1.93,1.93,1.93,1.93,1.93,1.93,1.9066,1.8231,1.6768,1.5393,1.4497,1.3586,1.2642,1.1715,1.1423,1.1266,1.1149,1.1136,1.1102,1.1002,1.0838,1.0604,1.0309,1.0174,0.9892,0.9405,0.9998,1.0384,1.0405,1.1413,1.2012,1.2101,1.2452,1.2942,1.3584,0.0,0.0,0.0,0.0,0.0,0.0,0.0,0.0,0.0,0.0,0.0,0.0,0.0,0.0,0.0,0.0,0.0,0.0,0.0,0.0,0.0,0.0,0.0,1.665,1.8253,1.9486,1.9512,2.0778,2.1472,2.1009,2.1374,2.1819,2.2252,2.1683,2.172,2.2606,2.2037,2.1959,2.2581,2.2334,2.2422,2.295,2.2116,2.1723,2.1814,2.4549,2.442,2.1791,2.1791,2.3269,2.5944,2.7836,2.8667,2.8716,2.8749,2.7779,2.6225,2.5496,2.4925,2.4402,2.3679,2.3417,2.3316,2.2666,2.2859,2.3222,2.219,2.1958,2.1972,2.1321,2.0664,2.0222,2.0583,2.0611,2.0518,2.05,2.0509,2.0518,2.05,2.05,2.05,2.05,2.05,2.0012,1.8368,1.7371,1.6466,1.5359,1.4478,1.3462,1.2134,1.194,0.0,1.1486,1.1432,1.1312,1.1065,1.1025,1.0898,1.062,1.0294,1.0,0.9707,1.0431,1.0735,1.0434,1.1502,1.2122,1.2174,1.217,1.3332,1.5727,0.0,0.0,0.0,0.0,0.0,0.0,0.0,0.0,0.0,0.0,0.0,0.0,0.0,0.0,0.0,0.0,0.0,0.0,0.0,0.0,0.0,0.0,1.8679,1.8611,2.0145,2.1471,2.1939,2.2408,2.2695,2.2716,2.27,2.245,2.1835,2.1926,2.1989,2.1905,2.1578,2.1686,2.2296,2.2001,2.1901,2.2061,2.181,2.2304,2.3516,2.4288,2.4264,2.3507,2.3507,2.3939,2.4688,2.5223,2.5942,2.6758,2.7424,2.7041,2.598,2.5626,2.5059,2.4365,2.3858,2.3693,2.3672,2.3481,2.33,2.3132,2.2845,2.2544,2.2201,2.1585,2.1269,2.1053,2.0652,2.0746,2.0879,2.0573,2.0711,2.0848,2.0564,2.05,2.05,2.05,2.05,2.0153,1.9027,1.7917,1.6609,1.4841,1.4352,1.3877,1.2975,1.2683,0.0,1.2429,1.2029,1.1734,1.1654,1.1436,1.1102,1.0633,1.0519,1.0149,0.9391,0.9956,1.0472,1.0812,1.1838,1.2846,1.3813,1.365,1.4375,0.0,0.0,0.0,0.0,0.0,0.0,0.0,0.0,0.0,0.0,0.0,0.0,0.0,0.0,0.0,0.0,0.0,0.0,0.0,0.0,0.0,0.0,1.935,2.0436,2.1081,2.1903,2.2751,2.3552,2.3659,2.3655,2.3592,2.3461,2.3002,2.2015,2.1903,2.1769,2.1475,2.1096,2.1203,2.188,2.1527,2.1378,2.1531,2.1242,2.1912,2.3488,2.3978,2.4202,2.4202,2.4202,2.4202,2.4276,2.5572,2.6264,2.6507,2.666,2.6249,0.0,0.0,0.0,0.0,0.0,2.3181,2.2918,2.2918,2.2937,2.2906,2.2421,2.2293,2.2193,2.1531,2.133,2.1304,2.1065,2.1169,2.1333,2.1269,2.1297,2.1333,2.1269,2.1132,2.1004,2.1004,2.1004,2.069,1.9605,1.849,0.0,1.5323,1.4568,1.4012,1.3447,1.324,1.3046,1.2836,1.2482,1.2181,1.1933,1.1734,1.1376,1.0827,1.1031,0.0,0.0,0.0,1.1553,1.219,1.2937,0.0,0.0,0.0,1.5405,1.6286,0.0,0.0,0.0,1.9311,1.9253,0.0,0.0,0.0,0.0,0.0,0.0,0.0,0.0,0.0,0.0,0.0,0.0,0.0,0.0,0.0,0.0,2.084,2.1928,2.3338,2.3267,2.3364,2.4231,2.4273,2.4063,2.3631,2.3574,2.3173,2.2224,2.1565,2.1127,2.1015,0.0,0.0,0.0,0.0,2.0977,2.1243,2.0602,2.098,2.2451,2.3347,2.3882,2.3986,2.4149,2.4273,2.456,2.7398,2.8031,2.6998,2.6215,2.5536,2.5048,2.5618,2.5325,2.4463,2.3271,2.2377,2.1782,2.1782,0.0,0.0,2.1497,2.1643,2.209,2.1441,2.1245,2.1315,2.1727,2.1797,2.1856,2.2213,2.2039,2.1874,2.2222,2.2039,2.1782,2.1782,2.1782,2.1387,2.0117,1.9112,1.7983,1.6447,1.5057,1.4035,1.372,1.3626,1.3427,1.2951,1.285,1.2583,1.206,0.0,0.0,1.1106,1.1678,1.1816,1.1218,1.2366,1.3345,1.4006,1.4423,1.4656,1.4702,1.5649,1.6255,1.6482,1.8387,1.9116,1.8775,1.9054,1.9325,0.0,0.0,0.0,0.0,0.0,0.0,0.0,0.0,0.0,0.0,0.0,0.0,0.0,0.0,0.0,2.0134,2.075,2.1456,2.2974,2.2942,2.2875,2.3175,2.2885,2.2566,2.2369,2.2195,2.173,2.0782,2.0565,2.0144,1.9325,1.9577,1.9618,1.9325,2.0491,2.1089,2.0989,2.0305,2.0696,2.208,0.0,0.0,2.2792,2.3754,2.4705,2.5654,2.7003,2.6846,2.5616,2.5828,2.5275,2.4251,2.3734,2.3231,2.2813,2.2871,2.2594,2.2185,2.2185,2.2074,2.1878,2.1662,2.1899,2.2247,2.2112,2.2066,0.0,2.2556,2.2428,2.2204,2.2277,2.224,2.2204,2.2286,2.224,2.2185,2.2185,2.2185,2.1785,2.0472,1.9831,1.9056,1.7607,1.5742,1.4335,1.4048,1.378,1.356,1.3467,1.3066,1.2763,1.2649,1.2383,1.1984,1.1372,1.2047,1.2236,1.1618,1.3121,1.4281,1.4833,1.5249,1.5625,1.5947,1.5852,1.6175,1.696,1.7324,1.7677,1.8045,1.9583,1.9623,0.0,0.0,0.0,0.0,0.0,0.0,0.0,0.0,0.0,0.0,0.0,1.6078,1.6346,0.0,1.8871,2.0756,2.1253,2.1735,2.2678,2.2476,2.2322,2.2538,2.2336,2.1907,2.123,2.106,2.0597,1.9629,1.9538,1.934,1.8827,1.905,1.9161,1.909,1.9684,2.0119,2.0409,1.9701,1.9894,2.0932,2.0584,2.0651,2.1199,2.2331,2.3699,2.5232,2.5702,2.5599,2.5062,2.4727,2.4071,2.3195,2.2619,2.2476,2.262,2.2831,2.2776,2.2593,2.2593,2.2465,2.2263,2.2075,2.2263,2.2519,2.213,2.2149,2.2304,2.23,2.2291,2.235,2.2538,2.2492,2.2488,2.2827,2.2854,2.2748,2.262,2.2451,2.2103,2.143,2.0616,1.978,1.8902,1.728,1.5785,1.4895,1.4349,1.3933,1.364,1.3253,1.2958,1.2804,1.2863,1.2708,1.2245,1.31,1.3672,1.3705,1.4709,1.5326,1.5404,1.579,1.6193,1.6589,1.6211,1.6233,1.6703,1.7147,1.704,1.6479,1.8409,1.8897,0.0,0.0,0.0,0.0,0.0,0.0,0.0,0.0,1.5567,1.5598,1.609,1.6658,1.7035,1.7883,1.9026,2.06,2.1049,2.1377,2.1879,2.1437,2.1177,2.1471,2.1648,2.1286,2.0119,2.0008,1.9675,1.885,1.8804,1.8804,1.8804,1.8804,1.8939,1.9256,1.905,1.9201,1.9813,1.9209,1.9248,1.9909,1.9922,1.9882,1.9837,2.0614,2.1899,2.3533,2.3795,2.422,2.4673,2.3422,2.2603,2.2104,2.1853,2.2111,2.2639,2.2888,2.2899,2.2795,2.2972,2.2968,2.2849,2.251,2.2684,2.2895,2.2245,2.2286,2.2488,2.2249,2.2332,2.2598,2.3046,2.3001,2.2927,2.3288,2.3334,2.3285,2.316,2.2836,2.2515,2.2442,2.1484,2.0588,2.0218,1.9087,1.7648,1.6004,1.5297,1.4739,1.4248,1.3963,1.3698,1.3397,1.3636,1.3744,1.3565,1.4459,1.5317,1.6004,1.6441,1.6497,1.6175,1.647,1.6799,1.712,1.6735,1.6534,1.6534,1.7199,1.6821,1.5494,1.7054,1.775,1.2116,1.2605,1.3548,1.5237,1.5398,1.5678,0.0,0.0,1.6915,1.7331,1.7395,1.7313,1.7129,1.7339,1.7772,1.8463,1.8439,1.8738,1.987,1.9085,1.8588,1.9031,1.9724,1.9829,1.9053,1.8958,1.892,1.8804,1.8804,1.8804,1.8804,1.8804,1.882,1.8868,1.9161,1.9375,1.9455,1.9375,1.9519,1.9877,1.9271,1.912,1.9439,1.9206,1.9449,2.0127,2.1261,2.2588,2.38,2.2191,2.138,2.1159,2.1237,2.1398,2.1706,2.2849,2.2835,2.2387,2.3153,2.3197,2.2904,2.2858,2.3105,2.3407,2.3325,2.3325,2.3449,2.3819,2.3565,2.3321,2.3901,2.4021,2.3837,2.3123,2.3133,2.3431,2.3947,2.3694,2.3251,2.2904,2.2423,2.1944,2.1553,2.0658,1.9332,1.7387,1.6742,1.6443,1.6365,1.612,1.5795,1.5419,1.5169,1.5144,1.5464,1.5924,1.6526,1.7258,1.7688,1.788,1.7834,1.788,1.7926,1.7972,1.7578,1.7367,1.7367,1.7107,1.6887,1.6707,1.6913,1.6459,1.2718,1.3105,1.3697,0.0,1.5232,1.597,1.7297,1.7488,1.7352,1.7299,1.7505,1.7464,1.6818,1.6982,1.7342,0.0,1.7903,1.8142,1.8635,1.8305,1.7888,1.7561,1.784,1.7903,1.7542,1.7909,1.8164,1.8164,1.8566,1.8804,1.8804,1.8804,1.8804,1.8804,1.8955,1.9058,1.9058,1.9058,1.9129,1.9256,1.8947,1.8884,1.905,1.8876,1.9316,2.026,2.117,2.1762,2.2002,2.129,2.0879,2.0657,2.0704,2.0768,2.0966,2.2329,2.2654,2.2426,2.2789,2.2811,2.2619,2.2399,2.2804,2.3305,2.2838,2.3081,2.348,2.3449,2.3367,2.3367,2.362,2.3938,2.4119,2.373,2.373,2.3901,2.4156,2.3831,2.3444,2.3279,2.2744,2.2249,2.2085,2.1342,2.0474,1.9647,1.8243,1.7143,1.6746,1.6477,1.6349,1.646,1.6342,1.6482,1.7088,1.7295,1.7522,1.7825,1.8008,1.799,1.777,1.7761,1.7853,1.81,1.7706,1.7614,1.7844,1.7679,1.7358,1.6917,1.7376,1.7074,1.2912,0.0,0.0,1.4568,1.5577,1.658,1.7447,1.7651,1.7593,1.7429,1.7316,1.7002,1.6176,1.6306,1.6592,1.6709,1.7064,1.7403,1.7633,1.7343,1.6919,1.6445,1.6047,1.5811,1.5748,1.6616,1.7328,1.7677,1.8126,1.8517,1.8796,1.8804,1.8804,1.8804,1.8804,1.8804,1.8804,1.8804,1.8804,1.8804,1.8804,1.8804,1.8804,1.8907,1.9553,2.0597,2.1019,2.0999,2.0654,2.0587,2.0367,2.013,2.0321,2.0392,2.0532,2.1644,2.208,2.2172,2.2322,2.2416,2.2441,2.204,2.2442,2.2999,2.2549,2.2909,2.3429,2.3292,2.3394,2.3556,2.3556,2.3874,2.4202,2.4202,2.4202,2.4202,2.4202,2.3923,2.3688,2.3688,2.312,2.2634,2.2634,2.1966,2.1365,2.1135,1.9596,1.8256,1.7664,1.7223,1.7094,1.7424,1.7358,1.7531,1.8044,1.821,1.8265,1.8265,1.8366,1.8292,1.8009,1.799,1.8137,1.843,1.8146,1.8137,1.843,1.843,1.8128,1.7587,1.8155,1.8118,0.0,0.0,1.3829,1.5905,1.6991,1.7878,1.9221,1.8612,1.7901,1.8269,1.7025,1.5702,1.5149,1.5118,1.5092,1.4843,1.5237,1.5857,1.6723,1.5658,1.4998,1.5562,1.4431,1.3606,0.0,1.4963,1.6375,1.7616,1.7492,1.7773,1.8742,1.8804,1.8804,1.8804,1.8804,1.8804,1.8804,1.8804,1.8804,1.8804,1.8804,1.8804,1.882,1.9193,1.973,2.0292,2.0051,2.0104,2.0303,2.0036,1.9718,1.9495,2.0163,2.0392,2.044,2.0815,2.1074,2.1312,2.1831,2.2218,2.2441,2.2106,2.2243,2.2627,2.3094,2.3277,2.3436,2.3992,2.4174,2.4174,2.4174,2.4192,2.4202,2.4202,2.4202,2.4202,2.4202,2.4192,2.4183,2.4183,2.3794,2.3453,2.3453,2.2808,2.1993,2.1227,2.0705,2.0261,1.9859,1.9102,1.8629,1.8658,1.8291,1.8091,1.8109,1.8457,1.8677,1.8677,1.9054,1.9256,1.9246,1.9246,1.9256,1.9265,1.9256,1.9256,1.9265,1.9265,1.9256,1.9228,1.9256,1.9256,0.0,0.0,1.4055,1.5276,1.5879,1.6454,1.7399,1.7296,1.688,1.6488,1.5521,1.4585,1.4097,1.3733,1.3658,1.4105,1.463,1.5081,1.5376,1.515,1.4777,1.4271,1.3782,0.0,0.0,0.0,0.0,1.6616,1.7283,1.798,1.875,1.9058,1.9082,1.8812,1.8804,1.8804,1.8804,1.8804,1.8804,1.8804,1.8804,1.8804,1.8804,1.8931,1.9101,1.9311,1.9214,1.9228,1.9312,1.9502,1.9622,1.9765,2.0234,2.0535,2.0758,2.0851,2.0947,2.1021,2.1215,2.1347,2.1429,2.1307,2.1601,2.2004,2.2173,2.2753,2.3329,2.3562,2.3895,2.4202,2.4202,2.4202,2.4202,2.4202,2.4202,2.4202,2.4202,2.4202,2.4202,2.4202,2.4067,2.3859,2.3535,2.305,2.2419,2.1627,2.0711,2.006,1.9923,1.9895,1.9895,1.9895,1.9767,1.9584,1.9327,1.9419,1.9382,1.9118,1.9228,1.9301,1.9301,1.9301,1.9301,1.9301,1.9301,1.9301,1.9301,1.9301,1.9301,1.9301,1.9301,1.9301,1.2891,1.3636,1.4349,1.505,1.5574,1.597,1.6249,1.6044,1.5581,1.4714,1.3786,1.3047,1.2792,1.2409,1.2451,1.3461,1.381,1.4129,1.4491,1.4552,1.4316,1.3702,1.3551,0.0,0.0,0.0,0.0,1.5822,1.6829,1.7751,1.8528,1.9209,1.9415,1.9034,1.9003,1.8962,1.8804,1.8804,1.8804,1.8804,1.8804,1.8804,1.8804,1.8939,1.8955,1.8812,1.8939,1.8923,1.8828,1.9225,1.959,1.9924,2.0282,2.0607,2.0899,2.0899,2.0899,2.0875,2.0748,2.0788,2.0875,2.0774,2.1043,2.1453,2.1649,2.2325,2.3054,2.3254,2.3737,2.4202,2.4202,2.4202,2.4202,2.4202,2.4202,2.4202,2.4202,2.3718,2.3479,2.4091,2.4202,2.4094,2.3804,2.3285,2.2629,2.1815,2.1028,2.0399,1.9969,2.0134,2.0289,2.0289,2.0289,2.0189,1.9912,1.9776,1.9575,1.932,1.9301,1.9301,1.9301,1.9301,1.9301,1.9301,1.9301,1.9301,1.9301,1.9301,1.9301,1.9301,1.9301,1.9301,1.3634,1.4243,1.4674,1.5275,1.5943,1.6292,1.5755,1.4914,1.3993,1.3073,1.1949,1.1139,0.0,0.0,1.1472,1.2805,1.2848,1.3105,1.4171,1.3876,1.3659,0.0,0.0,0.0,0.0,0.0,0.0,1.5296,0.0,1.7172,1.8216,1.9331,1.9757,1.9407,1.9399,1.9232,1.8836,1.8828,1.8828,1.8828,1.8812,1.8804,1.882,1.9208,1.9153,1.882,1.9193,1.9153,1.8836,1.9241,1.9606,1.9949,2.0298,2.0623,2.0899,2.0899,2.0899,2.0843,2.0535,2.0639,2.0836,2.0527,2.0647,2.0994,2.1496,2.2021,2.2577,2.3104,2.3712,2.4202,2.4202,2.4202,2.4202,2.4202,2.4202,2.4202,2.4202,2.2942,2.2295,2.3898,2.4202,2.4202,2.4202,2.3477,2.2666,2.187,2.1723,2.1266,2.0067,1.996,1.9939,1.9921,1.9921,1.9912,1.9914,1.9547,1.932,1.9301,1.9301,1.9301,1.9301,1.9301,1.9301,1.9301,1.9301,1.9301,1.9301,1.9301,1.9301,1.9301,1.9301,1.9301,1.3784,1.4393,1.4731,1.4518,1.4368,1.41,1.3413,1.2848,1.2253,1.1507,1.057,0.983,0.0,0.0,0.0,1.1697,1.2557,0.0,1.4442,1.4636,0.0,0.0,0.0,1.4389,1.4389,1.4389,0.0,0.0,1.6339,1.7768,1.9371,1.9993,2.0012,1.9415,1.9399,1.9352,1.9256,1.9256,1.9256,1.9233,1.8939,1.8804,1.8804,1.89,1.8892,1.8812,1.8907,1.8892,1.8852,1.9511,1.9813,1.9948,2.0543,2.082,2.0899,2.0899,2.0899,2.0883,2.0796,2.082,2.0883,2.0788,2.082,2.0925,2.107,2.1471,2.2021,2.2552,2.3438,2.4202,2.4202,2.4202,2.4202,2.4202,2.4202,2.4202,2.4202,2.3856,2.3681,2.4119,2.4202,2.4202,2.4202,2.373,2.3178,2.2675,2.208,2.1366,2.0463,2.0601,2.0674,2.0381,2.0344,2.0234,1.9941,1.9813,1.9621,1.932,1.9301,1.9301,1.9301,1.9301,1.9301,1.9301,1.9301,1.9301,1.9301,1.9301,1.9301,1.9301,1.9301,1.9301,1.3972,1.4225,1.4187,1.3772,1.3342,1.274,1.1632,1.1086,1.0491,0.9398,0.8619,0.0,0.0,0.0,0.0,0.0,0.0,0.0,1.3831,1.4144,1.4383,0.0,1.489,0.0,1.489,1.489,1.5149,0.0,1.6583,1.763,1.8997,1.9714,2.0001,1.9836,1.9845,1.9773,1.9614,1.9614,1.9614,1.9606,1.9233,1.9066,1.9058,1.8876,1.8804,1.8804,0.0,1.8804,1.886,1.9598,1.9892,1.9956,2.0647,2.0899,2.0899,2.0899,2.0899,2.0899,2.0899,2.0899,2.0899,2.0899,2.0899,2.0899,2.0899,2.1267,2.1751,2.2047,2.3138,2.4202,2.4202,2.4202,2.4202,2.4202,2.4202,2.4202,2.4202,2.4202,2.4202,2.4202,2.4202,2.4202,2.4202,2.3984,2.3651,2.3224,2.2629,2.1934,2.1141,2.1059,2.0961,2.0537,2.05,2.0335,1.9921,1.974,1.9529,1.932,1.9301,1.9301,1.9301,1.9301,1.9301,1.9301,1.9301,1.9301,1.9301,1.9301,1.9301,1.9301,1.9301,1.9301,1.3919,1.3811,1.3337,1.2999,1.2555,1.1808,1.0326,0.9633,0.8888,0.7419,0.0,0.673,0.7461,0.0,0.8131,0.9659,0.0,1.0832,1.292,1.3201,1.3673,1.4941,1.5158,1.5215,1.5215,1.5215,1.5608,1.6607,1.6678,1.7085,1.8002,1.9096,1.9915,2.0383,2.0392,2.0266,1.9964,1.9956,1.9956,1.9956,1.9622,1.9439,1.9391,1.909,1.8892,1.8804,1.8852,0.0,1.8923,1.9622,1.9941,2.0028,2.0662,2.0899,2.0899,2.0899,2.0899,2.0899,2.0899,2.0899,2.0899,2.0899,2.0899,2.0899,2.0899,2.1224,2.1598,2.1674,2.2711,2.382,2.4127,2.4202,2.4202,2.4202,2.4202,2.4202,2.4202,2.4202,2.4202,2.4202,2.4202,2.4202,2.4202,2.4202,2.4058,2.3651,2.3242,2.2712,2.1952,2.1407,2.0934,2.0463,2.0418,2.0262,1.9859,1.9492,1.9301,1.9301,1.9301,1.9301,1.9301,1.9301,1.9301,1.9301,1.9301,1.9301,1.9301,1.9301,1.9301,1.9301,1.9301,1.9301,1.2848,1.3001,1.2751,1.2121,1.1592,1.0924,0.9719,0.8879,0.0,0.0,0.0,0.65,0.6477,0.6913,0.0,0.9114,0.0,0.0,0.0,0.0,1.414,0.0,0.0,0.0,0.0,0.0,0.0,0.0,0.0,1.6713,1.826,1.9202,1.9915,2.0383,2.0392,2.0361,2.0297,2.0297,2.0297,2.0322,1.9972,1.9662,1.9407,1.9614,1.9376,1.882,1.9145,0.0,1.9336,1.9725,2.0059,2.0345,2.0758,2.0899,2.0899,2.0899,2.0899,2.0899,2.0899,2.0899,2.0899,2.0899,2.0899,2.0899,2.0899,2.0968,2.1121,2.1573,2.1598,2.1878,2.3721,2.4202,2.4202,2.4202,2.4202,2.4202,2.4202,2.4202,2.4202,2.4202,2.4202,2.4202,2.4202,2.4202,2.4183,2.4085,2.3703,2.3224,2.2757,2.1764,2.0833,2.0088,1.9994,1.984,1.9448,1.9347,1.9301,1.9301,1.9301,1.9301,1.9301,1.9301,1.9301,1.9301,1.9301,1.9301,1.9301,1.9301,1.9301,1.9301,1.9301,1.9301,1.2254,1.237,1.2223,1.1608,1.0967,1.0139,0.8773,0.0,0.0,0.0,0.6183,0.6063,0.6178,0.0,0.0,0.0,0.0,0.0,0.0,0.0,0.0,0.0,0.0,0.0,0.0,0.0,0.0,0.0,0.0,1.6294,1.7693,1.8997,1.9992,2.0645,2.0662,2.0662,2.0662,2.0662,2.0662,2.0662,2.0313,2.0083,1.9924,1.99,1.9709,1.9376,1.9574,0.0,1.9678,2.0028,2.0241,2.0424,2.0756,2.0899,2.0899,2.0899,2.0899,2.0899,2.0899,2.0899,2.0899,2.0899,2.0899,2.0899,2.0899,2.0899,2.0942,2.1224,2.1377,2.181,2.3238,2.392,2.4202,2.4202,2.4202,2.4202,2.4202,2.4202,2.4202,2.4202,2.4202,2.4202,2.4202,2.4202,2.4202,2.4202,2.3629,2.3123,2.2908,2.2025,2.1178,2.0592,2.0335,2.0051,1.9648,1.943,1.9301,1.9301,1.9301,1.9301,1.9301,1.9301,1.9301,1.9301,1.9301,1.9301,1.9301,1.9301,1.9301,1.9301,1.9301,1.9301,1.1628,1.1724,1.1657,1.1192,1.0456,0.9491,0.8103,0.728,0.0,0.0,0.5732,0.5827,0.615,0.0,0.0,0.0,0.0,0.0,0.0,0.0,0.0,0.0,0.0,0.0,0.0,0.0,0.0,0.0,0.0,0.0,1.7069,1.8589,1.9802,2.0609,2.0822,2.0899,2.0899,2.0899,2.0899,2.0891,2.0639,2.0464,2.0384,2.0203,2.0004,1.9821,1.9924,0.0,0.0,2.0218,2.0416,2.0535,2.0813,2.0899,2.0899,2.0899,2.0899,2.0899,2.0899,2.0899,2.0899,2.0899,2.0899,2.0899,2.0899,2.0899,2.0899,2.0899,2.1334,2.1911,2.2485,2.3413,2.4202,2.4202,2.4202,2.4202,2.4202,2.4202,2.4202,2.4202,2.4202,2.4202,2.4202,2.4202,2.4202,2.4202,2.3538,2.3004,2.2922,2.2272,2.1682,2.126,2.0857,2.0463,2.0069,1.9657,1.9439,1.9439,1.9356,1.9301,1.9301,1.9301,1.9301,1.9301,1.9301,1.9301,1.9301,1.9301,1.9301,1.9301,1.9301,1.9301,1.0553,1.0867,1.0948,1.0702,0.9998,0.9142,0.8266,0.0,0.0,0.6244,0.615,0.615,0.6191,0.6238,0.0,0.0,0.0,0.8428,0.0,0.0,0.0,0.0,0.0,0.0,0.0,0.0,0.0,0.0,0.0,0.0,1.6788,1.7904,1.8919,1.9783,2.0506,2.0899,2.0899,2.0899,2.0899,2.0899,2.0867,2.0677,2.04,2.0694,2.0336,1.9566,2.0003,0.0,0.0,2.013,2.048,2.0851,2.0883,2.0899,2.0899,2.0899,2.0899,2.0899,2.0899,2.0899,2.0899,2.0899,2.0899,2.0899,2.0899,2.0899,2.0899,2.0899,2.095,2.1027,2.107,2.2636,2.4202,2.4202,2.4202,2.4202,2.4202,2.4202,2.4202,2.4202,2.4202,2.4202,2.4202,2.4202,2.4202,2.4202,2.3776,2.3316,2.2959,2.251,2.2094,2.17,2.1279,2.0875,2.0472,2.0079,1.9829,1.9829,1.9492,1.9301,1.9301,1.9301,1.9301,1.9301,1.9301,1.9301,1.9301,1.9301,1.9301,1.9301,1.9301,1.9301,0.9825,1.0447,1.0783,1.036,0.9667,0.8906,0.8099,0.0,0.6534,0.6261,0.6205,0.6205,0.6205,0.6205,0.645,0.7194,0.7051,0.0,0.0,0.0,0.0,0.0,0.0,0.0,0.0,0.0,0.0,0.0,0.0,0.0,1.6019,1.6911,1.7889,1.8885,1.9732,2.0171,2.0171,2.066,2.0899,2.0899,2.0899,2.082,2.0718,2.0828,2.0693,2.0359,2.0534,0.0,0.0,2.0574,2.0724,2.0899,2.0899,2.0899,2.0899,2.0899,2.0899,2.0899,2.0899,2.0899,2.0899,2.0899,2.0899,2.0899,2.0899,2.0899,2.0899,2.0899,2.0899,2.0968,2.13,2.2787,2.4202,2.4202,2.4202,2.4202,2.4202,2.4202,2.4202,2.4202,2.4202,2.4202,2.4202,2.4202,2.4202,2.4202,2.3804,2.3352,2.2959,2.2538,2.2149,2.1733,2.1333,2.0943,2.0527,2.0134,1.9804,1.9547,1.9393,1.9421,1.9648,1.9439,1.9401,1.9657,1.941,1.9301,1.9301,1.9301,1.9301,1.9301,1.9301,1.9301,0.9085,0.9821,1.0324,0.9897,0.9299,0.8637,0.0,0.0,0.6445,0.6247,0.6205,0.6205,0.6205,0.6205,0.6379,0.6909,0.6762,0.7105,0.0,0.0,0.0,0.0,0.0,0.0,0.0,0.0,0.0,0.0,0.0,0.0,1.562,1.6134,1.6912,1.8015,1.8866,1.9446,1.9706,2.0248,2.066,2.0899,2.0899,2.0899,2.0899,2.0899,2.0899,2.0899,2.0899,0.0,0.0,2.0899,2.0899,2.0899,2.0899,2.0899,2.0899,2.0899,2.0899,2.0899,2.0899,2.0899,2.0899,2.0899,2.0899,2.0899,2.0899,2.0899,2.0899,2.0899,2.0899,2.1002,2.1377,2.2459,2.3596,2.4078,2.4044,2.3969,2.4152,2.4202,2.4202,2.4202,2.4202,2.4202,2.4202,2.4202,2.4202,2.4202,2.3703,2.3224,2.295,2.2437,2.1998,2.1723,2.1453,2.1159,2.0875,2.0381,2.0005,1.9842,1.9613,1.9602,1.9895,1.963,1.9547,1.9721,1.9428,1.9301,1.9301,1.9301,1.9301,1.9301,1.9301,1.9237,0.825,0.8849,0.9316,0.9312,0.8845,0.8245,0.0,0.0,0.6445,0.6247,0.6205,0.6205,0.6205,0.6205,0.6271,0.6473,0.706,0.7707,0.0,0.0,0.0,0.0,0.0,0.0,0.0,0.0,0.0,0.0,0.0,0.0,1.5873,1.5638,1.6033,1.7193,1.7996,1.884,1.968,1.9706,2.0119,2.0899,2.0899,2.0899,2.0899,2.0899,2.0899,0.0,0.0,0.0,0.0,2.0899,2.0899,2.0899,2.0899,2.0899,2.0899,2.0899,2.0899,2.0899,2.0899,2.0899,2.0899,2.0899,2.0899,2.0899,2.0899,2.0899,2.0899,2.0899,2.0899,2.0899,2.0899,2.1326,2.2131,2.3795,2.3737,2.3479,2.4078,2.4202,2.4202,2.4202,2.4202,2.4202,2.4202,2.4202,2.4202,2.4202,2.3474,2.2913,2.2904,2.2199,2.1696,2.1696,2.1709,2.1678,2.1678,2.0958,2.0656,2.1062,2.0335,1.9905,1.9914,1.9905,1.9712,1.932,1.9301,1.9301,1.9301,1.9301,1.9301,1.9301,1.9301,1.9091,0.7439,0.8131,0.8628,0.834,0.7786,0.7251,0.706,0.6433,0.5944,0.616,0.6205,0.6205,0.6205,0.6205,0.6379,0.6895,0.7007,0.7345,0.0,0.0,0.0,0.0,0.0,0.0,0.0,0.0,0.0,0.0,0.0,0.0,1.5271,1.56,1.5933,1.6305,1.7153,1.77,1.7989,1.8546,1.8945,1.9205,1.9802,2.0094,2.0094,2.066,2.0899,0.0,0.0,0.0,0.0,2.0899,2.0899,2.0899,2.0899,2.0899,2.0899,2.0899,2.0899,2.0899,2.0899,2.0899,2.0899,2.0899,2.0899,2.0899,2.0899,2.0899,2.0899,2.0899,2.0899,2.0899,2.0899,2.13,2.1928,2.2828,2.3179,2.3463,2.4078,2.4202,2.4202,2.4202,2.4202,2.4202,2.4202,2.4202,2.4202,2.4202,2.3694,2.3306,2.3306,2.2849,2.241,2.2149,2.2112,2.1892,2.1333,2.1071,2.0839,2.0692,2.0445,2.0436,2.0701,2.0454,2.0243,2.0115,2.0115,1.9861,1.9301,1.9575,1.9566,1.9301,1.9301,1.9228,0.6686,0.7305,0.7756,0.761,0.7175,0.0,0.6704,0.6242,0.59,0.615,0.6205,0.6205,0.6205,0.6205,0.6332,0.6757,0.696,0.0,0.0,0.0,0.0,0.0,0.0,0.0,0.0,0.0,0.0,0.0,0.0,0.0,1.4982,1.5357,1.5651,1.5891,1.6444,1.6862,1.7199,1.77,1.8101,1.8396,1.8945,1.9295,1.9493,2.0135,2.0538,0.0,0.0,0.0,0.0,2.0899,2.0899,2.0899,2.0899,2.0899,2.0899,2.0899,2.0899,2.0899,2.0899,2.0899,2.0899,2.0899,2.0899,2.0899,2.0899,2.0899,2.0899,2.0899,2.0899,2.0899,2.0899,2.1147,2.1471,2.1827,2.2451,2.3063,2.3322,2.3621,2.3795,2.3596,2.3696,2.3795,2.3845,2.4053,2.4202,2.4202,2.3804,2.3499,2.3499,2.3151,2.2748,2.235,2.2304,2.2039,2.1379,2.12,2.1071,2.0967,2.0802,2.0851,2.1099,2.0848,2.0573,2.028,2.0271,2.0024,1.954,1.9932,1.9996,1.976,1.9604,1.954,0.0,0.645,0.6802,0.7056,0.692,0.6668,0.6511,0.6309,0.0,0.6191,0.6205,0.621,0.6219,0.6214,0.6229,0.6299,0.6999,0.0,0.0,0.0,0.0,0.0,0.0,0.0,0.0,0.0,0.0,0.0,0.0,0.0,1.4901,1.4987,1.5277,1.5891,1.5891,1.6311,1.7199,1.7147,1.7516,1.8318,1.8318,1.8546,1.8981,1.9402,1.9892,0.0,0.0,0.0,0.0,2.0899,2.0899,2.0899,2.0899,2.0865,2.0814,2.0873,2.0873,2.0814,2.0873,2.0899,2.0899,2.0899,2.0899,2.0899,2.0899,2.0899,2.0899,2.0899,2.0899,2.0899,2.0899,2.0899,2.0899,2.095,2.1725,2.2375,2.2089,2.2661,2.3104,2.2602,2.2828,2.3129,2.3229,2.3771,2.4177,2.4152,2.3779,2.3508,2.3559,2.3169,2.2757,2.2387,2.2323,2.214,2.1723,2.1361,2.1297,2.1691,2.1352,2.1132,2.1132,2.1132,2.0775,2.0005,1.9969,1.9969,1.9996,2.0335,2.05,2.0491,2.0124,1.993,0.5987,0.0,0.6167,0.6384,0.6159,0.5956,0.0,0.6,0.5827,0.6132,0.0,0.6252,0.6403,0.6304,0.6464,0.7286,0.7596,0.0,0.0,0.0,0.0,0.0,0.0,0.0,0.0,0.0,0.0,0.0,0.0,1.377,1.4358,1.4767,1.5277,1.5891,1.5891,1.6311,1.7199,1.6544,1.665,1.749,1.749,1.7535,1.7678,1.838,1.9143,0.0,0.0,0.0,2.0899,2.0899,2.0899,2.0899,2.0899,2.0506,2.0068,2.066,2.0506,2.0068,2.0686,2.0899,2.0899,2.0899,2.0899,2.0899,2.0899,2.0899,2.0899,2.0899,2.0899,2.0899,2.0899,2.0899,2.0994,2.142,2.17,2.1979,2.2299,2.2552,2.2652,2.2526,2.2828,2.3004,2.2753,2.3538,2.4044,2.3587,2.3501,2.3633,2.3993,2.3367,2.2867,2.2776,2.2474,2.214,2.1723,2.1604,2.1608,2.1687,2.1617,2.1572,2.1572,2.1572,2.1333,2.0842,2.0518,2.0509,2.0833,2.0601,2.05,2.05,2.0399,2.0363,0.5914,0.5893,0.595,0.6149,0.6037,0.5927,0.615,0.6037,0.5941,0.0,0.0,0.6266,0.6464,0.6412,0.0,0.7387,0.0,0.0,0.0,0.0,0.0,0.0,0.0,0.0,0.0,0.0,0.0,0.0,0.0,1.3147,1.3743,1.4331,1.4901,1.5464,1.5758,1.6125,1.6597,1.6518,1.6518,1.6597,1.7015,1.7108,1.6964,1.7568,1.8208,0.0,0.0,0.0,2.0351,2.0351,2.0351,2.03,1.9905,1.9491,1.9153,1.9595,1.9491,1.9231,2.0068,2.0583,2.0899,2.0899,2.0899,2.0899,2.0899,2.0899,2.0899,2.0899,2.0899,2.0899,2.0899,2.0899,2.0968,2.1249,2.1522,2.1725,2.1751,2.1954,2.2047,2.1801,2.1954,2.2021,2.1801,2.2283,2.2912,2.3612,2.3532,2.3601,2.4125,2.3611,2.3105,2.2931,2.2529,2.214,2.1723,2.1696,2.1696,2.1696,2.1696,2.1696,2.1696,2.1696,2.1517,2.1117,2.0897,2.0875,2.1108,2.1068,2.1059,2.105,2.0857,2.0866,0.5898,0.5945,0.5988,0.6158,0.6205,0.6205,0.6205,0.0,0.0,0.0,0.0,0.0,0.0,0.0,0.0,0.0,0.0,0.0,0.0,0.0,0.0,0.0,0.0,0.0,0.0,0.0,0.0,0.0,0.0,1.2659,1.3261,1.3878,1.4439,1.4982,1.5562,1.5831,1.5831,1.6605,1.6756,1.6285,1.6783,1.6813,1.649,1.6813,1.7238,1.7789,0.0,0.0,1.945,1.9476,1.9498,1.9439,1.8684,1.8318,1.8239,1.8344,1.8318,1.8337,1.9205,1.9964,2.0532,2.066,2.0719,2.0745,2.0873,2.0899,2.0899,2.0899,2.0899,2.0899,2.0899,2.0899,2.0899,2.0899,2.1249,2.1445,2.0994,2.1249,2.1445,2.1002,2.0899,2.0899,2.0899,2.0899,2.1573,2.3571,2.3538,2.3513,2.4127,2.3794,2.337,2.3032,2.262,2.224,2.1837,2.1778,2.1782,2.1696,2.1696,2.1696,2.1696,2.1696,2.1544,2.1187,2.1178,2.1178,2.1178,2.1544,2.1696,2.1678,2.1352,2.137,0.6149,0.6153,0.6163,0.6196,0.6205,0.6205,0.6205,0.6205,0.0,0.0,0.0,0.0,0.0,0.0,0.0,0.0,0.0,0.0,0.0,0.0,0.0,0.0,0.0,0.0,0.0,0.0,0.0,0.0,0.0,1.2659,1.3261,1.3878,1.4439,1.4982,1.5358,1.5559,1.5559,1.5909,1.673,1.7996,1.6703,1.608,1.6011,1.5848,1.6199,1.698,0.0,1.7632,1.8286,1.8518,1.8605,1.8579,1.8448,1.797,1.7463,1.8153,1.797,1.749,1.8311,1.8684,1.8919,1.9654,1.9887,2.0016,2.0686,2.0899,2.0899,2.0899,2.0899,2.0899,2.0899,2.0899,2.0899,2.0899,2.0968,2.0994,2.0925,2.0968,2.0994,2.0925,2.0899,2.0899,2.0899,2.0899,2.1232,2.219,2.2887,2.3513,2.4127,2.3794,2.3471,2.3407,2.305,2.2638,2.2249,2.2213,2.2066,2.1714,2.1696,2.1696,2.1696,2.1696,2.1659,2.1617,2.1617,2.1617,2.1617,2.1659,2.1696,2.1696,2.1645,2.1632,0.6205,0.6037,0.5881,0.5918,0.6064,0.6205,0.6205,0.6205,0.0,0.0,0.0,0.0,0.0,0.0,0.0,0.0,0.0,0.0,0.0,0.0,0.0,0.0,0.0,0.0,0.0,0.0,0.0,0.0,0.0,0.0,1.279,1.3455,1.3984,1.4353,1.4954,1.5513,1.5992,1.5635,1.5852,1.662,1.6311,1.5929,1.5463,1.5342,1.5487,1.5928,0.0,1.6999,1.7379,1.7631,1.7759,1.77,1.7232,1.6809,1.6544,1.6915,1.71,1.7252,1.7621,1.8048,1.8475,1.8866,1.8997,1.9153,1.999,1.9905,1.975,2.066,2.0899,2.0899,2.0899,2.0899,2.0899,2.0899,2.0899,2.0899,2.0899,2.0899,2.0899,2.0899,2.0899,2.0899,2.0899,2.0899,2.1027,2.1351,2.2434,2.3429,2.4102,2.3794,2.3499,2.3499,2.3142,2.2739,2.2341,2.2304,2.214,2.1723,2.1696,2.1696,2.1696,2.192,2.1906,2.1696,2.2126,2.2236,2.2007,2.2236,2.2236,2.203,2.203,2.203,0.6078,0.5827,0.5587,0.5529,0.5785,0.6101,0.6275,0.6241,0.6217,0.0,0.0,0.0,0.0,0.0,0.0,0.0,0.0,0.0,0.0,0.0,0.0,0.0,0.0,0.0,0.0,0.0,0.0,0.0,0.0,0.0,1.2258,1.3044,1.3556,1.3728,1.4563,1.5337,1.6008,1.527,1.5081,1.5405,1.5878,1.5758,1.5107,1.504,1.5016,1.5054,1.5998,1.6401,1.642,1.6697,1.6825,1.6823,1.6084,1.5831,1.5891,1.5891,1.6311,1.6915,1.6915,1.7312,1.7845,1.8048,1.8127,1.8284,1.9127,1.9075,1.8971,2.0274,2.0737,2.0899,2.0899,2.0899,2.0899,2.0899,2.0899,2.0899,2.0899,2.0899,2.0899,2.0899,2.0899,2.0899,2.0899,2.0899,2.0899,2.0899,2.2004,2.3163,2.4078,2.3877,2.366,2.366,2.3394,2.3046,2.2625,2.2497,2.2323,2.1998,2.1879,2.181,2.1696,2.2185,2.2222,2.1705,2.2492,2.2693,2.2304,2.2702,2.2739,2.2451,2.2451,2.2451,0.5745,0.5622,0.5499,0.5067,0.5297,0.582,0.6502,0.638,0.0,0.6819,0.0,0.0,0.0,0.0,0.0,0.0,0.0,0.0,0.0,0.0,0.0,0.0,0.0,0.0,0.0,0.0,0.0,0.0,0.0,0.0,1.1834,1.29,1.3506,1.3526,1.4321,1.4769,1.4819,1.4509,1.5016,1.6306,1.5556,1.5157,1.5101,1.4834,1.472,1.4763,1.5073,1.5213,1.5231,1.5518,1.5773,1.5968,1.5646,1.5674,1.5891,1.5891,1.5939,1.5992,1.5992,1.6019,1.6205,1.7015,1.7279,1.7437,1.8265,1.9023,1.9628,1.9757,2.0326,2.0899,2.0899,2.0899,2.0899,2.0899,2.0899,2.0899,2.0899,2.0899,2.0899,2.0899,2.0899,2.0899,2.0899,2.0899,2.0899,2.0899,2.1555,2.2594,2.4028,2.4174,2.4156,2.4156,2.4128,2.3929,2.3444,2.3068,2.2849,2.2821,2.2446,2.2094,2.1727,2.2446,2.2492,2.1727,2.2492,2.2693,2.2304,2.2702,2.2895,2.2858,2.2858,2.2858,0.5636,0.5294,0.4922,0.4648,0.491,0.0,0.0,0.5898,0.5899,0.6298,0.6515,0.0,0.0,0.0,0.0,0.0,0.0,0.0,0.0,0.0,0.0,0.0,0.0,0.0,0.0,0.0,0.0,0.0,0.0,0.0,1.1782,1.2612,1.3118,1.3258,1.4023,1.4455,1.4455,1.4346,1.4564,1.5083,1.4771,1.4606,1.46,1.4503,1.4455,1.4473,1.472,1.484,1.4858,1.5149,1.5312,1.5396,1.5294,1.5384,1.5604,1.5652,1.5753,1.5891,1.5891,1.5891,1.5945,1.6285,1.6385,1.6544,1.7384,1.7884,1.8356,1.9413,1.9913,2.0274,2.0763,2.0899,2.0899,2.0899,2.0899,2.0899,2.0899,2.0899,2.0899,2.0899,2.0899,2.0899,2.0899,2.0899,2.0899,2.0899,2.1147,2.2013,2.3954,2.4202,2.4202,2.4202,2.3947,2.3688,2.3532,2.3133,2.2904,2.2904,2.251,2.2231,2.2085,2.2602,2.2638,2.2071,2.3153,2.3492,2.3056,2.3501,2.3565,2.327,2.327,2.327,0.5203,0.4823,0.4437,0.4284,0.0,0.0,0.5419,0.5633,0.5851,0.6268,0.6337,0.0,0.0,0.0,0.0,0.0,0.0,0.0,0.0,0.0,0.0,0.0,0.0,0.0,0.0,0.0,0.0,0.0,0.0,0.0,0.0,1.2298,1.2778,1.299,1.3856,1.4298,1.4298,1.4298,1.4298,1.4298,1.4214,1.4214,1.4298,1.4298,1.4298,1.431,1.4569,1.469,1.4708,1.4908,1.4961,1.4967,1.5077,1.5215,1.541,1.5469,1.5596,1.5755,1.5785,1.5765,1.5765,1.5765,1.5819,1.6033,1.678,1.7292,1.7837,1.9159,1.9778,2.0197,2.0771,2.0899,2.0899,2.0899,2.0899,2.0899,2.0899,2.0899,2.0899,2.0899,2.0899,2.0899,2.0899,2.0899,2.0899,2.0899,2.0899,2.17,2.3929,2.4202,2.4202,2.4202,2.3904,2.3715,2.3715,2.3459,2.3303,2.3303,2.2799,2.2442,2.2304,2.2684,2.2712,2.2314,2.34,2.3822,2.3499,2.3975,2.403,2.3715,2.3715,2.3715,0.4329,0.4194,0.4152,0.0,0.0,0.0,0.5198,0.5702,0.6205,0.6933,0.0,0.6211,0.0,0.0,0.0,0.0,0.0,0.0,0.0,0.0,0.0,0.0,0.0,0.0,0.0,0.0,0.0,0.0,0.0,0.0,0.0,1.1973,1.2524,1.2772,1.3769,1.4292,1.4292,1.4292,1.4292,1.4286,1.4032,1.4045,1.4298,1.4292,1.4292,1.431,1.4594,1.469,1.469,1.469,1.469,1.4714,1.4998,1.5209,1.5398,1.5463,1.5439,1.5404,1.5463,1.5493,1.5493,1.5493,1.5674,1.599,1.6451,1.7452,1.8483,1.8982,1.9979,2.0899,2.0899,2.0899,2.0899,2.0899,2.0899,2.0899,2.0899,2.0899,2.0899,2.0899,2.0899,2.0899,2.0899,2.0899,2.0899,2.0899,2.0925,2.1725,2.3929,2.4202,2.4202,2.4202,2.4202,2.4202,2.4202,2.4202,2.4202,2.4202,2.3376,2.2721,2.2323,2.2684,2.2712,2.2314,2.3111,2.3499,2.3499,2.3975,2.4202,2.4202,2.4202,2.4202,0.4233,0.4167,0.0,0.406,0.0,0.0,0.0,0.5427,0.0,0.0,0.0,0.0,0.0,0.0,0.0,0.0,0.0,0.0,0.0,0.0,0.0,0.0,0.0,0.0,0.0,0.0,0.0,0.0,0.0,0.0,0.0,1.1886,1.235,1.2235,1.3577,1.4123,1.3749,1.4111,1.4111,1.3749,1.4045,1.422,1.4292,1.4105,1.4123,1.4298,1.4383,1.4425,1.4425,1.4425,1.4425,1.4431,1.4509,1.457,1.4642,1.4865,1.4943,1.4997,1.5173,1.5228,1.5228,1.5228,1.5276,1.5453,1.6113,1.7174,1.8271,1.8916,1.9979,2.0899,2.0899,2.0899,2.0899,2.0899,2.0899,2.0899,2.0899,2.0899,2.0899,2.0899,2.0899,2.0899,2.0899,2.0899,2.0899,2.0899,2.2207,2.3472,2.4127,2.4202,2.4202,2.4202,2.4202,2.4202,2.4202,2.4202,2.4202,2.4202,2.3376,2.2849,2.2721,2.284,2.2849,2.2721,2.3556,2.3993,2.3993,2.4137,2.4202,2.4202,2.4202,2.4202,0.4023,0.4032,0.0,0.4324,0.4836,0.5362,0.5676,0.0,0.0,0.0,0.0,0.0,0.0,0.0,0.0,0.0,0.0,0.0,0.0,0.0,0.0,0.0,0.0,0.0,0.0,0.0,0.0,0.0,0.0,0.0,0.0,1.1726,1.216,1.2272,1.3397,1.3833,1.3497,1.3827,1.3827,1.3497,1.3731,1.3888,1.3984,1.4039,1.4147,1.4298,1.4298,1.4298,1.4298,1.4298,1.4298,1.4298,1.4298,1.4298,1.4334,1.4587,1.4654,1.4636,1.4852,1.495,1.495,1.495,1.5218,1.5651,1.6323,1.7313,1.8412,1.9194,2.0031,2.0717,2.0859,2.0899,2.0899,2.0899,2.0899,2.0899,2.0899,2.0899,2.0899,2.0899,2.0899,2.0899,2.0899,2.0899,2.0899,2.0899,2.2787,2.4202,2.4202,2.4202,2.4202,2.4202,2.4202,2.4202,2.4202,2.4202,2.4202,2.4202,2.3523,2.3142,2.3142,2.2831,2.2812,2.3133,2.3642,2.4012,2.4202,2.4202,2.4202,2.4202,2.4202,2.4202,0.3767,0.0,0.0,0.468,0.0,0.0,0.0,0.0,0.0,0.0,0.0,0.0,0.0,0.0,0.0,0.0,0.0,0.0,0.0,0.0,0.0,0.0,0.0,0.0,0.0,0.0,0.0,0.0,0.0,0.0,0.0,1.1587,1.2031,1.2632,1.3189,1.3473,1.3441,1.3489,1.3489,1.3418,1.3232,1.325,1.3473,1.3996,1.425,1.4298,1.4298,1.4286,1.4262,1.4262,1.4262,1.4262,1.4262,1.428,1.4328,1.4557,1.4515,1.4334,1.4594,1.4654,1.4678,1.4752,1.5394,1.623,1.6884,1.7765,1.8756,1.9657,2.0147,2.048,2.0804,2.0899,2.0899,2.0899,2.0899,2.0899,2.0899,2.0899,2.0899,2.0899,2.0899,2.0899,2.0899,2.0899,2.095,2.107,2.2862,2.4202,2.4202,2.4202,2.4202,2.4202,2.4202,2.4202,2.4202,2.4202,2.4202,2.4202,2.3767,2.3508,2.3544,2.2897,2.2847,2.3601,2.3647,2.3874,2.4301,2.4226,2.4202,2.4202,2.4202,2.4202,0.3823,0.404,0.0,0.0,0.0,0.0,0.0,0.0,0.0,0.0,0.0,0.0,0.0,0.0,0.0,0.0,0.0,0.0,0.0,0.0,0.0,0.0,0.0,0.0,0.0,0.0,0.0,0.0,0.0,0.0,1.1055,1.1815,1.223,1.2158,1.3022,1.3308,1.2886,1.3302,1.3302,0.0,1.3232,1.3328,1.3196,1.3515,1.3912,1.4298,1.4298,1.4177,1.399,1.399,1.399,1.399,1.399,1.4117,1.4304,1.4364,1.4346,1.4304,1.4364,1.4389,1.4479,1.5057,1.5401,1.5818,1.716,1.7885,1.8511,1.9595,2.0147,2.048,2.0804,2.0899,2.0899,2.0899,2.0899,2.0899,2.0899,2.0899,2.0899,2.0899,2.0899,2.0899,2.0899,2.0899,2.1292,2.2451,2.3513,2.4202,2.4202,2.4202,2.4202,2.4202,2.4202,2.4202,2.4202,2.4202,2.4202,2.4202,2.3767,2.366,2.403,2.4139,2.4274,2.4431,2.4755,2.4964,2.505,2.4489,2.4202,2.4202,2.4202,2.4202,0.3841,0.0,0.0,0.5325,0.0,0.0,0.0,0.0,0.0,0.0,0.0,0.0,0.0,0.0,0.0,0.0,0.0,0.0,0.0,0.0,0.0,0.0,0.0,0.0,0.0,0.0,0.0,0.0,0.0,1.0054,1.0637,1.1208,1.1788,1.232,1.2846,1.2988,1.2705,1.2988,1.2982,1.2705,1.2973,1.3105,1.3111,1.337,1.3708,1.4099,1.3978,1.3845,1.3719,1.3719,1.3719,1.3731,1.3857,1.399,1.4123,1.425,1.4298,1.4298,1.4298,1.4538,1.489,1.5272,1.5906,1.6655,1.7458,1.8069,1.8643,1.9431,1.9789,2.0051,2.0535,2.067,2.071,2.0859,2.0899,2.0899,2.0899,2.0899,2.0899,2.0899,2.0899,2.0899,2.0899,2.1776,2.2611,2.3029,2.3737,2.4202,2.4202,2.4202,2.4202,2.4202,2.4202,2.4202,2.4202,2.4202,2.4202,2.4202,2.3975,2.3932,2.4192,2.5068,2.5375,2.4991,2.5566,2.5868,2.5877,2.5499,2.5084,2.4726,2.4726,2.4538,0.3841,0.0,0.4651,0.5605,0.0,0.0,0.0,0.0,0.0,0.0,0.0,0.0,0.0,0.0,0.0,0.0,0.0,0.0,0.0,0.0,0.0,0.0,0.0,0.0,0.0,0.0,0.0,0.0,0.0,0.9091,1.0284,1.0587,1.1322,1.2662,1.2705,1.2705,1.2705,1.2705,1.2705,1.2705,1.2705,1.2828,1.3111,1.3274,1.3521,1.3827,1.361,1.3467,1.3424,1.3424,1.3424,1.3449,1.3688,1.3815,1.3912,1.4141,1.4256,1.4298,1.4298,1.4771,1.5408,1.5557,1.656,1.7715,1.7855,1.8334,1.8884,1.9296,1.9399,1.9542,2.0138,2.0297,2.0377,2.067,2.0756,2.082,2.0883,2.0899,2.0899,2.0899,2.0899,2.0899,2.0899,2.251,2.3621,2.3079,2.3587,2.4069,2.4177,2.4202,2.4202,2.4202,2.4202,2.4202,2.4202,2.4202,2.4202,2.4202,2.4202,2.4202,2.4202,2.5693,2.6191,2.5514,2.6288,2.6696,2.6696,2.6552,2.6167,2.5514,2.5367,2.4962,0.0,0.0,0.5009,0.0,0.0,0.0,0.0,0.0,0.0,0.0,0.0,0.0,0.0,0.0,0.0,0.0,0.0,0.0,0.0,0.0,0.0,0.0,0.0,0.0,0.0,0.0,0.0,0.0,0.87,0.9354,1.0506,1.0977,1.1671,1.2662,1.2705,1.2705,1.2705,1.2705,1.2705,1.2705,1.2705,1.2828,1.3093,1.291,1.3085,1.3539,1.3509,1.3364,1.3153,1.3153,1.3153,1.3159,1.3196,1.3459,1.3832,1.3918,1.4099,1.4298,1.4298,1.4771,1.5503,1.6204,1.7021,1.7808,1.8473,1.8712,1.8884,1.9296,1.9399,1.9479,1.9861,1.9956,1.9972,2.002,2.0266,2.0551,2.0828,2.0899,2.0899,2.0899,2.0899,2.0899,2.0899,2.1657,2.2367,2.2552,2.3054,2.3612,2.4127,2.4202,2.4202,2.4202,2.4202,2.4202,2.4202,2.4202,2.4202,2.4202,2.4202,2.4202,2.4202,2.5693,2.6456,2.6336,2.7067,2.7447,2.7447,2.6805,2.6456,2.6326,2.5625,2.5246,0.3841,0.4251,0.4701,0.0,0.0,0.0,0.0,0.0,0.0,0.0,0.0,0.0,0.0,0.0,0.0,0.0,0.0,0.0,0.0,0.0,0.0,0.0,0.0,0.0,0.0,0.0,0.0,0.0,0.7422,0.8009,0.9187,1.0058,1.095,1.1886,1.2427,1.2705,1.2705,1.2705,1.2705,1.2705,1.2705,1.2771,1.2864,1.2759,1.29,1.3268,1.3127,1.2973,1.2886,1.2886,1.2886,1.2882,1.3039,1.322,1.3453,1.3785,1.3978,1.417,1.4721,1.5415,1.6197,1.6974,1.7722,1.8373,1.8712,1.8804,1.8836,1.9003,1.9066,1.9153,1.9519,1.9614,1.9662,1.9869,2.0155,2.0416,2.0478,2.0709,2.0899,2.0899,2.0899,2.0899,2.0899,2.1504,2.2013,2.2055,2.2753,2.3404,2.3662,2.3994,2.4202,2.4202,2.4202,2.4202,2.4202,2.4202,2.4202,2.4202,2.4202,2.439,2.4799,2.5902,2.6696,2.7115,2.7882,2.8269,2.8269,2.7964,2.7552,2.7091,2.6326,2.5974,0.0,0.0,0.4292,0.0,0.0,0.0,0.0,0.0,0.0,0.0,0.0,0.0,0.0,0.0,0.0,0.0,0.0,0.0,0.0,0.0,0.0,0.0,0.0,0.0,0.0,0.0,0.0,0.0,0.6351,0.6991,0.8463,0.9297,1.0279,1.1425,1.2207,1.2608,1.2608,1.2674,1.2705,1.2705,1.2705,1.2705,1.2705,1.2705,1.2819,1.2985,1.2795,1.2705,1.2705,1.2705,1.2705,1.2723,1.2912,1.2997,1.3051,1.3515,1.3779,1.4022,1.4967,1.5876,1.6723,1.7458,1.821,1.8804,1.8804,1.8804,1.8804,1.8804,1.8804,1.8868,1.9161,1.9256,1.9344,1.9686,2.0028,2.0281,2.0369,2.0645,2.0899,2.0899,2.0899,2.0899,2.0899,2.1351,2.1708,2.17,2.2501,2.3154,2.3279,2.382,2.4202,2.4202,2.4202,2.4202,2.4202,2.4085,2.4067,2.4192,2.4076,2.4402,2.526,2.6071,2.6863,2.7589,2.8386,2.8803,2.8803,2.8583,2.8292,2.7882,2.7139,2.6781,0.0,0.3857,0.0,0.0,0.0,0.0,0.0,0.0,0.0,0.0,0.0,0.0,0.0,0.0,0.0,0.0,0.0,0.0,0.0,0.0,0.0,0.0,0.0,0.0,0.0,0.0,0.0,0.0,0.6278,0.7161,0.9318,0.9358,1.0111,1.1822,1.2163,1.231,1.231,1.2578,1.2705,1.2705,1.2705,1.2705,1.2705,1.2705,1.2711,1.2729,1.2711,1.2705,1.2705,1.2705,1.2705,1.2705,1.2723,1.2729,1.2738,1.3033,1.3429,1.3913,1.4747,1.5708,1.6723,1.7458,1.821,1.8804,1.8804,1.8804,1.8804,1.8804,1.8804,1.8804,1.8828,1.8828,1.8923,1.9336,1.967,2.0099,2.0742,2.0875,2.0899,2.0899,2.0899,2.0899,2.0899,2.0925,2.1121,2.1623,2.2173,2.2728,2.3229,2.382,2.4202,2.4202,2.4202,2.4202,2.4202,2.3794,2.3715,2.4183,2.3785,2.408,2.5251,2.6071,2.6863,2.7589,2.8386,2.8803,2.8803,2.8023,2.8023,2.8734,2.793,2.7542,0.0,0.0,0.0,0.0,0.0,0.0,0.0,0.0,0.0,0.0,0.0,0.0,0.0,0.0,0.0,0.0,0.0,0.0,0.0,0.0,0.0,0.0,0.0,0.0,0.0,0.0,0.0,0.0,0.0,0.7638,0.8552,0.9541,1.0358,1.0974,1.1682,1.2045,1.2045,1.2135,1.2258,1.2373,1.2373,1.2487,1.2705,1.2705,1.2705,1.2705,1.2705,1.2705,1.2705,1.2705,1.2705,1.2705,1.2705,1.2705,1.2741,1.2997,1.3332,1.3732,1.469,1.5361,1.5961,1.6739,1.7489,1.8133,1.8354,1.8606,1.8868,1.9146,1.9042,1.8876,1.9177,1.9265,1.9368,1.9812,1.9542,1.9519,2.0645,2.0899,2.0899,2.0899,2.0899,2.0899,2.0899,2.0899,2.0976,2.1173,2.1954,2.2577,2.2753,2.3612,2.4202,2.4202,2.4202,2.4202,2.4202,2.4048,2.4021,2.4192,2.4487,2.5092,2.6037,2.6805,2.7576,2.8339,2.8151,2.8292,2.8803,2.8513,2.8513,2.878,2.7977,2.7882,0.3599,0.0,0.0,0.0,0.0,0.0,0.0,0.0,0.0,0.0,0.0,0.0,0.0,0.0,0.0,0.0,0.0,0.0,0.0,0.0,0.0,0.0,0.0,0.0,0.0,0.0,0.0,0.0,0.0,0.0,0.8874,0.9797,1.0482,1.089,1.1511,1.1836,1.1836,1.1836,1.1836,1.183,1.2011,1.2125,1.218,1.2542,1.2608,1.2451,1.2626,1.2705,1.2705,1.2705,1.2705,1.2705,1.2705,1.2705,1.2729,1.2894,1.3189,1.3628,1.4555,1.5096,1.5551,1.6534,1.7162,1.7666,1.8244,1.8769,1.9193,1.9257,1.905,1.8947,1.9574,1.9741,1.9796,2.0043,1.978,1.9764,2.0693,2.0899,2.0899,2.0899,2.0899,2.0899,2.0899,2.0899,2.0968,2.1147,2.1928,2.2577,2.2753,2.3621,2.4202,2.4202,2.4202,2.4202,2.4202,2.4048,2.403,2.4192,2.4765,2.5503,2.6446,2.6972,2.7741,2.878,2.8,2.8,2.8803,2.8536,2.8536,2.878,2.8245,2.8292,0.0,0.0,0.0,0.0,0.0,0.0,0.0,0.0,0.0,0.0,0.0,0.0,0.0,0.0,0.0,0.0,0.0,0.0,0.0,0.0,0.0,0.0,0.0,0.0,0.0,0.0,0.0,0.0,0.7697,0.8467,1.0388,1.0145,1.0463,1.1662,1.1668,1.1668,1.1668,1.1668,1.1487,1.1117,1.1611,1.1569,1.1081,1.2147,1.237,1.1936,1.2442,1.2687,1.2693,1.2699,1.2705,1.2705,1.2705,1.2705,1.2705,1.2705,1.3049,1.3604,1.4321,1.4916,1.5575,1.681,1.7232,1.745,1.8419,1.9265,1.9725,1.9042,1.8868,1.9074,1.9971,2.0209,2.0178,1.9972,2.0416,2.0899,2.0899,2.0899,2.0899,2.0899,2.0899,2.0899,2.0899,2.0899,2.107,2.1598,2.2156,2.2677,2.3204,2.382,2.4202,2.4202,2.4202,2.4202,2.4202,2.3785,2.373,2.4199,2.4568,2.5302,2.6484,2.6528,2.7244,2.878,2.8,2.8,2.8803,2.8023,2.8023,2.8803,2.8803,2.8803,0.3599,0.0,0.0,0.0,0.0,0.0,0.373,0.3875,0.0,0.0,0.0,0.0,0.0,0.0,0.0,0.0,0.0,0.0,0.0,0.0,0.0,0.0,0.0,0.0,0.0,0.0,0.0,0.0,0.8122,0.9022,1.015,1.0564,1.0916,1.1262,1.1268,1.1268,1.1268,1.1268,1.1214,1.1105,1.0864,1.0454,0.9985,1.105,1.1757,1.2113,1.2111,1.2225,1.2439,1.2626,1.2705,1.2705,1.2705,1.2705,1.2705,1.2705,1.3049,1.3536,1.374,1.4159,1.4651,1.501,1.5629,1.633,1.6948,1.8049,1.9265,2.009,2.032,2.0375,2.0637,2.0701,2.0685,2.0647,2.0782,2.0899,2.0899,2.0899,2.0899,2.0899,2.0899,2.0899,2.0899,2.0899,2.0942,2.1096,2.1903,2.2552,2.2703,2.3596,2.4202,2.4202,2.4202,2.4202,2.4202,2.4076,2.4294,2.4952,2.5624,2.6397,2.7247,2.7305,2.7765,2.878,2.8,2.8,2.8803,2.8583,2.8583,2.8803,2.8803,2.8803,0.0,0.0,0.0,0.0,0.0,0.0,0.3599,0.3691,0.3821,0.0,0.0,0.0,0.0,0.0,0.0,0.0,0.0,0.0,0.0,0.0,0.0,0.0,0.0,0.0,0.0,0.5806,0.6402,0.7387,0.8355,0.937,1.0461,1.0889,1.1093,1.1093,1.1093,1.1093,1.1093,1.1093,1.1093,1.1105,1.0785,1.0346,0.9871,1.0713,1.1341,1.1745,1.1846,1.199,1.2147,1.2412,1.2608,1.2705,1.2705,1.2705,1.2705,1.2705,1.3049,1.3479,1.337,1.3767,1.4298,1.4298,1.4705,1.5341,1.6254,1.7594,1.8971,1.9788,2.0447,2.0899,2.0899,2.0899,2.0899,2.0899,2.0899,2.0899,2.0899,2.0899,2.0899,2.0899,2.0899,2.0899,2.0899,2.0899,2.1045,2.1496,2.2097,2.2677,2.3138,2.3795,2.4202,2.4202,2.4202,2.4202,2.4202,2.4202,2.439,2.4815,2.5562,2.6181,2.6614,2.6628,2.7163,2.8269,2.7552,2.7694,2.8803,2.8803,2.8803,2.8803,2.8803,2.8803,0.0,0.0,0.0,0.0,0.0,0.0,0.3605,0.3618,0.3675,0.0,0.0,0.0,0.0,0.0,0.0,0.0,0.0,0.0,0.0,0.0,0.0,0.0,0.0,0.0,0.5582,0.5806,0.6392,0.7508,0.8478,0.962,1.103,1.1057,1.105,1.1093,1.0978,1.0918,1.0918,1.0918,1.0918,1.0918,1.1038,1.0846,1.0394,1.0822,1.1038,1.1135,1.1605,1.1846,1.1924,1.2153,1.2439,1.2705,1.2705,1.2705,1.2705,1.2705,1.3031,1.3412,1.3183,1.3587,1.4238,1.4238,1.4262,1.4562,1.5937,1.7255,1.838,1.8712,1.9756,2.0821,2.0875,2.0899,2.0859,2.0701,2.0661,2.0709,2.0859,2.0859,2.0836,2.0883,2.0899,2.0899,2.0899,2.095,2.1292,2.2182,2.2476,2.2929,2.3895,2.4127,2.4202,2.4202,2.4202,2.4202,2.4202,2.4202,2.4226,2.4325,2.4937,2.5343,2.5441,2.5441,2.6109,2.7565,2.7044,2.7434,2.8803,2.8803,2.8803,2.8803,2.8803,2.8803,0.0,0.0,0.0,0.0,0.0,0.0,0.3643,0.3729,0.381,0.0,0.0,0.0,0.0,0.0,0.0,0.0,0.0,0.0,0.0,0.0,0.0,0.0,0.0,0.0,0.4977,0.5303,0.5908,0.6832,0.8642,1.0111,1.1055,1.0846,1.0822,1.1081,1.0256,0.9806,0.9806,0.9806,0.9806,0.9829,1.0689,1.1038,1.093,1.0611,1.0695,1.1117,1.1207,1.1496,1.1906,1.196,1.2256,1.2705,1.2705,1.2705,1.2705,1.2705,1.2894,1.3171,1.3117,1.3453,1.3905,1.3905,1.4069,1.437,1.4658,1.4962,1.5693,1.8118,1.9431,2.0226,2.0774,2.0899,2.0613,1.9479,1.9217,1.9518,2.0653,2.0598,2.0439,2.082,2.0899,2.0899,2.0899,2.1249,2.1479,2.1249,2.2299,2.3079,2.2853,2.3621,2.4202,2.4202,2.4202,2.4202,2.4202,2.4202,2.444,2.506,2.5221,2.5586,2.624,2.6264,2.6686,2.7589,2.8105,2.849,2.8803,2.8803,2.8803,2.8803,2.8803,2.8803,0.0,0.0,0.0,0.3745,0.0,0.0,0.0,0.373,0.3743,0.3709,0.0,0.0,0.0,0.0,0.0,0.0,0.0,0.0,0.0,0.0,0.0,0.0,0.0,0.0,0.4893,0.5074,0.5627,0.6676,0.8027,0.9405,1.0785,1.0689,1.0514,1.0304,0.977,0.95,0.95,0.95,0.95,0.9506,1.0045,1.0436,1.0701,1.0701,1.0846,1.1093,1.1093,1.1328,1.1707,1.1707,1.2015,1.2503,1.265,1.2705,1.2705,1.2705,1.2888,1.3141,1.2954,1.3236,1.3646,1.3646,1.3942,1.4298,1.4298,1.583,1.777,1.8567,1.9082,1.959,2.0621,2.0375,1.9764,1.9431,1.959,1.9979,2.0447,2.0542,2.0613,2.0851,2.0899,2.0899,2.0899,2.1351,2.17,2.17,2.2602,2.3304,2.3338,2.3845,2.4202,2.4202,2.4202,2.4202,2.4202,2.4202,2.4365,2.4726,2.475,2.5109,2.5877,2.5902,2.6446,2.7589,2.8386,2.8803,2.8803,2.8803,2.8803,2.8803,2.8803,2.8803,0.0,0.0,0.0,0.0,0.0,0.3835,0.0,0.0,0.0,0.3754,0.0,0.0,0.0,0.0,0.0,0.0,0.0,0.0,0.0,0.0,0.0,0.0,0.0,0.0,0.0,0.4949,0.5525,0.6861,0.7311,0.8413,1.0431,1.0366,1.0075,0.963,0.9536,0.95,0.95,0.95,0.95,0.95,0.95,0.9775,1.0279,1.0737,1.0966,1.102,1.1087,1.1249,1.1495,1.1495,1.1822,1.231,1.2548,1.2656,1.2705,1.2705,1.287,1.3059,1.2786,1.2973,1.3363,1.3363,1.3785,1.4298,1.4298,1.7211,2.0256,1.9122,1.8804,1.9066,2.0201,1.9852,1.928,1.9622,2.0202,2.0598,2.0281,2.0486,2.0788,2.0875,2.0899,2.0899,2.0899,2.1377,2.1954,2.2526,2.3004,2.3488,2.3969,2.4028,2.4078,2.4177,2.4202,2.4202,2.4202,2.4202,2.4202,2.4202,2.4202,2.4464,2.505,2.5367,2.6181,2.7565,2.8386,2.8723,2.8583,2.8723,2.8803,2.8803,2.8803,2.8803,0.0,0.0,0.0,0.0,0.394,0.0,0.0,0.0,0.3823,0.3657,0.0,0.0,0.0,0.0,0.0,0.0,0.0,0.0,0.0,0.0,0.0,0.0,0.0,0.0,0.0,0.4771,0.5641,0.7384,0.7139,0.7914,1.02,0.9542,0.9389,1.0013,0.9678,0.95,0.95,0.95,0.95,0.95,0.95,0.9725,1.0126,1.0303,1.0526,1.0761,1.099,1.1249,1.1495,1.1495,1.1822,1.2298,1.2322,1.2499,1.2705,1.2705,1.2729,1.2759,1.2717,1.2741,1.2795,1.2795,1.3477,1.4298,1.4298,1.6516,1.9011,1.8852,1.8804,1.8844,1.9003,1.9844,2.0367,1.9201,1.9479,2.0051,2.0178,2.0233,2.0391,2.082,2.0899,2.0899,2.0899,2.1479,2.2215,2.2929,2.3179,2.3329,2.3379,2.3404,2.3612,2.4152,2.4202,2.4202,2.4202,2.4202,2.4202,2.4202,2.4202,2.4226,2.4316,2.5635,2.6757,2.7589,2.8386,2.8456,2.7731,2.8456,2.8803,2.8803,2.8803,2.8803,0.0,0.0,0.0,0.0,0.0,0.0,0.3839,0.0,0.3818,0.0,0.0,0.0,0.0,0.0,0.0,0.0,0.3969,0.0,0.0,0.0,0.0,0.0,0.0,0.0,0.0,0.0,0.0,0.0,0.6467,0.7294,0.8435,0.8823,0.9243,0.9727,0.9594,0.95,0.95,0.95,0.95,0.95,0.95,0.9672,0.9978,0.9877,1.0124,1.0659,1.0797,1.102,1.1267,1.1267,1.1496,1.1852,1.2009,1.2337,1.2705,1.2705,1.2705,1.2705,1.2705,1.2705,1.2705,1.2705,1.3429,1.4627,1.6372,1.7792,1.8804,1.8804,1.9391,2.0018,2.0018,2.0455,2.0748,2.0161,1.9638,1.9439,2.005,2.0265,2.0432,2.082,2.0899,2.0899,2.0899,2.1878,2.2652,2.2753,2.3054,2.3429,2.3771,2.3513,2.3538,2.4152,2.4202,2.4202,2.4202,2.4202,2.4202,2.4202,2.4603,2.4839,2.4839,2.6167,2.6911,2.6948,2.7292,2.7505,2.7589,2.8409,2.8803,2.8803,2.8803,2.8803,0.4723,0.0,0.0,0.0,0.0,0.0,0.0,0.0,0.0,0.0,0.0,0.0,0.0,0.0,0.0,0.0,0.0,0.4231,0.0,0.0,0.0,0.0,0.0,0.0,0.0,0.0,0.0,0.4951,0.5902,0.6771,0.7463,0.8351,0.9041,0.9488,0.95,0.95,0.95,0.95,0.95,0.95,0.95,0.9602,0.9793,0.9584,0.9829,1.0423,1.061,1.0785,1.099,1.1063,1.1255,1.1539,1.1804,1.2219,1.2705,1.2705,1.2705,1.2705,1.2705,1.2705,1.2705,1.2705,1.3429,1.4699,1.6889,1.8141,1.8804,1.8804,1.9542,2.0407,2.0796,2.0899,2.0843,2.0678,2.0003,1.9511,2.0011,2.0337,2.0615,2.0843,2.0899,2.0899,2.0899,2.2123,2.3004,2.2703,2.3029,2.3513,2.4127,2.3662,2.3538,2.4152,2.4202,2.4202,2.4202,2.4202,2.4202,2.4202,2.4701,2.5133,2.5392,2.6288,2.6706,2.6504,2.636,2.6672,2.7494,2.8151,2.8583,2.8803,2.8803,2.8803,0.0,0.0,0.0,0.4506,0.0,0.0,0.0,0.0,0.4589,0.0,0.0,0.0,0.0,0.0,0.4371,0.4056,0.4375,0.0,0.0,0.0,0.0,0.0,0.0,0.0,0.0,0.0,0.4825,0.5612,0.5655,0.6401,0.8164,0.8181,0.8551,0.9472,0.95,0.95,0.95,0.95,0.95,0.95,0.95,0.95,0.9512,0.95,0.965,0.9949,1.0411,1.0647,1.0737,1.099,1.1255,1.1539,1.1804,1.2219,1.2705,1.2705,1.2705,1.2705,1.2705,1.2705,1.2705,1.2705,1.3429,1.4322,1.4418,1.6466,1.8804,1.8804,1.8836,1.9185,2.0542,2.0899,2.075,2.0091,2.0384,2.0645,2.0044,2.0416,2.0883,2.0891,2.0899,2.0899,2.0899,2.2123,2.3104,2.3079,2.3204,2.3513,2.4127,2.3662,2.3538,2.4152,2.4202,2.4202,2.4202,2.4202,2.4202,2.4202,2.4226,2.4661,2.5645,2.5742,2.5984,2.648,2.5984,2.6225,2.7207,2.7505,2.8047,2.8803,2.8803,2.8803,0.0,0.0,0.4868,0.4996,0.0,0.0,0.0,0.0,0.0,0.0,0.0,0.0,0.0,0.0,0.4561,0.437,0.4537,0.4621,0.0,0.0,0.0,0.0,0.0,0.0,0.0,0.0,0.0,0.6013,0.6539,0.7209,0.8001,0.8497,0.8988,0.9488,0.95,0.95,0.95,0.95,0.95,0.95,0.95,0.95,0.95,0.95,0.9548,0.965,0.9985,1.0321,1.0647,1.0773,1.099,1.1279,1.1725,1.1962,1.2091,1.2536,1.2705,1.2705,1.2705,1.2705,1.2705,1.2705,1.2946,1.346,1.4599,1.5835,1.695,1.7626,1.8636,1.9542,1.9511,2.0201,2.0836,2.0623,2.001,1.9701,2.0416,2.0504,2.0518,2.0836,2.0899,2.0899,2.0899,2.1903,2.2703,2.2703,2.3029,2.3513,2.4127,2.3587,2.3438,2.4127,2.4202,2.4202,2.4202,2.4202,2.4202,2.4202,2.4202,2.435,2.4677,2.4711,2.4799,2.4971,2.4809,2.5191,2.6225,2.6638,2.7529,2.8803,2.8803,2.8803,0.5191,0.5222,0.0,0.5377,0.535,0.0,0.5358,0.0,0.0,0.0,0.0,0.0,0.0,0.0,0.4865,0.4611,0.4691,0.4715,0.0,0.4667,0.0,0.0,0.0,0.0,0.0,0.0,0.6195,0.6195,0.7003,0.7617,0.0,0.8475,0.9065,0.9626,0.9372,0.9355,0.9638,0.9542,0.95,0.95,0.95,0.95,0.95,0.95,0.95,0.9518,0.9889,1.0202,1.052,1.0743,1.0996,1.1285,1.1731,1.1854,1.1855,1.2469,1.2705,1.2705,1.2705,1.2705,1.2705,1.2705,1.2705,1.2918,1.4039,1.4785,1.5622,1.7348,1.8651,1.9503,1.9534,2.0217,2.0899,2.0899,2.0209,1.9725,2.04,2.0504,2.0526,2.0836,2.0899,2.0899,2.0899,2.17,2.2308,2.2308,2.3063,2.3771,2.4152,2.3795,2.3662,2.4152,2.4202,2.4202,2.4202,2.4202,2.4202,2.4202,2.4202,2.4202,2.4202,2.4202,2.4202,2.4202,2.4202,2.4514,2.5167,2.6047,2.7006,2.8011,2.8536,2.8803]},{"header":{"parameterUnit":"m.s-1","parameterCategory":1,"la1":30.6,"la2":29.2853,"lo1":-89.7004,"lo2":-87.6739,"dy":0.0162,"dx":0.0183,"nx":112,"ny":82,"refTime":"2024-05-10T12:00:00:Z","depth":0,"parameterNumber":3,"parameterNumberName":"V-component_of_WINDS"},"data":[0.0,0.0,0.0,0.0,0.0,0.0,0.0,0.0,0.0,0.0,0.0,0.0,0.0,0.0,0.0,0.0,0.0,0.0,0.0,0.0,0.0,0.0,0.0,0.0,0.0,0.0,0.0,0.0,0.0,0.0,0.0,0.0,0.0,0.0,0.0,0.0,0.0,0.0,0.0,0.0,0.0,0.0,0.0,0.0,0.0,0.0,0.0,0.0,0.0,0.0,0.0,0.0,0.0,0.0,0.0,0.0,0.0,0.0,0.0,0.0,0.0,0.0,0.0,0.0,0.0,0.0,0.0,0.0,0.0,0.0,0.0,0.0,0.0,0.0,0.0,0.0,0.0,0.0,0.0,0.0,0.0,0.0,0.0,0.0,0.0,0.0,0.0,0.0,0.0,0.0,0.0,1.9241,2.1876,2.3566,2.3832,2.3836,2.3295,2.2069,0.0,0.0,0.0,0.0,0.0,0.0,0.0,0.0,0.0,0.0,0.0,0.0,0.0,0.0,0.0,0.0,0.0,0.0,0.0,0.0,0.0,0.0,0.0,0.0,0.0,0.0,0.0,0.0,0.0,0.0,0.0,0.0,0.0,0.0,0.0,0.0,0.0,0.0,0.0,0.0,0.0,0.0,0.0,0.0,0.0,0.0,0.0,0.0,0.0,0.0,0.0,0.0,0.0,0.0,0.0,0.0,0.0,0.0,0.0,0.0,0.0,0.0,0.0,0.0,0.0,0.0,0.0,0.0,0.0,0.0,0.0,0.0,0.0,0.0,0.0,0.0,0.0,0.0,0.0,0.0,0.0,0.0,0.0,0.0,0.0,0.0,0.0,0.0,0.0,0.0,0.0,0.0,0.0,0.0,0.0,0.0,0.0,0.0,0.0,0.0,0.0,0.0,0.0,0.0,1.9315,2.1552,2.2955,2.386,2.4127,2.2933,2.234,2.279,0.0,0.0,0.0,0.0,0.0,0.0,0.0,0.0,0.0,0.0,0.0,0.0,0.0,0.0,0.0,0.0,0.0,0.0,0.0,0.0,0.0,0.0,0.0,0.0,0.0,0.0,0.0,0.0,0.0,0.0,0.0,0.0,0.0,0.0,0.0,0.0,0.0,0.0,0.0,0.0,0.0,0.0,0.0,0.0,0.0,0.0,0.0,0.0,0.0,0.0,0.0,0.0,0.0,0.0,0.0,0.0,0.0,0.0,0.0,0.0,0.0,0.0,0.0,0.0,0.0,0.0,0.0,0.0,0.0,0.0,0.0,0.0,0.0,0.0,0.0,0.0,0.0,0.0,0.0,0.0,0.0,0.0,0.0,0.0,0.0,0.0,0.0,0.0,0.0,0.0,0.0,0.0,0.0,0.0,0.0,0.0,0.0,0.0,0.0,0.0,0.0,0.0,0.0,1.9378,2.0773,2.2899,2.3531,2.4094,2.4785,2.2969,2.2326,2.3566,2.1963,0.0,0.0,0.0,0.0,0.0,0.0,0.0,0.0,0.0,0.0,0.0,0.0,0.0,0.0,0.0,0.0,0.0,0.0,0.0,0.0,0.0,0.0,0.0,0.0,0.0,0.0,0.0,0.0,0.0,0.0,0.0,0.0,0.0,0.0,0.0,0.0,0.0,0.0,0.0,0.0,0.0,0.0,0.0,0.0,0.0,0.0,0.0,0.0,0.0,0.0,0.0,0.0,0.0,0.0,0.0,0.0,0.0,0.0,0.0,0.0,0.0,0.0,0.0,0.0,0.0,0.0,0.0,0.0,0.0,0.0,0.0,0.0,0.0,0.0,0.0,0.0,0.0,0.0,0.0,0.0,0.0,0.0,0.0,0.0,0.0,0.0,0.0,0.0,0.0,0.0,0.0,0.0,0.0,0.0,0.0,0.0,0.0,0.0,0.0,0.0,0.0,0.0,2.0988,2.1702,2.3854,2.3974,2.4223,2.5052,2.3079,2.2492,2.4103,2.1868,0.0,0.0,0.0,0.0,0.0,0.0,0.0,0.0,0.0,0.0,0.0,0.0,0.0,0.0,0.0,0.0,0.0,0.0,0.0,0.0,0.0,0.0,0.0,0.0,0.0,0.0,0.0,0.0,0.0,0.0,0.0,0.0,0.0,0.0,0.0,0.0,0.0,0.0,0.0,0.0,0.0,0.0,0.0,0.0,0.0,0.0,0.0,0.0,0.0,0.0,0.0,0.0,0.0,0.0,0.0,0.0,0.0,0.0,0.0,0.0,0.0,0.0,0.0,0.0,0.0,0.0,0.0,0.0,0.0,0.0,0.0,0.0,0.0,0.0,0.0,0.0,0.0,0.0,0.0,0.0,0.0,0.0,0.0,0.0,0.0,0.0,0.0,0.0,0.0,0.0,0.0,0.0,0.0,0.0,0.0,0.0,0.0,0.0,0.0,0.0,0.0,0.0,2.1908,2.2124,2.4648,2.4467,2.4194,2.4281,2.2767,2.2492,2.4103,2.1868,0.0,0.0,0.0,0.0,0.0,0.0,0.0,0.0,0.0,0.0,0.0,0.0,0.0,0.0,0.0,0.0,0.0,0.0,0.0,0.0,0.0,0.0,0.0,0.0,0.0,0.0,0.0,0.0,0.0,0.0,0.0,0.0,0.0,0.0,0.0,0.0,0.0,0.0,0.0,0.0,0.0,0.0,0.0,0.0,0.0,0.0,0.0,0.0,0.0,0.0,0.0,0.0,0.0,0.0,0.0,0.0,0.0,0.0,0.0,0.0,0.0,0.0,0.0,0.0,0.0,0.0,0.0,0.0,0.0,0.0,0.0,0.0,0.0,0.0,0.0,0.0,0.0,0.0,0.0,0.0,0.0,0.0,0.0,0.0,0.0,0.0,0.0,0.0,0.0,0.0,0.0,0.0,0.0,0.0,0.0,0.0,0.0,0.0,0.0,0.0,0.0,0.0,2.2726,2.3247,0.0,2.4324,2.4396,2.4915,2.3006,2.2694,2.4805,0.0,0.0,0.0,0.0,0.0,0.0,0.0,0.0,0.0,0.0,0.0,0.0,0.0,0.0,0.0,0.0,0.0,0.0,0.0,0.0,0.0,0.0,0.0,0.0,0.0,0.0,0.0,0.0,0.0,0.0,0.0,0.0,0.0,0.0,0.0,0.0,0.0,0.0,0.0,0.0,0.0,0.0,0.0,0.0,0.0,0.0,0.0,0.0,0.0,0.0,0.0,0.0,0.0,0.0,0.0,0.0,0.0,0.0,0.0,0.0,0.0,0.0,0.0,0.0,0.0,0.0,0.0,0.0,0.0,0.0,0.0,0.0,0.0,0.0,0.0,0.0,0.0,0.0,0.0,0.0,0.0,0.0,0.0,0.0,0.0,0.0,0.0,0.0,0.0,0.0,0.0,0.0,0.0,0.0,0.0,0.0,0.0,0.0,0.0,0.0,0.0,0.0,2.3009,2.3334,2.3735,0.0,2.436,2.4323,2.4617,2.2896,2.2602,2.4525,0.0,0.0,0.0,0.0,0.0,0.0,0.0,0.0,0.0,0.0,0.0,0.0,0.0,0.0,0.0,0.0,0.0,0.0,0.0,0.0,0.0,0.0,0.0,0.0,0.0,0.0,0.0,0.0,0.0,0.0,0.0,0.0,0.0,0.0,0.0,0.0,0.0,0.0,0.0,0.0,0.0,0.0,0.0,0.0,0.0,0.0,0.0,0.0,0.0,0.0,0.0,0.0,0.0,0.0,0.0,0.0,0.0,0.0,0.0,0.0,0.0,0.0,0.0,0.0,0.0,0.0,0.0,0.0,0.0,0.0,0.0,0.0,0.0,0.0,0.0,0.0,0.0,0.0,0.0,0.0,0.0,0.0,0.0,0.0,0.0,0.0,0.0,0.0,0.0,0.0,0.0,0.0,0.0,0.0,0.0,0.0,0.0,0.0,0.0,0.0,0.0,0.0,2.4615,2.3669,2.3406,2.5194,2.4672,2.3878,2.3061,2.2267,2.2139,0.0,0.0,0.0,0.0,0.0,0.0,0.0,0.0,0.0,0.0,0.0,0.0,0.0,0.0,0.0,0.0,0.0,0.0,0.0,0.0,0.0,0.0,0.0,0.0,0.0,0.0,0.0,0.0,0.0,0.0,0.0,0.0,0.0,0.0,0.0,0.0,0.0,0.0,0.0,0.0,0.0,0.0,0.0,0.0,0.0,0.0,0.0,0.0,0.0,0.0,0.0,0.0,0.0,0.0,0.0,0.0,0.0,0.0,0.0,0.0,0.0,0.0,0.0,0.0,0.0,0.0,0.0,0.0,0.0,0.0,0.0,0.0,0.0,0.0,0.0,0.0,0.0,0.0,0.0,0.0,0.0,0.0,0.0,0.0,0.0,0.0,0.0,0.0,0.0,0.0,0.0,0.0,0.0,0.0,0.0,0.0,0.0,0.0,0.0,0.0,0.0,0.0,0.0,2.3756,2.3816,2.3958,2.4502,2.4341,2.3878,2.3061,2.2267,2.2139,2.2951,0.0,0.0,0.0,0.0,0.0,0.0,0.0,0.0,0.0,0.0,0.0,0.0,0.0,0.0,0.0,0.0,0.0,0.0,0.0,0.0,0.0,0.0,0.0,0.0,0.0,0.0,0.0,0.0,0.0,0.0,0.0,0.0,0.0,0.0,0.0,0.0,0.0,0.0,0.0,0.0,0.0,0.0,0.0,0.0,0.0,0.0,0.0,0.0,0.0,0.0,0.0,0.0,0.0,0.0,0.0,0.0,0.0,0.0,0.0,0.0,0.0,0.0,0.0,0.0,0.0,0.0,0.0,0.0,0.0,0.0,0.0,0.0,0.0,0.0,0.0,0.0,0.0,0.0,0.0,0.0,0.0,0.0,0.0,0.0,0.0,0.0,0.0,0.0,0.0,0.0,0.0,0.0,0.0,0.0,0.0,0.0,0.0,0.0,0.0,0.0,0.0,0.0,2.4147,2.4207,2.4323,2.4635,2.4396,2.3731,2.263,2.2088,2.2014,2.2483,0.0,0.0,0.0,0.0,0.0,0.0,0.0,0.0,0.0,0.0,0.0,0.0,0.0,0.0,0.0,0.0,0.0,0.0,0.0,0.0,0.0,0.0,0.0,0.0,0.0,0.0,0.0,0.0,0.0,0.0,0.0,0.0,0.0,0.0,0.0,0.0,0.0,0.0,0.0,0.0,0.0,0.0,0.0,0.0,0.0,0.0,0.0,0.0,0.0,0.0,0.0,0.0,0.0,0.0,0.0,0.0,0.0,0.0,0.0,0.0,0.0,0.0,0.0,0.0,0.0,0.0,0.0,0.0,0.0,0.0,0.0,0.0,0.0,0.0,0.0,0.0,0.0,0.0,0.0,0.0,0.0,0.0,0.0,0.0,0.0,0.0,0.0,0.0,0.0,0.0,0.0,0.0,0.0,0.0,0.0,0.0,0.0,0.0,0.0,0.0,0.0,0.0,2.5227,2.468,2.4507,2.5306,2.4672,2.3589,2.2033,2.1904,2.1896,2.1878,0.0,0.0,0.0,0.0,0.0,0.0,0.0,0.0,0.0,0.0,0.0,0.0,0.0,0.0,0.0,0.0,0.0,0.0,0.0,0.0,0.0,0.0,0.0,0.0,0.0,0.0,0.0,0.0,0.0,0.0,0.0,0.0,0.0,0.0,0.0,0.0,0.0,0.0,0.0,0.0,0.0,0.0,0.0,0.0,0.0,0.0,0.0,0.0,0.0,0.0,0.0,0.0,0.0,0.0,0.0,0.0,0.0,0.0,0.0,0.0,1.8594,0.0,0.0,0.0,0.0,0.0,0.0,0.0,0.0,0.0,0.0,0.0,0.0,0.0,0.0,0.0,0.0,0.0,0.0,0.0,0.0,0.0,0.0,0.0,0.0,0.0,0.0,0.0,0.0,0.0,0.0,0.0,0.0,0.0,0.0,0.0,0.0,0.0,0.0,0.0,0.0,0.0,2.4949,2.4562,2.4507,2.5306,2.4672,2.3804,2.2827,2.2735,2.2648,2.2441,2.2388,0.0,0.0,0.0,0.0,0.0,0.0,0.0,0.0,0.0,0.0,0.0,0.0,0.0,0.0,0.0,0.0,0.0,0.0,0.0,0.0,0.0,0.0,0.0,0.0,0.0,0.0,0.0,0.0,0.0,0.0,0.0,0.0,0.0,0.0,0.0,0.0,0.0,0.0,0.0,0.0,0.0,0.0,0.0,0.0,0.0,0.0,0.0,0.0,0.0,0.0,0.0,0.0,0.0,0.0,0.0,0.0,0.0,0.0,0.0,0.0,2.0964,0.0,0.0,0.0,0.0,0.0,0.0,0.0,0.0,0.0,0.0,0.0,0.0,0.0,0.0,0.0,0.0,0.0,0.0,0.0,0.0,0.0,0.0,0.0,0.0,0.0,0.0,0.0,0.0,0.0,0.0,0.0,0.0,0.0,0.0,0.0,0.0,0.0,0.0,0.0,0.0,2.5045,2.4603,2.4507,2.5306,2.4672,2.3878,2.3061,2.3006,2.2881,2.2626,2.2473,0.0,0.0,0.0,0.0,0.0,0.0,0.0,0.0,0.0,0.0,0.0,0.0,0.0,0.0,0.0,0.0,0.0,0.0,0.0,0.0,0.0,0.0,0.0,0.0,0.0,0.0,0.0,0.0,0.0,0.0,0.0,0.0,0.0,0.0,0.0,0.0,0.0,0.0,0.0,0.0,0.0,0.0,0.0,0.0,0.0,0.0,0.0,0.0,0.0,0.0,0.0,0.0,0.0,2.5956,2.51,2.4451,2.4532,2.4885,2.5368,2.4276,2.3345,2.2587,0.0,0.0,0.0,0.0,0.0,0.0,0.0,0.0,0.0,0.0,0.0,0.0,0.0,0.0,0.0,0.0,0.0,0.0,0.0,0.0,0.0,0.0,0.0,0.0,0.0,2.3534,2.3431,0.0,0.0,0.0,0.0,0.0,0.0,0.0,0.0,0.0,0.0,0.0,0.0,2.5454,2.4915,2.4727,2.5521,2.4892,2.408,2.3286,2.3208,2.3068,2.2757,2.2522,2.2586,0.0,0.0,0.0,0.0,0.0,0.0,0.0,0.0,0.0,0.0,0.0,0.0,0.0,0.0,0.0,0.0,0.0,0.0,0.0,0.0,0.0,0.0,0.0,0.0,0.0,0.0,0.0,0.0,0.0,0.0,0.0,0.0,2.0192,1.9542,0.0,0.0,0.0,0.0,0.0,0.0,0.0,0.0,0.0,0.0,0.0,0.0,0.0,2.1045,2.0751,2.8576,3.1459,2.9409,2.7383,2.6057,2.5384,2.4785,2.4908,2.5696,2.7947,0.0,2.4554,2.3667,0.0,0.0,0.0,0.0,0.0,0.0,0.0,0.0,0.0,0.0,0.0,0.0,0.0,0.0,0.0,0.0,0.0,0.0,0.0,0.0,0.0,0.0,2.293,2.3613,2.4056,2.4413,0.0,2.3791,2.2725,2.2096,2.2175,0.0,0.0,0.0,0.0,0.0,0.0,0.0,2.6174,2.5736,2.5558,2.6355,2.5718,2.4915,2.4116,2.4043,2.3822,2.3327,2.3266,2.3065,2.2685,2.2619,0.0,0.0,0.0,0.0,0.0,0.0,0.0,0.0,0.0,0.0,0.0,0.0,0.0,0.0,0.0,0.0,0.0,0.0,0.0,0.0,0.0,0.0,0.0,0.0,0.0,0.0,0.0,0.0,0.0,2.1228,2.1212,2.0467,2.1293,2.1641,0.0,0.0,0.0,0.0,0.0,0.0,0.0,0.0,0.0,2.544,2.3552,2.3698,2.6111,2.9853,3.191,3.2234,2.9666,2.872,2.9189,2.8863,2.8885,2.9265,3.0522,3.1013,3.0574,2.6406,2.4157,2.3282,0.0,0.0,0.0,0.0,2.2645,2.2832,2.3462,2.3481,0.0,2.4164,0.0,0.0,0.0,0.0,0.0,0.0,0.0,0.0,0.0,0.0,2.5797,2.6941,2.7431,2.764,2.7538,2.7105,2.6226,0.0,2.3197,2.2569,2.3103,0.0,0.0,0.0,0.0,0.0,2.5792,2.6012,2.6209,2.6552,2.6282,2.5755,2.4934,2.4879,2.4529,2.3673,2.3476,2.3236,2.2906,2.2699,2.2576,0.0,0.0,0.0,0.0,0.0,0.0,0.0,0.0,0.0,0.0,0.0,0.0,0.0,0.0,0.0,0.0,0.0,0.0,0.0,0.0,0.0,0.0,0.0,0.0,0.0,0.0,0.0,0.0,2.1827,2.1989,2.088,2.1778,2.2167,0.0,0.0,0.0,0.0,0.0,0.0,2.4499,2.5042,2.6063,2.7682,2.604,2.7022,3.0933,3.0966,3.2024,3.4068,3.1987,3.1521,3.255,3.3307,3.3647,3.3647,3.3647,3.4622,3.5771,2.9604,2.6535,2.5657,2.4892,2.4475,2.4429,2.5037,2.5195,2.5248,2.6478,2.6463,2.5988,2.6538,0.0,2.4711,2.3989,0.0,0.0,0.0,0.0,2.6492,2.7542,2.8198,2.89,3.0181,3.0704,3.08,3.0458,3.0235,2.9317,0.0,2.4813,2.3843,2.4427,0.0,0.0,0.0,0.0,2.5483,2.5954,2.6544,2.6906,2.6906,2.6906,2.6576,2.5778,2.5526,2.5027,2.4161,2.3657,2.3318,2.3113,2.2797,2.2612,2.2592,0.0,0.0,0.0,0.0,0.0,0.0,0.0,0.0,0.0,0.0,0.0,0.0,0.0,0.0,0.0,0.0,0.0,0.0,0.0,0.0,0.0,0.0,0.0,0.0,0.0,0.0,0.0,0.0,0.0,1.9549,2.13,0.0,0.0,0.0,0.0,2.4378,2.4385,2.5283,2.7371,2.7516,2.8217,2.9713,2.9648,3.0966,3.3858,3.389,3.3955,3.4101,3.3955,3.3922,3.4084,3.6821,3.8084,3.8084,3.8084,3.8149,3.7873,3.3016,3.0469,2.948,2.8045,2.7484,2.7454,2.7391,2.7867,2.844,2.7713,2.7964,2.873,2.9459,2.9151,2.8395,2.7656,2.7205,0.0,0.0,2.8298,2.9667,2.9751,3.0482,3.1395,3.2188,3.2571,3.2953,3.3687,3.2714,3.08,0.0,2.7136,2.6926,2.6528,0.0,2.634,2.6104,2.6118,2.6518,2.7545,2.7719,2.7737,2.7737,2.7737,2.7402,2.6607,2.5847,2.5264,2.4953,2.3962,2.3318,2.3113,2.2842,2.2665,2.2592,2.2535,0.0,0.0,0.0,0.0,0.0,0.0,0.0,0.0,0.0,0.0,0.0,0.0,0.0,0.0,0.0,0.0,0.0,0.0,0.0,0.0,0.0,0.0,0.0,0.0,0.0,0.0,0.0,0.0,2.3414,2.4855,0.0,2.4855,2.5175,2.5741,2.6503,2.676,2.7709,2.9664,3.0457,3.15,3.2938,3.1855,3.2174,3.4084,3.5946,3.6869,3.6869,3.6869,3.6869,3.6902,3.7922,3.8391,3.8391,3.8391,3.8391,3.8343,3.7563,3.5409,3.2461,3.1024,3.0462,3.0527,3.0951,3.1302,3.1575,3.1699,3.1948,3.204,3.0911,2.9745,2.8723,2.8236,2.8306,2.8701,2.9435,3.0947,3.2343,3.2296,3.3051,3.3912,3.4187,3.4309,3.4466,3.4759,3.4379,3.3534,3.1982,2.9687,2.8023,2.807,2.7798,2.7603,2.7731,2.8336,2.8911,2.9304,2.9347,2.9347,2.9347,2.8888,2.8259,2.7438,2.7113,2.6457,2.5335,2.4735,2.4095,2.3324,2.3539,2.3354,2.2683,2.3055,2.2617,0.0,0.0,0.0,0.0,0.0,0.0,0.0,0.0,0.0,0.0,0.0,0.0,0.0,0.0,0.0,0.0,0.0,0.0,0.0,0.0,0.0,0.0,0.0,0.0,0.0,0.0,2.6675,2.6675,2.8132,2.8887,2.818,2.8094,2.8496,2.9448,2.9857,3.0786,3.2471,3.3393,3.4311,3.5241,3.4591,3.4186,3.4101,3.7518,3.9235,3.9235,3.8669,3.8697,3.9235,3.9235,3.8928,3.8456,3.9412,3.9818,3.9883,4.0805,3.9477,3.6623,3.4594,3.3651,3.353,3.4145,3.437,3.4476,3.5054,3.5168,3.479,3.3256,3.1863,3.0767,3.0682,3.1072,3.1736,3.2748,3.4149,3.5343,3.5294,3.5819,3.6346,3.6346,3.6346,3.6346,3.6346,3.6346,3.6094,3.5208,3.2601,3.0539,3.0608,3.0425,3.0195,2.998,3.0552,3.0901,3.0632,3.0595,3.0503,3.0228,2.9726,2.9084,2.8277,2.7952,2.7223,2.5883,2.5219,2.4427,2.3439,2.3596,2.3384,2.2699,2.2463,2.2501,2.2804,0.0,0.0,0.0,0.0,0.0,0.0,0.0,0.0,0.0,0.0,0.0,0.0,0.0,0.0,0.0,0.0,0.0,0.0,0.0,0.0,0.0,0.0,0.0,2.4744,2.7126,2.8957,2.8962,3.0841,3.1834,3.111,3.1688,3.2424,3.3145,3.359,3.4424,3.5828,3.6272,3.6501,3.6534,3.7915,3.7271,3.4347,3.8696,4.0963,4.1026,3.9381,3.9462,4.1038,4.1038,4.0151,3.8782,4.1512,4.26,4.2473,4.2522,4.237,4.1765,3.8611,3.6996,3.6477,3.6858,3.6979,3.7042,3.7444,3.7303,3.6894,3.6567,3.5702,3.4865,3.5267,3.5656,3.611,3.6848,3.7814,3.864,3.8606,3.8623,3.864,3.8606,3.8606,3.8606,3.8606,3.8606,3.8289,3.7196,3.5814,3.4667,3.4146,3.4317,3.412,3.2892,3.2693,0.0,3.1611,3.1464,3.1133,3.035,3.024,2.9892,2.9078,2.8282,2.7475,2.6625,2.5339,2.4254,2.3469,2.3008,2.2798,2.2836,2.0894,2.1079,2.3482,0.0,0.0,0.0,0.0,0.0,0.0,0.0,0.0,0.0,0.0,0.0,0.0,0.0,0.0,0.0,0.0,0.0,0.0,0.0,0.0,0.0,0.0,2.8764,2.7756,3.0184,3.221,3.2602,3.3815,3.4492,3.4198,3.4419,3.4861,3.5457,3.6088,3.7007,3.8277,3.8529,3.8872,3.9358,3.9947,3.9869,3.9042,4.0274,4.2004,4.4169,4.3704,4.3718,4.4152,4.4152,4.3919,4.3525,4.4299,4.2698,3.9624,4.0658,4.0422,3.9438,3.9367,3.9429,3.9518,3.9028,3.8853,3.8866,3.8982,3.8635,3.812,3.802,3.7426,3.6812,3.7199,3.7403,3.7592,3.8036,3.8762,3.9267,3.8744,3.9002,3.9261,3.8726,3.8606,3.8606,3.8606,3.8606,3.8611,3.8635,3.8043,3.7032,3.5499,3.5299,3.5342,3.5288,3.4729,0.0,3.4032,3.2993,3.2185,3.1965,3.1421,3.0503,2.9115,2.8803,2.7836,2.5847,2.5194,2.4708,2.4284,2.4475,2.5042,2.6013,2.488,2.465,0.0,0.0,0.0,0.0,0.0,0.0,0.0,0.0,0.0,0.0,0.0,0.0,0.0,0.0,0.0,0.0,0.0,0.0,0.0,0.0,0.0,0.0,3.0191,3.2116,3.321,3.3889,3.4619,3.5541,3.6172,3.6687,3.7122,3.7228,3.749,3.7988,3.8615,3.9272,3.9967,4.0256,4.073,4.1477,4.1243,4.1453,4.2143,4.1522,4.2716,4.5727,4.5515,4.5397,4.5397,4.5397,4.5397,4.5357,4.4572,4.2339,3.9298,3.9525,3.9705,0.0,0.0,0.0,0.0,0.0,3.9999,4.015,4.015,3.9779,3.9277,3.9129,3.8662,3.8246,3.8645,3.8779,3.8882,3.9411,3.9865,4.0175,4.0055,4.0106,4.0175,4.0055,3.9796,3.9554,3.9554,3.9554,3.9587,3.97,3.9651,0.0,3.7455,3.7043,3.6923,3.682,3.6376,3.5782,3.5089,3.4179,3.3353,3.2674,3.2185,3.1256,2.9647,2.9405,0.0,0.0,0.0,2.5535,2.5237,2.5806,0.0,0.0,0.0,2.6716,2.6739,0.0,0.0,0.0,2.531,2.4615,0.0,0.0,0.0,0.0,0.0,0.0,0.0,0.0,0.0,0.0,0.0,0.0,0.0,0.0,0.0,0.0,3.327,3.5652,3.9522,3.7969,3.6896,3.8081,3.8239,3.8649,3.9621,3.9723,3.9935,4.0404,4.0826,4.1076,4.1134,0.0,0.0,0.0,0.0,4.2595,4.4225,4.2713,4.3376,4.6223,4.5513,4.5213,4.529,4.5359,4.5115,4.4536,4.3266,4.1804,4.0215,3.9095,3.9843,4.1686,4.1499,4.0578,3.9435,4.0307,4.0788,4.1021,4.1021,0.0,0.0,3.9955,3.9654,3.9496,3.9852,3.9957,4.0141,4.0917,4.1101,4.1159,4.1831,4.1504,4.1193,4.1849,4.1504,4.1021,4.1021,4.1021,4.092,4.0515,4.0696,4.0568,3.9464,3.9033,3.856,3.776,3.7566,3.6953,3.5463,3.5126,3.4454,3.3023,0.0,0.0,3.046,3.0078,2.9246,2.7634,2.7097,2.6694,2.6375,2.7126,2.76,2.7686,2.7836,2.7872,2.7807,2.8348,2.871,2.8842,2.6135,2.5128,0.0,0.0,0.0,0.0,0.0,0.0,0.0,0.0,0.0,0.0,0.0,0.0,0.0,0.0,0.0,3.4224,3.6911,3.9466,4.1931,4.1926,4.1428,4.0858,4.1021,4.0974,4.0458,4.0509,4.0761,4.123,4.1361,4.1589,4.204,4.1924,4.2012,4.2406,4.3631,4.4968,4.6391,4.4814,4.4828,4.6423,0.0,0.0,4.4612,4.5148,4.3335,3.9884,4.2336,4.1787,3.9163,3.9771,4.0448,4.1274,4.2381,4.2236,4.1529,4.2343,4.227,4.178,4.178,4.1352,4.077,4.0686,4.1025,4.1459,4.1531,4.1555,0.0,4.2534,4.2292,4.1814,4.1952,4.1883,4.1814,4.1969,4.1883,4.178,4.178,4.178,4.1682,4.1342,4.0829,4.0291,3.9837,3.9708,3.9386,3.8597,3.7925,3.7382,3.7063,3.5837,3.4887,3.4575,3.3965,3.2926,3.1299,3.0878,3.0003,2.8399,2.834,2.8256,2.797,2.8678,2.9386,3.0032,2.9463,2.9332,2.9675,2.901,2.8566,2.8359,2.8394,2.8057,0.0,0.0,0.0,0.0,0.0,0.0,0.0,0.0,0.0,0.0,0.0,2.75,2.8856,0.0,3.4847,3.7735,3.9709,4.1752,4.421,4.4291,4.3515,4.1945,4.1898,4.175,4.1111,4.1111,4.1367,4.1856,4.1899,4.2012,4.2287,4.2166,4.2351,4.2876,4.338,4.434,4.5773,4.425,4.4163,4.5536,4.3954,4.3663,4.4506,4.4605,4.2535,3.8947,4.0687,4.0474,3.901,4.035,4.1379,4.2278,4.3625,4.3523,4.2654,4.3051,4.2948,4.2603,4.2603,4.2361,4.1981,4.1573,4.1981,4.2465,4.1676,4.1711,4.2004,4.205,4.2033,4.209,4.2499,4.2413,4.2349,4.2987,4.3039,4.2896,4.2654,4.228,4.1956,4.1777,4.1292,4.0724,4.0191,3.998,3.9565,3.8551,3.857,3.841,3.7603,3.6413,3.5481,3.5059,3.4121,3.3051,3.1848,3.0955,3.0043,2.9059,2.9462,2.952,2.8972,2.9696,3.0455,3.124,3.0489,3.0212,3.0446,3.0153,2.9403,2.8329,2.9676,2.9414,0.0,0.0,0.0,0.0,0.0,0.0,0.0,0.0,2.5622,2.7394,2.929,3.1247,3.3254,3.5867,3.8527,4.1037,4.2276,4.3769,4.6129,4.5841,4.4711,4.283,4.2543,4.2288,4.171,4.1655,4.1835,4.2277,4.2297,4.2297,4.2297,4.2297,4.2601,4.3251,4.2787,4.3126,4.4371,4.3144,4.3233,4.4585,4.3464,4.3439,4.436,4.3832,4.2349,4.0201,4.0046,3.9767,3.9534,4.1189,4.2287,4.3034,4.4558,4.4409,4.3373,4.3617,4.3523,4.3269,4.3374,4.331,4.3086,4.2447,4.2775,4.3172,4.1947,4.1969,4.2349,4.19,4.2056,4.2556,4.3401,4.3315,4.3177,4.3914,4.4,4.385,4.3672,4.3004,4.2401,4.2263,4.1881,4.1349,4.0552,4.0298,3.9755,3.84,3.8897,3.8966,3.7669,3.6795,3.5977,3.513,3.4072,3.3079,3.2201,3.1229,3.0512,3.0179,3.092,3.1067,3.042,3.1016,3.1637,3.224,3.1516,3.1136,3.1136,3.131,3.0581,2.9101,3.0609,3.0097,2.2668,2.2422,2.2575,2.4149,2.414,2.461,0.0,0.0,2.9746,3.0632,3.364,3.5994,3.5562,3.9059,4.2318,4.3234,4.5001,4.6524,4.7241,4.6869,4.6079,4.4903,4.4496,4.3764,4.2357,4.2207,4.2246,4.2297,4.2297,4.2297,4.2297,4.2297,4.2333,4.244,4.3036,4.3454,4.3633,4.3454,4.3775,4.4578,4.3094,4.2819,4.3597,4.2824,4.28,4.3348,4.276,4.1874,4.1017,4.2857,4.2766,4.1696,4.4336,4.4736,4.3956,4.5087,4.4635,4.3525,4.4007,4.3741,4.3189,4.3103,4.3569,4.4138,4.3983,4.3983,4.416,4.4738,4.432,4.3919,4.4893,4.5117,4.4772,4.3603,4.3621,4.4126,4.4979,4.4561,4.3845,4.3189,4.245,4.1708,4.0965,4.1096,4.0701,3.8823,3.8105,3.7703,3.7524,3.68,3.6004,3.5252,3.4423,3.3472,3.2375,3.2739,3.2877,3.2543,3.3266,3.3672,3.3586,3.3672,3.3758,3.3845,3.3059,3.2662,3.2662,3.2048,3.1634,3.142,3.1642,3.0512,2.414,2.4199,2.4743,0.0,2.713,2.8552,3.0965,3.2042,3.3112,3.5176,3.7222,3.8939,3.9922,4.2031,4.3885,0.0,4.5889,4.6802,4.7007,4.6843,4.6,4.4156,4.3812,4.349,4.2878,4.2642,4.2534,4.2534,4.2381,4.2297,4.2297,4.2297,4.2297,4.2297,4.2636,4.2804,4.2804,4.2804,4.2965,4.3251,4.2619,4.2476,4.2787,4.2458,4.2324,4.2357,4.1888,4.1804,4.2097,4.2876,4.3468,4.3985,4.5169,4.5375,4.509,4.5782,4.5623,4.5103,4.5336,4.5195,4.4876,4.444,4.4694,4.5008,4.4106,4.4045,4.4276,4.416,4.4005,4.4005,4.4423,4.4962,4.5242,4.463,4.463,4.4893,4.5311,4.482,4.4207,4.3897,4.2832,4.19,4.159,4.0943,4.0182,3.9352,3.9011,3.8504,3.7612,3.6791,3.5927,3.4951,3.4553,3.4075,3.3402,3.3625,3.375,3.3613,3.3914,3.3879,3.3421,3.3404,3.362,3.4086,3.33,3.3128,3.3603,3.3293,3.2689,3.1817,3.2723,3.2154,2.5205,0.0,0.0,2.8285,3.0204,3.2192,3.3921,3.5066,3.6423,3.8804,4.0305,4.1559,4.2766,4.4051,4.5049,4.5443,4.6332,4.6936,4.685,4.6541,4.5553,4.3478,4.2919,4.2714,4.2759,4.2387,4.2291,4.2675,4.2316,4.2147,4.2279,4.2297,4.2297,4.2297,4.2297,4.2297,4.2297,4.2297,4.2297,4.2297,4.2297,4.2297,4.2297,4.2529,4.2172,4.1367,4.1701,4.2061,4.2405,4.298,4.399,4.5213,4.5641,4.5802,4.5847,4.6283,4.6228,4.5967,4.5894,4.6023,4.6075,4.5315,4.5444,4.569,4.4495,4.4421,4.459,4.3979,4.4057,4.4302,4.4302,4.4841,4.5397,4.5397,4.5397,4.5397,4.5397,4.4992,4.4609,4.4609,4.3539,4.2625,4.2625,4.1366,4.0181,3.975,3.9574,3.8984,3.7665,3.6621,3.5688,3.4852,3.4579,3.436,3.4116,3.4293,3.4397,3.4397,3.4586,3.4448,3.3869,3.3835,3.4111,3.4707,3.4128,3.4111,3.4707,3.4707,3.4138,3.3076,3.419,3.4121,0.0,0.0,2.8393,3.109,3.2947,3.4665,3.6873,3.8533,3.9856,4.0675,4.2876,4.4188,4.2705,4.4617,4.6191,4.5429,4.6636,4.7563,4.7224,4.6126,4.4905,4.3719,4.2437,4.1642,0.0,4.1111,4.1306,4.2595,4.1969,4.1745,4.2282,4.2297,4.2297,4.2297,4.2297,4.2297,4.2297,4.2297,4.2297,4.2297,4.2297,4.2297,4.2333,4.3108,4.2736,4.1604,4.362,4.3359,4.1686,4.3713,4.4157,4.3722,4.522,4.5802,4.5909,4.6683,4.6309,4.5381,4.5134,4.5554,4.6075,4.5261,4.5542,4.6137,4.5817,4.5746,4.5687,4.542,4.5345,4.5345,4.5345,4.538,4.5397,4.5397,4.5397,4.5397,4.5397,4.538,4.5363,4.5363,4.4751,4.4225,4.4225,4.2953,4.1417,3.9922,3.9094,3.8357,3.7597,3.6163,3.5221,3.5183,3.4537,3.4113,3.4103,3.4759,3.5173,3.5173,3.5835,3.6215,3.6197,3.6197,3.6215,3.6232,3.6215,3.6215,3.6232,3.6232,3.6215,3.6163,3.6215,3.6215,0.0,0.0,3.2714,3.4717,3.6904,3.9059,4.0864,4.1691,4.2177,4.2604,4.2072,4.162,4.1829,4.1724,4.2036,4.341,4.5026,4.6071,4.5953,4.6028,4.5143,4.2574,4.1872,0.0,0.0,0.0,0.0,4.2114,4.2246,4.2294,4.23,4.2804,4.2858,4.2315,4.2297,4.2297,4.2297,4.2297,4.2297,4.2297,4.2297,4.2297,4.2297,4.2583,4.2464,4.2069,4.2778,4.2685,4.2132,4.3355,4.4007,4.4328,4.5381,4.6123,4.6623,4.6902,4.6774,4.6462,4.6352,4.6506,4.6684,4.6418,4.6389,4.6459,4.6357,4.6075,4.5786,4.5688,4.5537,4.5397,4.5397,4.5397,4.5397,4.5397,4.5397,4.5397,4.5397,4.5397,4.5397,4.5397,4.5203,4.4872,4.438,4.3465,4.2275,4.0727,3.9002,3.7778,3.7519,3.7467,3.7467,3.7467,3.7226,3.6881,3.6398,3.657,3.6501,3.5956,3.6163,3.6301,3.6301,3.6301,3.6301,3.6301,3.6301,3.6301,3.6301,3.6301,3.6301,3.6301,3.6301,3.6301,3.0004,3.3123,3.6311,3.7903,3.9984,4.1945,4.303,4.3128,4.2882,4.2506,4.0759,3.942,3.9812,3.8765,3.8752,4.1505,4.2582,4.3485,4.4681,4.4785,4.4061,4.2248,4.1783,0.0,0.0,0.0,0.0,4.246,4.2723,4.2856,4.2866,4.3528,4.3543,4.2751,4.2744,4.259,4.2297,4.2297,4.2297,4.2297,4.2297,4.2297,4.2297,4.2601,4.2573,4.2315,4.2601,4.2565,4.2351,4.3179,4.3936,4.4685,4.5488,4.6284,4.7009,4.7009,4.7009,4.6955,4.667,4.6759,4.6955,4.6659,4.6645,4.6737,4.6625,4.6284,4.5925,4.5824,4.5598,4.5397,4.5397,4.5397,4.5397,4.5397,4.5397,4.5397,4.5397,4.4548,4.41,4.519,4.5397,4.5255,4.4768,4.385,4.2672,4.1136,3.9652,3.8416,3.7605,3.7916,3.8209,3.8209,3.8209,3.8019,3.7547,3.7243,3.6863,3.6335,3.6301,3.6301,3.6301,3.6301,3.6301,3.6301,3.6301,3.6301,3.6301,3.6301,3.6301,3.6301,3.6301,3.6301,3.3799,3.6625,3.9053,4.0517,4.2081,4.3286,4.3359,4.2932,4.2049,4.046,3.893,3.7604,0.0,0.0,3.6522,3.9705,3.9691,4.0408,4.3615,4.2786,4.2118,0.0,0.0,0.0,0.0,0.0,0.0,4.3647,0.0,4.3385,4.391,4.4392,4.431,4.3525,4.3508,4.3133,4.2369,4.2351,4.2351,4.2351,4.2315,4.2297,4.2333,4.308,4.3019,4.2333,4.3108,4.3019,4.2369,4.3215,4.3971,4.4674,4.5523,4.632,4.7009,4.7009,4.7009,4.6884,4.6123,4.6355,4.6866,4.6105,4.6373,4.6945,4.6696,4.6429,4.6161,4.59,4.5611,4.5397,4.5397,4.5397,4.5397,4.5397,4.5397,4.5397,4.5397,4.3147,4.1987,4.4828,4.5397,4.5397,4.5397,4.4212,4.2741,4.124,4.0963,4.0101,3.784,3.7588,3.7599,3.7564,3.7564,3.7547,3.7502,3.6812,3.6335,3.6301,3.6301,3.6301,3.6301,3.6301,3.6301,3.6301,3.6301,3.6301,3.6301,3.6301,3.6301,3.6301,3.6301,3.6301,3.6027,3.8949,4.1527,4.2015,4.3098,4.3884,4.3364,4.2188,4.0552,3.8309,3.5613,3.3387,0.0,0.0,0.0,3.7311,4.0132,0.0,4.4697,4.5127,0.0,0.0,0.0,4.4366,4.4366,4.4366,0.0,0.0,4.4664,4.4115,4.4417,4.5103,4.4881,4.3543,4.3508,4.3401,4.3187,4.3187,4.3187,4.3197,4.2601,4.2297,4.2297,4.2511,4.2494,4.2315,4.2529,4.2494,4.2404,4.3757,4.4435,4.4738,4.6141,4.683,4.7009,4.7009,4.7009,4.6973,4.6777,4.683,4.6973,4.6759,4.683,4.6998,4.6911,4.6708,4.6429,4.6174,4.5752,4.5397,4.5397,4.5397,4.5397,4.5397,4.5397,4.5397,4.5397,4.4807,4.4479,4.5242,4.5397,4.5397,4.5397,4.463,4.3707,4.2758,4.1636,4.029,3.8537,3.8795,3.8933,3.8381,3.8312,3.8105,3.7553,3.7312,3.695,3.6335,3.6301,3.6301,3.6301,3.6301,3.6301,3.6301,3.6301,3.6301,3.6301,3.6301,3.6301,3.6301,3.6301,3.6301,3.9455,4.1682,4.3342,4.3845,4.3896,4.3444,4.2033,4.0401,3.8316,3.5152,3.2449,0.0,0.0,0.0,0.0,0.0,0.0,0.0,4.3867,4.469,4.5188,0.0,4.5825,0.0,4.5825,4.5825,4.611,0.0,4.603,4.5555,4.5511,4.6162,4.5932,4.4553,4.4507,4.4346,4.3989,4.3989,4.3989,4.3971,4.3197,4.2822,4.2804,4.2458,4.2297,4.2297,0.0,4.2297,4.2422,4.3954,4.4614,4.4756,4.6373,4.7009,4.7009,4.7009,4.7009,4.7009,4.7009,4.7009,4.7009,4.7009,4.7009,4.7009,4.7009,4.6801,4.6578,4.6417,4.5905,4.5397,4.5397,4.5397,4.5397,4.5397,4.5397,4.5397,4.5397,4.5397,4.5397,4.5397,4.5397,4.5397,4.5397,4.5048,4.454,4.3793,4.2672,4.136,3.9813,3.9658,3.9422,3.8675,3.8606,3.8295,3.7564,3.7174,3.6777,3.6335,3.6301,3.6301,3.6301,3.6301,3.6301,3.6301,3.6301,3.6301,3.6301,3.6301,3.6301,3.6301,3.6301,3.6301,4.2916,4.414,4.4489,4.524,4.4148,4.2309,4.0017,3.8017,3.5566,3.1742,0.0,2.8373,2.8088,0.0,2.989,3.3824,0.0,3.7774,4.2677,4.3347,4.4203,4.6588,4.6826,4.6828,4.6828,4.6828,4.6987,4.7389,4.7426,4.7261,4.6898,4.7265,4.6989,4.5849,4.5802,4.5452,4.4774,4.4756,4.4756,4.4756,4.4007,4.3597,4.349,4.2876,4.2494,4.2297,4.2404,0.0,4.2565,4.4007,4.4656,4.4917,4.6409,4.7009,4.7009,4.7009,4.7009,4.7009,4.7009,4.7009,4.7009,4.7009,4.7009,4.7009,4.7009,4.6842,4.6649,4.6613,4.6117,4.5576,4.5437,4.5397,4.5397,4.5397,4.5397,4.5397,4.5397,4.5397,4.5397,4.5397,4.5397,4.5397,4.5397,4.5397,4.5186,4.454,4.3828,4.2827,4.1395,4.0313,3.937,3.8537,3.845,3.8157,3.7398,3.6708,3.6301,3.6301,3.6301,3.6301,3.6301,3.6301,3.6301,3.6301,3.6301,3.6301,3.6301,3.6301,3.6301,3.6301,3.6301,3.6301,4.3636,4.4426,4.4376,4.3985,4.2611,4.0769,3.8358,3.5448,0.0,0.0,0.0,2.6439,2.574,2.7282,0.0,3.3145,0.0,0.0,0.0,0.0,4.598,0.0,0.0,0.0,0.0,0.0,0.0,0.0,0.0,4.8366,4.7803,4.7601,4.6989,4.5849,4.5802,4.5731,4.5588,4.5588,4.5588,4.5577,4.4792,4.4096,4.3525,4.3989,4.3518,4.2333,4.3001,0.0,4.3365,4.4239,4.4988,4.5695,4.6623,4.7009,4.7009,4.7009,4.7009,4.7009,4.7009,4.7009,4.7009,4.7009,4.7009,4.7009,4.7009,4.6957,4.6888,4.6661,4.6649,4.6518,4.5628,4.5397,4.5397,4.5397,4.5397,4.5397,4.5397,4.5397,4.5397,4.5397,4.5397,4.5397,4.5397,4.5397,4.5363,4.5238,4.4578,4.3793,4.2913,4.0986,3.9181,3.7829,3.7702,3.7364,3.6577,3.6387,3.6301,3.6301,3.6301,3.6301,3.6301,3.6301,3.6301,3.6301,3.6301,3.6301,3.6301,3.6301,3.6301,3.6301,3.6301,3.6301,4.3908,4.4605,4.4545,4.4285,4.2313,3.9561,3.6279,0.0,0.0,0.0,2.6194,2.55,2.507,0.0,0.0,0.0,0.0,0.0,0.0,0.0,0.0,0.0,0.0,0.0,0.0,0.0,0.0,0.0,0.0,4.8261,4.8203,4.7767,4.7169,4.6438,4.6409,4.6409,4.6409,4.6409,4.6409,4.6409,4.5624,4.5042,4.4685,4.4631,4.4203,4.3518,4.39,0.0,4.4132,4.4917,4.5463,4.5873,4.6688,4.7009,4.7009,4.7009,4.7009,4.7009,4.7009,4.7009,4.7009,4.7009,4.7009,4.7009,4.7009,4.7009,4.6968,4.6842,4.6772,4.6572,4.5854,4.5524,4.5397,4.5397,4.5397,4.5397,4.5397,4.5397,4.5397,4.5397,4.5397,4.5397,4.5397,4.5397,4.5397,4.5397,4.444,4.3603,4.3254,4.1533,3.9882,3.8778,3.8295,3.776,3.7001,3.6542,3.6301,3.6301,3.6301,3.6301,3.6301,3.6301,3.6301,3.6301,3.6301,3.6301,3.6301,3.6301,3.6301,3.6301,3.6301,3.6301,4.3492,4.4335,4.4474,4.4372,4.1838,3.8335,3.441,3.1454,0.0,0.0,2.5076,2.5054,2.5017,0.0,0.0,0.0,0.0,0.0,0.0,0.0,0.0,0.0,0.0,0.0,0.0,0.0,0.0,0.0,0.0,0.0,4.8117,4.7802,4.7439,4.7116,4.7043,4.7009,4.7009,4.7009,4.7009,4.6991,4.6355,4.5963,4.5784,4.5309,4.4863,4.4453,4.4685,0.0,0.0,4.541,4.5856,4.6123,4.6748,4.7009,4.7009,4.7009,4.7009,4.7009,4.7009,4.7009,4.7009,4.7009,4.7009,4.7009,4.7009,4.7009,4.7009,4.7009,4.6813,4.6524,4.6228,4.5765,4.5397,4.5397,4.5397,4.5397,4.5397,4.5397,4.5397,4.5397,4.5397,4.5397,4.5397,4.5397,4.5397,4.5397,4.4268,4.3379,4.3224,4.1999,4.0831,4.0037,3.9278,3.8537,3.7795,3.7019,3.6559,3.6559,3.6404,3.6301,3.6301,3.6301,3.6301,3.6301,3.6301,3.6301,3.6301,3.6301,3.6301,3.6301,3.6301,3.6301,4.1935,4.3185,4.3607,4.2824,4.01,3.6751,3.3386,0.0,0.0,2.5396,2.5017,2.5017,2.5007,2.5136,0.0,0.0,0.0,3.3648,0.0,0.0,0.0,0.0,0.0,0.0,0.0,0.0,0.0,0.0,0.0,0.0,4.7325,4.7729,4.7798,4.7468,4.716,4.7009,4.7009,4.7009,4.7009,4.7009,4.6938,4.6509,4.582,4.648,4.5742,4.4011,4.4928,0.0,0.0,4.5213,4.5998,4.6902,4.6973,4.7009,4.7009,4.7009,4.7009,4.7009,4.7009,4.7009,4.7009,4.7009,4.7009,4.7009,4.7009,4.7009,4.7009,4.7009,4.6986,4.6952,4.6911,4.6154,4.5397,4.5397,4.5397,4.5397,4.5397,4.5397,4.5397,4.5397,4.5397,4.5397,4.5397,4.5397,4.5397,4.5397,4.4716,4.3966,4.3293,4.2447,4.1607,4.0865,4.0072,3.9313,3.8554,3.7812,3.7392,3.7392,3.6708,3.6301,3.6301,3.6301,3.6301,3.6301,3.6301,3.6301,3.6301,3.6301,3.6301,3.6301,3.6301,3.6301,3.9499,4.1901,4.3246,4.1359,3.8774,3.5803,3.2482,0.0,2.6391,2.5231,2.5003,2.5003,2.5003,2.5003,2.5929,2.8722,2.8214,0.0,0.0,0.0,0.0,0.0,0.0,0.0,0.0,0.0,0.0,0.0,0.0,0.0,4.7529,4.7509,4.7609,4.779,4.749,4.7305,4.7305,4.7093,4.7009,4.7009,4.7009,4.683,4.6534,4.6848,4.6545,4.5795,4.6188,0.0,0.0,4.6277,4.6616,4.7009,4.7009,4.7009,4.7009,4.7009,4.7009,4.7009,4.7009,4.7009,4.7009,4.7009,4.7009,4.7009,4.7009,4.7009,4.7009,4.7009,4.7009,4.6957,4.6807,4.608,4.5397,4.5397,4.5397,4.5397,4.5397,4.5397,4.5397,4.5397,4.5397,4.5397,4.5397,4.5397,4.5397,4.5397,4.4768,4.4035,4.3293,4.2499,4.1711,4.0981,4.0175,3.9388,3.8657,3.7916,3.7295,3.6812,3.6473,3.6525,3.7001,3.6559,3.6536,3.7019,3.6553,3.6301,3.6301,3.6301,3.6301,3.6301,3.6301,3.6301,3.6524,3.948,4.1408,3.9602,3.7296,3.4643,0.0,0.0,2.597,2.5174,2.5003,2.5003,2.5003,2.5003,2.5644,2.7646,2.7119,2.8563,0.0,0.0,0.0,0.0,0.0,0.0,0.0,0.0,0.0,0.0,0.0,0.0,4.8073,4.7614,4.7592,4.8104,4.7819,4.7607,4.75,4.7272,4.7093,4.7009,4.7009,4.7009,4.7009,4.7009,4.7009,4.7009,4.7009,0.0,0.0,4.7009,4.7009,4.7009,4.7009,4.7009,4.7009,4.7009,4.7009,4.7009,4.7009,4.7009,4.7009,4.7009,4.7009,4.7009,4.7009,4.7009,4.7009,4.7009,4.7009,4.6963,4.6772,4.624,4.5693,4.5463,4.5459,4.5498,4.5423,4.5397,4.5397,4.5397,4.5397,4.5397,4.5397,4.5397,4.5397,4.5397,4.4578,4.3793,4.3276,4.2309,4.1481,4.0963,4.04,3.9848,3.9313,3.8381,3.7674,3.7318,3.6887,3.6915,3.7467,3.6967,3.6812,3.7139,3.6587,3.6301,3.6301,3.6301,3.6301,3.6301,3.6301,3.618,3.3089,3.5576,3.7452,3.7433,3.5557,3.307,0.0,0.0,2.597,2.5174,2.5003,2.5003,2.5003,2.5003,2.5269,2.6084,2.8252,3.0768,0.0,0.0,0.0,0.0,0.0,0.0,0.0,0.0,0.0,0.0,0.0,0.0,4.8853,4.8129,4.7916,4.8384,4.8132,4.7829,4.7511,4.75,4.7327,4.7009,4.7009,4.7009,4.7009,4.7009,4.7009,0.0,0.0,0.0,0.0,4.7009,4.7009,4.7009,4.7009,4.7009,4.7009,4.7009,4.7009,4.7009,4.7009,4.7009,4.7009,4.7009,4.7009,4.7009,4.7009,4.7009,4.7009,4.7009,4.7009,4.7009,4.7009,4.6795,4.6398,4.5589,4.5598,4.5709,4.5463,4.5397,4.5397,4.5397,4.5397,4.5397,4.5397,4.5397,4.5397,4.5397,4.4147,4.3207,4.3189,4.1861,4.0912,4.0912,4.0883,4.0877,4.0877,3.9468,3.8899,3.9612,3.8295,3.7484,3.7502,3.7484,3.7122,3.6335,3.6301,3.6301,3.6301,3.6301,3.6301,3.6301,3.6301,3.5904,2.9768,3.2535,3.4605,3.3449,3.2197,3.0718,2.8715,2.6797,2.5368,2.5055,2.5003,2.5003,2.5003,2.5003,2.5644,2.7589,2.8104,2.953,0.0,0.0,0.0,0.0,0.0,0.0,0.0,0.0,0.0,0.0,0.0,0.0,4.9086,4.8736,4.8587,4.8731,4.8439,4.8221,4.8114,4.7923,4.7788,4.7684,4.7439,4.7338,4.7338,4.7093,4.7009,0.0,0.0,0.0,0.0,4.7009,4.7009,4.7009,4.7009,4.7009,4.7009,4.7009,4.7009,4.7009,4.7009,4.7009,4.7009,4.7009,4.7009,4.7009,4.7009,4.7009,4.7009,4.7009,4.7009,4.7009,4.7009,4.6807,4.6495,4.6038,4.5862,4.5739,4.5463,4.5397,4.5397,4.5397,4.5397,4.5397,4.5397,4.5397,4.5397,4.5397,4.4561,4.3949,4.3949,4.3086,4.2258,4.1711,4.1642,4.1228,4.0175,3.9629,3.9244,3.8968,3.8502,3.8485,3.8985,3.8519,3.8123,3.7881,3.7881,3.7353,3.6301,3.6863,3.6846,3.6301,3.6301,3.6163,2.6755,2.9298,3.1179,3.045,2.9672,0.0,2.7334,2.5999,2.5057,2.5017,2.5003,2.5003,2.5003,2.5003,2.5515,2.7039,2.7915,0.0,0.0,0.0,0.0,0.0,0.0,0.0,0.0,0.0,0.0,0.0,0.0,0.0,4.9195,4.9079,4.8986,4.8909,4.8705,4.8541,4.8402,4.8221,4.8093,4.8002,4.7788,4.7458,4.706,4.715,4.6955,0.0,0.0,0.0,0.0,4.7009,4.7009,4.7009,4.7009,4.7009,4.7009,4.7009,4.7009,4.7009,4.7009,4.7009,4.7009,4.7009,4.7009,4.7009,4.7009,4.7009,4.7009,4.7009,4.7009,4.7009,4.7009,4.6876,4.6708,4.6542,4.6223,4.5942,4.5833,4.568,4.5589,4.5693,4.5641,4.5589,4.5563,4.5476,4.5397,4.5397,4.4768,4.4311,4.4311,4.3655,4.2896,4.209,4.2004,4.1504,4.0262,3.9871,3.9629,3.9485,3.9175,3.9215,3.9681,3.9261,3.8744,3.8192,3.8174,3.7709,3.6749,3.7536,3.7657,3.7163,3.687,3.6749,0.0,2.6049,2.7411,2.8233,2.7885,2.7122,2.6296,2.5541,0.0,2.5007,2.5003,2.5022,2.506,2.5041,2.5098,2.5382,2.8006,0.0,0.0,0.0,0.0,0.0,0.0,0.0,0.0,0.0,0.0,0.0,0.0,0.0,4.9219,4.9214,4.9104,4.8909,4.8909,4.875,4.8402,4.8421,4.8288,4.8032,4.8032,4.7462,4.6468,4.7203,4.6935,0.0,0.0,0.0,0.0,4.7009,4.7009,4.7009,4.7009,4.7002,4.7025,4.702,4.702,4.7025,4.702,4.7009,4.7009,4.7009,4.7009,4.7009,4.7009,4.7009,4.7009,4.7009,4.7009,4.7009,4.7009,4.7009,4.7009,4.6986,4.659,4.6259,4.644,4.6142,4.59,4.6149,4.6038,4.5887,4.5837,4.5602,4.541,4.5423,4.4781,4.4328,4.4367,4.369,4.2913,4.2159,4.2038,4.1693,4.0963,4.0227,4.0106,4.0848,4.021,3.9796,3.9796,3.9796,3.9123,3.7674,3.7605,3.7605,3.7657,3.8295,3.8606,3.8588,3.7898,3.7581,2.3628,0.0,2.4791,2.5663,2.5778,2.5606,0.0,2.5174,2.5054,2.5001,0.0,2.5193,2.5799,2.5401,2.6046,2.9223,3.0393,0.0,0.0,0.0,0.0,0.0,0.0,0.0,0.0,0.0,0.0,0.0,0.0,4.9548,4.936,4.926,4.9104,4.8909,4.8909,4.875,4.8402,4.8651,4.8614,4.8298,4.8298,4.8177,4.7917,4.7882,4.7604,0.0,0.0,0.0,4.7009,4.7009,4.7009,4.7009,4.7009,4.716,4.7349,4.7093,4.716,4.7349,4.7082,4.7009,4.7009,4.7009,4.7009,4.7009,4.7009,4.7009,4.7009,4.7009,4.7009,4.7009,4.7009,4.7009,4.6945,4.6731,4.6602,4.6471,4.6296,4.6174,4.6124,4.6186,4.6038,4.595,4.6075,4.5701,4.5459,4.5675,4.4906,4.4505,4.5065,4.4005,4.312,4.2948,4.2378,4.1693,4.0963,4.0739,4.0693,4.0894,4.071,4.0624,4.0624,4.0624,4.0175,3.9198,3.864,3.8623,3.9181,3.8795,3.8606,3.8606,3.8416,3.8347,2.3445,2.3692,2.3919,2.4776,2.5024,2.505,2.5017,2.5024,2.5047,0.0,0.0,2.525,2.6046,2.5837,0.0,2.956,0.0,0.0,0.0,0.0,0.0,0.0,0.0,0.0,0.0,0.0,0.0,0.0,0.0,4.9717,4.9555,4.9368,4.9219,4.9046,4.8952,4.8812,4.8632,4.866,4.866,4.8632,4.8467,4.8227,4.7905,4.8103,4.7823,0.0,0.0,0.0,4.7227,4.7227,4.7227,4.7249,4.7396,4.7568,4.7705,4.7525,4.7568,4.7673,4.7349,4.7127,4.7009,4.7009,4.7009,4.7009,4.7009,4.7009,4.7009,4.7009,4.7009,4.7009,4.7009,4.7009,4.6957,4.683,4.6684,4.659,4.6578,4.6483,4.6417,4.6554,4.6483,4.6429,4.6554,4.6326,4.6018,4.5662,4.5264,4.5096,4.5372,4.4406,4.3569,4.3241,4.2482,4.1693,4.0963,4.0912,4.0912,4.0912,4.0912,4.0912,4.0912,4.0912,4.052,3.9715,3.9301,3.9313,3.9698,3.9675,3.9658,3.9641,3.9278,3.9296,2.3711,2.3901,2.4071,2.4814,2.5003,2.5003,2.5003,0.0,0.0,0.0,0.0,0.0,0.0,0.0,0.0,0.0,0.0,0.0,0.0,0.0,0.0,0.0,0.0,0.0,0.0,0.0,0.0,0.0,0.0,4.9843,4.9707,4.9518,4.9337,4.9195,4.8892,4.8723,4.8723,4.8568,4.8578,4.8759,4.8569,4.8145,4.7554,4.8062,4.7766,4.6875,0.0,0.0,4.7395,4.7532,4.7586,4.7589,4.7891,4.8032,4.8062,4.8022,4.8032,4.8004,4.7684,4.7392,4.7149,4.7093,4.7088,4.7077,4.702,4.7009,4.7009,4.7009,4.7009,4.7009,4.7009,4.7009,4.7009,4.7009,4.683,4.6719,4.6945,4.683,4.6719,4.6963,4.7009,4.7009,4.7009,4.7009,4.6661,4.5705,4.5701,4.5714,4.5437,4.4751,4.4069,4.3431,4.2654,4.1883,4.1124,4.1067,4.1021,4.0912,4.0912,4.0912,4.0912,4.0912,4.0572,3.9899,3.9882,3.9882,3.9882,4.0572,4.0912,4.0877,4.021,4.0244,2.4776,2.4795,2.4833,2.4965,2.5003,2.5003,2.5003,2.5003,0.0,0.0,0.0,0.0,0.0,0.0,0.0,0.0,0.0,0.0,0.0,0.0,0.0,0.0,0.0,0.0,0.0,0.0,0.0,0.0,0.0,4.9843,4.9707,4.9518,4.9337,4.9195,4.8342,4.7887,4.7887,4.8513,4.8587,4.8132,4.8596,4.8765,4.8644,4.806,4.7551,4.7132,0.0,4.708,4.6872,4.762,4.7921,4.7931,4.7982,4.8142,4.8307,4.8073,4.8142,4.8298,4.8014,4.7891,4.7798,4.7522,4.7425,4.737,4.7082,4.7009,4.7009,4.7009,4.7009,4.7009,4.7009,4.7009,4.7009,4.7009,4.6957,4.6945,4.6998,4.6957,4.6945,4.6998,4.7009,4.7009,4.7009,4.7009,4.686,4.6392,4.603,4.5714,4.5437,4.4751,4.4259,4.4138,4.3465,4.2689,4.19,4.1831,4.1555,4.0946,4.0912,4.0912,4.0912,4.0912,4.0843,4.071,4.071,4.071,4.071,4.0843,4.0912,4.0912,4.0762,4.0791,2.5003,2.5024,2.5162,2.5634,2.5379,2.5003,2.5003,2.5003,0.0,0.0,0.0,0.0,0.0,0.0,0.0,0.0,0.0,0.0,0.0,0.0,0.0,0.0,0.0,0.0,0.0,0.0,0.0,0.0,0.0,0.0,4.979,4.8723,4.8269,4.8649,4.7609,4.6957,4.6775,4.7328,4.7462,4.7178,4.7285,4.7436,4.759,4.7218,4.6965,4.6838,0.0,4.7104,4.7028,4.7872,4.822,4.8221,4.8411,4.856,4.8651,4.8523,4.8458,4.8383,4.825,4.8113,4.7972,4.7819,4.7767,4.7705,4.7381,4.7396,4.7461,4.7093,4.7009,4.7009,4.7009,4.7009,4.7009,4.7009,4.7009,4.7009,4.7009,4.7009,4.7009,4.7009,4.7009,4.7009,4.7009,4.7009,4.6952,4.6784,4.6253,4.5735,4.545,4.4751,4.4311,4.4311,4.3638,4.2879,4.2073,4.2004,4.1693,4.0963,4.0912,4.0912,4.0912,4.1279,4.1309,4.0912,4.1723,4.193,4.1498,4.193,4.193,4.1486,4.1486,4.1486,2.5014,2.5054,2.5268,2.5941,2.5565,2.523,2.6012,2.606,2.6086,0.0,0.0,0.0,0.0,0.0,0.0,0.0,0.0,0.0,0.0,0.0,0.0,0.0,0.0,0.0,0.0,0.0,0.0,0.0,0.0,0.0,4.9279,4.7844,4.7274,4.7875,4.681,4.6089,4.584,4.5885,4.6071,4.6376,4.6195,4.6257,4.6494,4.629,4.6215,4.6244,4.6794,4.7047,4.7103,4.7896,4.8348,4.8513,4.8599,4.8723,4.8909,4.8909,4.875,4.8523,4.8523,4.8383,4.8209,4.8113,4.8083,4.8024,4.7715,4.7736,4.7778,4.7261,4.7059,4.7009,4.7009,4.7009,4.7009,4.7009,4.7009,4.7009,4.7009,4.7009,4.7009,4.7009,4.7009,4.7009,4.7009,4.7009,4.7009,4.7009,4.6459,4.5892,4.5463,4.4906,4.4557,4.4557,4.4057,4.3401,4.2608,4.2366,4.2038,4.1481,4.1257,4.1072,4.0912,4.178,4.1849,4.0929,4.2413,4.2792,4.2004,4.281,4.2879,4.228,4.228,4.228,2.5073,2.5101,2.5128,2.5258,2.5191,2.5917,2.9027,2.9154,0.0,3.1657,0.0,0.0,0.0,0.0,0.0,0.0,0.0,0.0,0.0,0.0,0.0,0.0,0.0,0.0,0.0,0.0,0.0,0.0,0.0,0.0,4.7574,4.7215,4.7004,4.6978,4.5945,4.5371,4.5355,4.4573,4.4796,4.6046,4.6325,4.6477,4.6475,4.574,4.5387,4.5435,4.6217,4.6562,4.6618,4.7408,4.8187,4.8781,4.8064,4.824,4.8909,4.8909,4.8873,4.8855,4.8855,4.8847,4.8785,4.8467,4.8374,4.8317,4.8052,4.7757,4.7533,4.7479,4.7238,4.7009,4.7009,4.7009,4.7009,4.7009,4.7009,4.7009,4.7009,4.7009,4.7009,4.7009,4.7009,4.7009,4.7009,4.7009,4.7009,4.7009,4.669,4.6196,4.5489,4.5345,4.5311,4.5311,4.5259,4.4945,4.4207,4.35,4.3086,4.3034,4.2327,4.1607,4.0917,4.2327,4.2413,4.0917,4.2413,4.2792,4.2004,4.281,4.3172,4.3103,4.3103,4.3103,2.5098,2.595,2.6718,2.6192,2.7237,0.0,0.0,2.9992,3.035,3.2401,3.3812,0.0,0.0,0.0,0.0,0.0,0.0,0.0,0.0,0.0,0.0,0.0,0.0,0.0,0.0,0.0,0.0,0.0,0.0,0.0,4.7365,4.616,4.5653,4.6141,4.5076,4.4488,4.4488,4.4153,4.4247,4.4753,4.4878,4.4952,4.4934,4.4636,4.4488,4.4544,4.5387,4.5759,4.5815,4.6624,4.7125,4.7386,4.707,4.7348,4.7934,4.8083,4.8481,4.8909,4.8909,4.8909,4.8891,4.8759,4.8704,4.8651,4.8336,4.8153,4.7975,4.76,4.7414,4.7261,4.7048,4.7009,4.7009,4.7009,4.7009,4.7009,4.7009,4.7009,4.7009,4.7009,4.7009,4.7009,4.7009,4.7009,4.7009,4.7009,4.6876,4.6476,4.5528,4.5397,4.5397,4.5397,4.4979,4.4609,4.4315,4.3621,4.3189,4.3189,4.2447,4.1866,4.159,4.262,4.2689,4.1619,4.3544,4.4182,4.3418,4.4199,4.432,4.388,4.388,4.388,2.5151,2.6101,2.706,2.7046,0.0,0.0,3.2382,3.2781,3.3397,3.5664,3.7119,0.0,0.0,0.0,0.0,0.0,0.0,0.0,0.0,0.0,0.0,0.0,0.0,0.0,0.0,0.0,0.0,0.0,0.0,0.0,0.0,4.501,4.447,4.5303,4.4453,4.4005,4.4005,4.4005,4.4005,4.4005,4.3745,4.3745,4.4005,4.4005,4.4005,4.4042,4.4923,4.5295,4.535,4.5881,4.6131,4.6149,4.6401,4.6828,4.734,4.7608,4.7999,4.8399,4.8491,4.8519,4.8519,4.8519,4.8686,4.8801,4.8218,4.8162,4.8108,4.7345,4.7237,4.7294,4.7066,4.7009,4.7009,4.7009,4.7009,4.7009,4.7009,4.7009,4.7009,4.7009,4.7009,4.7009,4.7009,4.7009,4.7009,4.7009,4.7009,4.6602,4.5541,4.5397,4.5397,4.5397,4.4958,4.466,4.466,4.4177,4.3884,4.3884,4.2935,4.2263,4.2004,4.2775,4.2827,4.2021,4.4009,4.4803,4.4311,4.5031,4.5134,4.466,4.466,4.466,2.5276,2.5319,2.5761,0.0,0.0,0.0,3.6842,3.815,3.9041,4.2425,0.0,4.1254,0.0,0.0,0.0,0.0,0.0,0.0,0.0,0.0,0.0,0.0,0.0,0.0,0.0,0.0,0.0,0.0,0.0,0.0,0.0,4.3823,4.3588,4.4451,4.4173,4.3986,4.3986,4.3986,4.3986,4.3968,4.3188,4.3225,4.4005,4.3986,4.3986,4.4042,4.4915,4.5295,4.5295,4.5295,4.5295,4.5369,4.616,4.681,4.7303,4.759,4.7516,4.7321,4.759,4.7683,4.7683,4.7683,4.824,4.8671,4.7609,4.7626,4.7759,4.6615,4.6643,4.7009,4.7009,4.7009,4.7009,4.7009,4.7009,4.7009,4.7009,4.7009,4.7009,4.7009,4.7009,4.7009,4.7009,4.7009,4.7009,4.7009,4.6998,4.659,4.5541,4.5397,4.5397,4.5397,4.5397,4.5397,4.5397,4.5397,4.5397,4.5397,4.4022,4.2844,4.2038,4.2775,4.2827,4.2021,4.3522,4.4311,4.4311,4.5031,4.5397,4.5397,4.5397,4.5397,2.5293,2.6688,0.0,2.8777,0.0,0.0,0.0,3.7717,0.0,0.0,0.0,0.0,0.0,0.0,0.0,0.0,0.0,0.0,0.0,0.0,0.0,0.0,0.0,0.0,0.0,0.0,0.0,0.0,0.0,0.0,0.0,4.3503,4.3069,4.2756,4.3558,4.3466,4.2314,4.3429,4.3429,4.2314,4.3225,4.3763,4.3986,4.341,4.3466,4.4005,4.4265,4.4395,4.4395,4.4395,4.4395,4.4413,4.4655,4.4841,4.5064,4.5751,4.6075,4.6242,4.6698,4.6865,4.6865,4.6865,4.7014,4.7121,4.6548,4.6708,4.6983,4.6453,4.6643,4.7009,4.7009,4.7009,4.7009,4.7009,4.7009,4.7009,4.7009,4.7009,4.7009,4.7009,4.7009,4.7009,4.7009,4.7009,4.7009,4.7009,4.6362,4.5757,4.5437,4.5397,4.5397,4.5397,4.5397,4.5397,4.5397,4.5397,4.5397,4.5397,4.4022,4.3086,4.2844,4.3069,4.3086,4.2844,4.4302,4.5065,4.5065,4.5276,4.5397,4.5397,4.5397,4.5397,2.5762,2.7282,0.0,3.089,3.4408,3.8002,4.0226,0.0,0.0,0.0,0.0,0.0,0.0,0.0,0.0,0.0,0.0,0.0,0.0,0.0,0.0,0.0,0.0,0.0,0.0,0.0,0.0,0.0,0.0,0.0,0.0,4.2554,4.2148,4.1932,4.2652,4.2575,4.1616,4.2556,4.2556,4.1616,4.2259,4.2742,4.3039,4.3206,4.354,4.4005,4.4005,4.4005,4.4005,4.4005,4.4005,4.4005,4.4005,4.4005,4.4116,4.4979,4.5183,4.5127,4.5796,4.6011,4.6011,4.6011,4.6149,4.619,4.5542,4.5697,4.6003,4.5703,4.6068,4.6598,4.692,4.7009,4.7009,4.7009,4.7009,4.7009,4.7009,4.7009,4.7009,4.7009,4.7009,4.7009,4.7009,4.7009,4.7009,4.7009,4.608,4.5397,4.5397,4.5397,4.5397,4.5397,4.5397,4.5397,4.5397,4.5397,4.5397,4.5397,4.4298,4.3638,4.3638,4.3051,4.3017,4.3621,4.4522,4.51,4.5397,4.5397,4.5397,4.5397,4.5397,4.5397,2.659,0.0,0.0,3.3562,0.0,0.0,0.0,0.0,0.0,0.0,0.0,0.0,0.0,0.0,0.0,0.0,0.0,0.0,0.0,0.0,0.0,0.0,0.0,0.0,0.0,0.0,0.0,0.0,0.0,0.0,0.0,4.1255,4.1026,4.156,4.1592,4.1542,4.1367,4.1516,4.1516,4.1374,4.0799,4.0854,4.1542,4.3076,4.3856,4.4005,4.4005,4.3968,4.3893,4.3893,4.3893,4.3893,4.3893,4.3949,4.4098,4.4886,4.4674,4.4116,4.4915,4.5183,4.5175,4.5151,4.5431,4.5596,4.4565,4.46,4.4934,4.4675,4.5184,4.5998,4.6795,4.7009,4.7009,4.7009,4.7009,4.7009,4.7009,4.7009,4.7009,4.7009,4.7009,4.7009,4.7009,4.7009,4.6986,4.6911,4.6043,4.5397,4.5397,4.5397,4.5397,4.5397,4.5397,4.5397,4.5397,4.5397,4.5397,4.5397,4.4699,4.4328,4.4397,4.295,4.2799,4.4212,4.4298,4.4664,4.5344,4.5384,4.5397,4.5397,4.5397,4.5397,2.7312,2.8859,0.0,0.0,0.0,0.0,0.0,0.0,0.0,0.0,0.0,0.0,0.0,0.0,0.0,0.0,0.0,0.0,0.0,0.0,0.0,0.0,0.0,0.0,0.0,0.0,0.0,0.0,0.0,0.0,4.1259,4.0865,4.0396,3.9846,4.0989,4.0958,3.9658,4.094,4.094,0.0,4.0799,4.1096,4.0687,4.1672,4.2816,4.4005,4.4005,4.3633,4.3058,4.3058,4.3058,4.3058,4.3058,4.3448,4.4023,4.4209,4.4153,4.4023,4.4209,4.4283,4.4233,4.404,4.4024,4.398,4.3285,4.3582,4.4211,4.4532,4.5184,4.5998,4.6795,4.7009,4.7009,4.7009,4.7009,4.7009,4.7009,4.7009,4.7009,4.7009,4.7009,4.7009,4.7009,4.7009,4.6789,4.6223,4.5714,4.5397,4.5397,4.5397,4.5397,4.5397,4.5397,4.5397,4.5397,4.5397,4.5397,4.5397,4.4699,4.4557,4.5134,4.3943,4.3399,4.3737,4.4316,4.4691,4.4845,4.522,4.5397,4.5397,4.5397,4.5397,2.7546,0.0,0.0,3.7889,0.0,0.0,0.0,0.0,0.0,0.0,0.0,0.0,0.0,0.0,0.0,0.0,0.0,0.0,0.0,0.0,0.0,0.0,0.0,0.0,0.0,0.0,0.0,0.0,0.0,4.0992,4.0401,4.0246,3.9876,3.9224,3.9979,3.9974,3.9101,3.9974,3.9955,3.9101,4.0,4.0408,4.0427,4.1226,4.2266,4.3392,4.302,4.2612,4.2222,4.2222,4.2222,4.2259,4.2649,4.3058,4.3466,4.3856,4.4005,4.4005,4.4005,4.3926,4.3787,4.3656,4.3408,4.3105,4.2807,4.2892,4.3263,4.39,4.4382,4.497,4.6123,4.6427,4.6516,4.692,4.7009,4.7009,4.7009,4.7009,4.7009,4.7009,4.7009,4.7009,4.7009,4.6566,4.6167,4.5938,4.5598,4.5397,4.5397,4.5397,4.5397,4.5397,4.5397,4.5397,4.5397,4.5397,4.5397,4.5397,4.5031,4.501,4.538,4.4364,4.3896,4.4116,4.4282,4.4356,4.4373,4.4614,4.4848,4.5069,4.5069,4.5194,2.7546,0.0,3.3093,3.9881,0.0,0.0,0.0,0.0,0.0,0.0,0.0,0.0,0.0,0.0,0.0,0.0,0.0,0.0,0.0,0.0,0.0,0.0,0.0,0.0,0.0,0.0,0.0,0.0,0.0,4.0796,3.9766,3.9686,3.9483,3.9115,3.9101,3.9101,3.9101,3.9101,3.9101,3.9101,3.9101,3.9554,4.0427,4.0929,4.169,4.2556,4.1887,4.1523,4.1393,4.1393,4.1393,4.1467,4.2129,4.2519,4.2816,4.3522,4.3875,4.4005,4.4005,4.3828,4.3587,4.3555,4.3142,4.2702,4.2643,4.2482,4.2476,4.3276,4.3508,4.3829,4.5231,4.5588,4.5766,4.6427,4.6688,4.683,4.6973,4.7009,4.7009,4.7009,4.7009,4.7009,4.7009,4.6216,4.568,4.5912,4.5675,4.5446,4.541,4.5397,4.5397,4.5397,4.5397,4.5397,4.5397,4.5397,4.5397,4.5397,4.5397,4.5397,4.5397,4.4502,4.4188,4.4583,4.4131,4.3885,4.3885,4.3972,4.4202,4.4583,4.4666,4.4917,0.0,0.0,3.5784,0.0,0.0,0.0,0.0,0.0,0.0,0.0,0.0,0.0,0.0,0.0,0.0,0.0,0.0,0.0,0.0,0.0,0.0,0.0,0.0,0.0,0.0,0.0,0.0,0.0,4.0821,4.0115,3.9728,3.958,3.9401,3.9115,3.9101,3.9101,3.9101,3.9101,3.9101,3.9101,3.9101,3.9554,4.0371,3.9733,4.0271,4.1746,4.1653,4.1207,4.0557,4.0557,4.0557,4.0576,4.0687,4.1423,4.2493,4.2835,4.3392,4.4005,4.4005,4.3828,4.3553,4.3339,4.3004,4.2663,4.2422,4.2338,4.2476,4.3276,4.3508,4.3686,4.4542,4.4756,4.4792,4.4899,4.5452,4.6159,4.6848,4.7009,4.7009,4.7009,4.7009,4.7009,4.7009,4.6643,4.6307,4.6174,4.5925,4.5662,4.5437,4.5397,4.5397,4.5397,4.5397,4.5397,4.5397,4.5397,4.5397,4.5397,4.5397,4.5397,4.5397,4.4502,4.403,4.4102,4.3634,4.3396,4.3396,4.3796,4.403,4.4085,4.4496,4.4735,2.7546,3.0368,3.3579,0.0,0.0,0.0,0.0,0.0,0.0,0.0,0.0,0.0,0.0,0.0,0.0,0.0,0.0,0.0,0.0,0.0,0.0,0.0,0.0,0.0,0.0,0.0,0.0,0.0,4.0914,4.0266,3.9993,3.9783,3.9567,3.9337,3.919,3.9101,3.9101,3.9101,3.9101,3.9101,3.9101,3.9305,3.9665,3.9268,3.9777,4.091,4.0401,4.0,3.9658,3.9658,3.9658,3.9721,4.0204,4.0761,4.1404,4.2426,4.302,4.3369,4.368,4.3605,4.3321,4.3022,4.272,4.2444,4.2338,4.2297,4.2369,4.2744,4.2822,4.3019,4.3775,4.3989,4.4096,4.4496,4.5202,4.5856,4.6063,4.6581,4.7009,4.7009,4.7009,4.7009,4.7009,4.6714,4.6476,4.6435,4.6075,4.5748,4.5637,4.5485,4.5397,4.5397,4.5397,4.5397,4.5397,4.5397,4.5397,4.5397,4.5397,4.5274,4.5029,4.4359,4.3885,4.3604,4.3141,4.2912,4.2912,4.3112,4.3353,4.3619,4.4085,4.4316,0.0,0.0,3.0658,0.0,0.0,0.0,0.0,0.0,0.0,0.0,0.0,0.0,0.0,0.0,0.0,0.0,0.0,0.0,0.0,0.0,0.0,0.0,0.0,0.0,0.0,0.0,0.0,0.0,4.0817,4.0158,3.9814,3.9386,3.9041,3.8802,3.8789,3.8804,3.8804,3.9008,3.9101,3.9101,3.9101,3.9101,3.9101,3.9101,3.9454,4.0037,3.938,3.9101,3.9101,3.9101,3.9101,3.9157,3.9814,4.0074,4.0241,4.1672,4.2407,4.2759,4.3162,4.3252,4.3142,4.2807,4.2514,4.2297,4.2297,4.2297,4.2297,4.2297,4.2297,4.244,4.3036,4.3187,4.3383,4.415,4.4917,4.5552,4.5749,4.6438,4.7009,4.7009,4.7009,4.7009,4.7009,4.6784,4.6619,4.6602,4.6198,4.5875,4.5811,4.5576,4.5397,4.5397,4.5397,4.5397,4.5397,4.5238,4.5203,4.538,4.5221,4.5001,4.4704,4.4259,4.3783,4.3306,4.2835,4.2602,4.2602,4.2727,4.2897,4.3141,4.359,4.381,0.0,2.7445,0.0,0.0,0.0,0.0,0.0,0.0,0.0,0.0,0.0,0.0,0.0,0.0,0.0,0.0,0.0,0.0,0.0,0.0,0.0,0.0,0.0,0.0,0.0,0.0,0.0,0.0,3.9919,3.9235,3.8719,3.7885,3.7246,3.6862,3.7573,3.7956,3.7956,3.8711,3.9101,3.9101,3.9101,3.9101,3.9101,3.9101,3.912,3.9175,3.912,3.9101,3.9101,3.9101,3.9101,3.9101,3.9157,3.9175,3.9275,4.0185,4.133,4.2425,4.2453,4.2794,4.3142,4.2807,4.2514,4.2297,4.2297,4.2297,4.2297,4.2297,4.2297,4.2297,4.2351,4.2351,4.2565,4.3365,4.4114,4.5077,4.6587,4.6955,4.7009,4.7009,4.7009,4.7009,4.7009,4.6998,4.6888,4.6637,4.6357,4.6087,4.5837,4.5576,4.5397,4.5397,4.5397,4.5397,4.5397,4.4751,4.466,4.5363,4.4734,4.4465,4.4687,4.4259,4.3783,4.3306,4.2835,4.2602,4.2602,4.305,4.305,4.2649,4.3111,4.3336,0.0,0.0,0.0,0.0,0.0,0.0,0.0,0.0,0.0,0.0,0.0,0.0,0.0,0.0,0.0,0.0,0.0,0.0,0.0,0.0,0.0,0.0,0.0,0.0,0.0,0.0,0.0,0.0,0.0,3.9065,3.8875,3.7738,3.7036,3.6899,3.705,3.7139,3.7139,3.7417,3.7726,3.8079,3.8079,3.8432,3.9101,3.9101,3.9101,3.9101,3.9101,3.9101,3.9101,3.9101,3.9101,3.9101,3.9101,3.9101,3.9212,4.0074,4.1033,4.195,4.2287,4.2858,4.3409,4.3114,4.2816,4.2653,4.3175,4.2854,4.244,4.3129,4.2833,4.2458,4.3136,4.3332,4.3564,4.45,4.3893,4.3839,4.6438,4.7009,4.7009,4.7009,4.7009,4.7009,4.7009,4.7009,4.6975,4.6865,4.6483,4.6161,4.6075,4.5662,4.5397,4.5397,4.5397,4.5397,4.5397,4.5169,4.5117,4.538,4.4866,4.4463,4.4257,4.3796,4.3338,4.2866,4.2989,4.2897,4.2602,4.2774,4.2774,4.2618,4.308,4.3141,2.5509,0.0,0.0,0.0,0.0,0.0,0.0,0.0,0.0,0.0,0.0,0.0,0.0,0.0,0.0,0.0,0.0,0.0,0.0,0.0,0.0,0.0,0.0,0.0,0.0,0.0,0.0,0.0,0.0,0.0,3.8342,3.6966,3.6331,3.6618,3.6509,3.6426,3.6426,3.6426,3.6426,3.6408,3.6965,3.7318,3.7485,3.8599,3.8804,3.8321,3.8859,3.9101,3.9101,3.9101,3.9101,3.9101,3.9101,3.9101,3.9175,3.9758,4.0668,4.1635,4.1899,4.2703,4.3536,4.3214,4.2948,4.2849,4.3242,4.323,4.3108,4.3315,4.2851,4.2619,4.4028,4.4403,4.4528,4.5017,4.4493,4.4457,4.6545,4.7009,4.7009,4.7009,4.7009,4.7009,4.7009,4.7009,4.6957,4.6876,4.6495,4.6161,4.6075,4.568,4.5397,4.5397,4.5397,4.5397,4.5397,4.5169,4.5134,4.538,4.4735,4.4228,4.4013,4.3693,4.3232,4.2618,4.3065,4.3065,4.2602,4.2758,4.2758,4.2618,4.2928,4.2897,0.0,0.0,0.0,0.0,0.0,0.0,0.0,0.0,0.0,0.0,0.0,0.0,0.0,0.0,0.0,0.0,0.0,0.0,0.0,0.0,0.0,0.0,0.0,0.0,0.0,0.0,0.0,0.0,3.8695,3.7513,3.6987,3.5452,3.4972,3.5825,3.5844,3.5844,3.5844,3.5844,3.5287,3.4216,3.5801,3.5671,3.4166,3.7454,3.8142,3.6804,3.8365,3.9045,3.9064,3.9082,3.9101,3.9101,3.9101,3.9101,3.9101,3.9101,4.016,4.156,4.1298,4.2269,4.3528,4.3087,4.292,4.2853,4.2488,4.3397,4.4239,4.2833,4.244,4.2904,4.4921,4.5456,4.532,4.4792,4.5856,4.7009,4.7009,4.7009,4.7009,4.7009,4.7009,4.7009,4.7009,4.7009,4.6911,4.6649,4.6386,4.6112,4.5849,4.5576,4.5397,4.5397,4.5397,4.5397,4.5397,4.4734,4.463,4.5332,4.4264,4.3713,4.3968,4.3987,4.3547,4.2618,4.3065,4.3065,4.2602,4.305,4.305,4.2602,4.2602,4.2602,2.5509,0.0,0.0,0.0,0.0,0.0,2.6437,2.7679,0.0,0.0,0.0,0.0,0.0,0.0,0.0,0.0,0.0,0.0,0.0,0.0,0.0,0.0,0.0,0.0,0.0,0.0,0.0,0.0,3.731,3.6439,3.6141,3.4962,3.4424,3.4661,3.468,3.468,3.468,3.468,3.4513,3.4179,3.3497,3.2295,3.0846,3.4073,3.6185,3.7281,3.7343,3.7696,3.8284,3.8859,3.9101,3.9101,3.9101,3.9101,3.9101,3.9101,4.016,4.1583,4.1516,4.255,4.3868,4.3747,4.3529,4.3459,4.408,4.3641,4.3332,4.5189,4.5706,4.5831,4.642,4.6563,4.6527,4.6373,4.6676,4.7009,4.7009,4.7009,4.7009,4.7009,4.7009,4.7009,4.7009,4.7009,4.6968,4.6899,4.6506,4.6174,4.61,4.5693,4.5397,4.5397,4.5397,4.5397,4.5397,4.5221,4.5037,4.4899,4.4271,4.3769,4.3499,4.3486,4.3217,4.2618,4.3065,4.3065,4.2602,4.2727,4.2727,4.2602,4.2602,4.2602,0.0,0.0,0.0,0.0,0.0,0.0,2.5509,2.6265,2.7292,0.0,0.0,0.0,0.0,0.0,0.0,0.0,0.0,0.0,0.0,0.0,0.0,0.0,0.0,0.0,0.0,3.8135,3.8,3.7781,3.6738,3.5826,3.5176,3.4535,3.4203,3.4203,3.4203,3.4203,3.4203,3.4203,3.4203,3.4179,3.3256,3.1961,3.0493,3.3033,3.4903,3.6147,3.6525,3.6971,3.7454,3.8272,3.8804,3.9101,3.9101,3.9101,3.9101,3.9101,4.016,4.156,4.1226,4.237,4.4005,4.4005,4.387,4.3776,4.4133,4.3342,4.2672,4.451,4.5992,4.7009,4.7009,4.7009,4.7009,4.7009,4.7009,4.7009,4.7009,4.7009,4.7009,4.7009,4.7009,4.7009,4.7009,4.7009,4.6922,4.6696,4.6393,4.6112,4.5905,4.5589,4.5397,4.5397,4.5397,4.5397,4.5397,4.5397,4.5274,4.4998,4.4555,4.4171,4.3912,4.3881,4.3575,4.2912,4.3353,4.3262,4.2602,4.2602,4.2602,4.2602,4.2602,4.2602,0.0,0.0,0.0,0.0,0.0,0.0,2.5548,2.5644,2.6149,0.0,0.0,0.0,0.0,0.0,0.0,0.0,0.0,0.0,0.0,0.0,0.0,0.0,0.0,0.0,3.7773,3.772,3.7565,3.7319,3.6449,3.5436,3.4264,3.4092,3.4073,3.4203,3.385,3.3664,3.3664,3.3664,3.3664,3.3664,3.4036,3.3441,3.2109,3.3367,3.4036,3.4271,3.5782,3.6525,3.6767,3.7473,3.8284,3.9101,3.9101,3.9101,3.9101,3.9101,4.0104,4.1356,4.065,4.1895,4.3819,4.3819,4.3893,4.3918,4.3417,4.291,4.2462,4.2338,4.4439,4.6766,4.6955,4.7009,4.692,4.6563,4.6474,4.6581,4.692,4.692,4.6866,4.6973,4.7009,4.7009,4.7009,4.6986,4.6789,4.6374,4.6211,4.5988,4.5537,4.5437,4.5397,4.5397,4.5397,4.5397,4.5397,4.5397,4.5384,4.5331,4.493,4.468,4.4625,4.4625,4.4214,4.3321,4.3649,4.3428,4.2602,4.2602,4.2602,4.2602,4.2602,4.2602,0.0,0.0,0.0,0.0,0.0,0.0,2.5818,2.6536,2.7215,0.0,0.0,0.0,0.0,0.0,0.0,0.0,0.0,0.0,0.0,0.0,0.0,0.0,0.0,0.0,3.5137,3.509,3.4953,3.4745,3.4823,3.4689,3.4215,3.338,3.3305,3.4166,3.1682,3.035,3.035,3.035,3.035,3.0363,3.2958,3.4036,3.3702,3.2717,3.2977,3.4216,3.4556,3.5448,3.6711,3.6878,3.7789,3.9101,3.9101,3.9101,3.9101,3.9101,3.9758,4.0613,4.0446,4.1404,4.2716,4.2716,4.3299,4.3981,4.3886,4.3763,4.3485,4.2554,4.3643,4.5363,4.6659,4.7009,4.6366,4.3814,4.3225,4.3904,4.6456,4.6331,4.5974,4.683,4.7009,4.7009,4.7009,4.683,4.6725,4.683,4.6296,4.5912,4.6025,4.568,4.5397,4.5397,4.5397,4.5397,4.5397,4.5397,4.5247,4.4862,4.4749,4.4541,4.416,4.4145,4.3869,4.3306,4.302,4.2789,4.2602,4.2602,4.2602,4.2602,4.2602,4.2602,0.0,0.0,0.0,2.6751,0.0,0.0,0.0,2.6437,2.6633,2.6184,0.0,0.0,0.0,0.0,0.0,0.0,0.0,0.0,0.0,0.0,0.0,0.0,0.0,0.0,3.3749,3.3327,3.2961,3.2724,3.2802,3.3002,3.3379,3.2897,3.2358,3.1831,3.0238,2.9402,2.9402,2.9402,2.9402,2.942,3.1032,3.224,3.2996,3.2996,3.3441,3.4203,3.4203,3.4928,3.6098,3.6098,3.7046,3.8551,3.8934,3.9101,3.9101,3.9101,3.974,4.052,3.9944,4.0736,4.1999,4.1999,4.2909,4.4005,4.4005,4.4702,4.5039,4.2892,4.2858,4.4,4.6384,4.5831,4.4457,4.3643,4.4064,4.4939,4.5992,4.6206,4.6366,4.6902,4.7009,4.7009,4.7009,4.6784,4.6602,4.6602,4.6149,4.5799,4.5803,4.5563,4.5397,4.5397,4.5397,4.5397,4.5397,4.5397,4.5287,4.5069,4.5056,4.4835,4.4373,4.4359,4.4013,4.3306,4.2835,4.2602,4.2602,4.2602,4.2602,4.2602,4.2602,4.2602,0.0,0.0,0.0,0.0,0.0,2.7073,0.0,0.0,0.0,2.6395,0.0,0.0,0.0,0.0,0.0,0.0,0.0,0.0,0.0,0.0,0.0,0.0,0.0,0.0,0.0,3.1805,3.1234,3.1108,3.1125,3.1534,3.2405,3.2324,3.1474,2.975,2.9513,2.9402,2.9402,2.9402,2.9402,2.9402,2.9402,3.0196,3.1695,3.3107,3.3813,3.398,3.4123,3.4686,3.551,3.551,3.6451,3.7956,3.8618,3.8952,3.9101,3.9101,3.9684,4.0341,3.9424,4.0,4.1126,4.1126,4.2426,4.4005,4.4005,4.4984,4.5563,4.3011,4.2297,4.2886,4.5438,4.4653,4.3368,4.4007,4.5374,4.6331,4.5552,4.6081,4.6759,4.6955,4.7009,4.7009,4.7009,4.6772,4.6483,4.6186,4.595,4.5727,4.5498,4.5489,4.5463,4.541,4.5397,4.5397,4.5397,4.5397,4.5397,4.5397,4.5397,4.5234,4.4845,4.4666,4.4171,4.3321,4.2835,4.2633,4.2727,4.2633,4.2602,4.2602,4.2602,4.2602,0.0,0.0,0.0,0.0,2.7926,0.0,0.0,0.0,2.7312,2.5915,0.0,0.0,0.0,0.0,0.0,0.0,0.0,0.0,0.0,0.0,0.0,0.0,0.0,0.0,0.0,3.0014,2.9624,2.9963,3.0845,3.1522,3.1864,3.1333,3.0951,3.0816,2.9898,2.9402,2.9402,2.9402,2.9402,2.9402,2.9402,2.9986,3.1108,3.1769,3.2457,3.3181,3.3887,3.4686,3.551,3.551,3.6451,3.7919,3.7993,3.8469,3.9101,3.9101,3.9175,3.9268,3.9138,3.9212,3.938,3.938,4.1479,4.4005,4.4005,4.3451,4.2761,4.2404,4.2297,4.2387,4.2744,4.4635,4.5813,4.319,4.375,4.497,4.532,4.551,4.5867,4.683,4.7009,4.7009,4.7009,4.6725,4.638,4.5988,4.5862,4.5786,4.576,4.5748,4.5662,4.5423,4.5397,4.5397,4.5397,4.5397,4.5397,4.5397,4.5397,4.5384,4.5314,4.4513,4.3825,4.3306,4.2835,4.2789,4.3216,4.2789,4.2602,4.2602,4.2602,4.2602,0.0,0.0,0.0,0.0,0.0,0.0,2.7428,0.0,2.7056,0.0,0.0,0.0,0.0,0.0,0.0,0.0,2.6363,0.0,0.0,0.0,0.0,0.0,0.0,0.0,0.0,0.0,0.0,0.0,2.8654,2.9321,2.9907,2.949,2.9483,3.0047,2.9638,2.9402,2.9402,2.9402,2.9402,2.9402,2.9402,2.988,3.0766,3.0511,3.1273,3.2804,3.3293,3.398,3.4742,3.4742,3.5448,3.6544,3.7027,3.7968,3.9101,3.9101,3.9101,3.9101,3.9101,3.9101,3.9101,3.9101,4.133,4.3876,4.3213,4.2691,4.2297,4.2297,4.3618,4.5028,4.5028,4.6009,4.667,4.5349,4.4107,4.3661,4.5099,4.5517,4.5891,4.683,4.7009,4.7009,4.7009,4.6518,4.6124,4.6075,4.5925,4.5735,4.5602,4.5714,4.5701,4.5423,4.5397,4.5397,4.5397,4.5397,4.5397,4.5397,4.5136,4.4984,4.4984,4.4202,4.3754,4.3708,4.3517,4.3383,4.3306,4.282,4.2602,4.2602,4.2602,4.2602,3.3339,0.0,0.0,0.0,0.0,0.0,0.0,0.0,0.0,0.0,0.0,0.0,0.0,0.0,0.0,0.0,0.0,2.6342,0.0,0.0,0.0,0.0,0.0,0.0,0.0,0.0,0.0,2.6554,2.6899,2.7539,2.8472,2.8305,2.8564,2.9365,2.9402,2.9402,2.9402,2.9402,2.9402,2.9402,2.9402,2.9718,3.0251,2.9662,3.0363,3.208,3.2655,3.3256,3.3887,3.411,3.4705,3.5578,3.6395,3.7677,3.9101,3.9101,3.9101,3.9101,3.9101,3.9101,3.9101,3.9101,4.133,4.3852,4.3014,4.2544,4.2297,4.2297,4.3957,4.5902,4.6777,4.7009,4.6884,4.6444,4.4928,4.3886,4.4946,4.5677,4.6302,4.6884,4.7009,4.7009,4.7009,4.6381,4.595,4.61,4.5938,4.5714,4.5437,4.5637,4.5701,4.5423,4.5397,4.5397,4.5397,4.5397,4.5397,4.5397,4.5083,4.4821,4.4652,4.4131,4.3902,4.4001,4.4088,4.39,4.3366,4.2989,4.2727,4.2602,4.2602,4.2602,0.0,0.0,0.0,3.1811,0.0,0.0,0.0,0.0,3.0141,0.0,0.0,0.0,0.0,0.0,2.7309,2.5697,2.6774,0.0,0.0,0.0,0.0,0.0,0.0,0.0,0.0,0.0,2.5644,2.6262,2.6393,2.6986,2.8238,2.8355,2.8694,2.937,2.9402,2.9402,2.9402,2.9402,2.9402,2.9402,2.9402,2.9402,2.9439,2.9402,2.9866,3.0734,3.2042,3.2767,3.3107,3.3887,3.4705,3.5578,3.6395,3.7677,3.9101,3.9101,3.9101,3.9101,3.9101,3.9101,3.9101,3.9101,4.133,4.3997,4.3966,4.3178,4.2297,4.2297,4.2369,4.3154,4.6206,4.7009,4.6605,4.506,4.5784,4.6438,4.4953,4.5856,4.6973,4.6991,4.7009,4.7009,4.7009,4.6381,4.59,4.5912,4.5849,4.5714,4.5437,4.5637,4.5701,4.5423,4.5397,4.5397,4.5397,4.5397,4.5397,4.5397,4.5384,4.5127,4.453,4.4474,4.4333,4.4016,4.4333,4.4191,4.3593,4.3383,4.3034,4.2602,4.2602,4.2602,0.0,0.0,3.4364,3.4326,0.0,0.0,0.0,0.0,0.0,0.0,0.0,0.0,0.0,0.0,2.7535,2.6379,2.6667,2.6633,0.0,0.0,0.0,0.0,0.0,0.0,0.0,0.0,0.0,2.5351,2.5805,2.6498,2.7451,2.7956,2.856,2.9365,2.9402,2.9402,2.9402,2.9402,2.9402,2.9402,2.9402,2.9402,2.9402,2.9402,2.955,2.9866,3.0846,3.1825,3.2767,3.3218,3.3887,3.4779,3.6154,3.6816,3.7144,3.8581,3.9101,3.9101,3.9101,3.9101,3.9101,3.9101,3.9844,4.097,4.2174,4.1934,4.1432,4.2421,4.3245,4.3829,4.3886,4.5438,4.6866,4.632,4.501,4.4314,4.5856,4.6052,4.6152,4.6866,4.7009,4.7009,4.7009,4.6506,4.61,4.61,4.5938,4.5714,4.5437,4.5675,4.5752,4.5437,4.5397,4.5397,4.5397,4.5397,4.5397,4.5397,4.5397,4.5318,4.5096,4.51,4.5029,4.4934,4.5046,4.481,4.4191,4.3898,4.3368,4.2602,4.2602,4.2602,3.7533,3.672,0.0,3.6382,3.5399,0.0,3.3243,0.0,0.0,0.0,0.0,0.0,0.0,0.0,2.8315,2.6833,2.6859,2.6656,0.0,2.5256,0.0,0.0,0.0,0.0,0.0,0.0,2.4905,2.4905,2.5521,2.6241,0.0,2.8105,2.9027,2.9792,2.9893,2.9899,2.9829,2.9532,2.9402,2.9402,2.9402,2.9402,2.9402,2.9402,2.9402,2.9457,3.0549,3.1515,3.2377,3.3126,3.3906,3.4798,3.6172,3.6482,3.642,3.8377,3.9101,3.9101,3.9101,3.9101,3.9101,3.9101,3.9101,3.9319,4.0486,4.1321,4.1993,4.2536,4.3217,4.3804,4.3939,4.5474,4.7009,4.7009,4.5456,4.4368,4.582,4.6052,4.617,4.6866,4.7009,4.7009,4.7009,4.6602,4.6314,4.6314,4.5942,4.5602,4.5423,4.5589,4.5637,4.5423,4.5397,4.5397,4.5397,4.5397,4.5397,4.5397,4.5397,4.5397,4.5397,4.5397,4.5397,4.5397,4.5397,4.5207,4.4824,4.4274,4.3695,4.3081,4.2758,4.2602]}]]